[[{"header":{"parameterUnit":"m.s-1","parameterCategory":1,"la1":31.0,"la2":29.5877,"lo1":-88.7671,"lo2":-86.6584,"dy":0.0162,"dx":0.0185,"nx":115,"ny":88,"refTime":"2026-03-16T00:00:00:Z","depth":0,"parameterNumber":2,"parameterNumberName":"U-component_of_WINDS"},"data":[0.0,0.0,0.0,0.0,0.0,0.0,0.0,0.0,0.0,0.0,0.0,0.0,0.0,0.0,0.0,0.0,0.0,0.0,0.0,0.0,0.0,0.0,0.0,0.0,0.0,0.0,0.0,0.0,0.0,0.0,0.0,0.0,0.0,0.0,0.0,0.0,0.0,0.0,0.0,0.0,0.0,0.0,0.0,0.0,0.0,0.0,0.0,0.0,0.0,0.0,0.0,0.0,0.0,0.0,0.0,0.0,0.0,0.0,0.0,0.0,0.0,0.0,0.0,0.0,0.0,0.0,0.0,0.0,0.0,0.0,0.0,0.0,0.0,0.0,0.0,0.0,0.0,0.0,0.0,0.0,0.0,0.0,0.0,0.0,0.0,0.0,0.0,0.0,0.0,0.0,0.0,0.0,0.0,0.0,0.0,0.0,0.0,0.0,0.0,0.0,0.0,0.0,0.0,0.0,0.0,0.0,0.0,0.0,0.0,0.0,0.0,0.0,0.0,0.0,0.0,0.0,0.0,0.0,0.0,0.0,0.0,0.0,0.0,0.0,0.0,0.0,0.0,0.0,0.0,0.0,0.0,0.0,0.0,0.0,0.0,0.0,0.0,0.0,0.0,0.0,0.0,0.0,0.0,0.0,0.0,0.0,0.0,0.0,0.0,0.0,0.0,0.0,0.0,0.0,0.0,0.0,0.0,0.0,0.0,0.0,0.0,0.0,0.0,0.0,0.0,0.0,0.0,0.0,0.0,0.0,0.0,0.0,0.0,0.0,0.0,0.0,0.0,0.0,0.0,0.0,0.0,0.0,0.0,0.0,0.0,0.0,0.0,0.0,0.0,0.0,0.0,0.0,0.0,0.0,0.0,0.0,0.0,0.0,0.0,0.0,0.0,0.0,0.0,0.0,0.0,0.0,0.0,0.0,0.0,0.0,0.0,0.0,0.0,0.0,0.0,0.0,0.0,0.0,0.0,0.0,0.0,0.0,0.0,0.0,0.0,0.0,0.0,0.0,0.0,0.0,0.0,0.0,0.0,0.0,0.0,0.0,0.0,0.0,0.0,0.0,0.0,0.0,0.0,0.0,0.0,0.0,0.0,0.0,0.0,0.0,0.0,0.0,0.0,0.0,0.0,0.0,0.0,0.0,0.0,0.0,0.0,0.0,0.0,0.0,0.0,0.0,0.0,0.0,0.0,0.0,0.0,0.0,0.0,0.0,0.0,0.0,0.0,0.0,0.0,0.0,0.0,0.0,0.0,0.0,0.0,0.0,0.0,0.0,0.0,0.0,0.0,0.0,0.0,0.0,0.0,0.0,0.0,0.0,0.0,0.0,0.0,0.0,0.0,0.0,0.0,0.0,0.0,0.0,0.0,0.0,0.0,0.0,0.0,0.0,0.0,0.0,0.0,0.0,0.0,0.0,0.0,0.0,0.0,0.0,0.0,0.0,0.0,0.0,0.0,0.0,0.0,0.0,0.0,0.0,0.0,0.0,0.0,0.0,0.0,0.0,0.0,0.0,0.0,0.0,0.0,0.0,0.0,0.0,0.0,0.0,0.0,0.0,0.0,0.0,0.0,0.0,0.0,0.0,0.0,0.0,0.0,0.0,0.0,0.0,0.0,0.0,0.0,0.0,0.0,0.0,0.0,0.0,0.0,0.0,0.0,0.0,0.0,0.0,0.0,0.0,0.0,0.0,0.0,0.0,0.0,0.0,0.0,0.0,0.0,0.0,0.0,0.0,0.0,0.0,0.0,0.0,0.0,0.0,0.0,0.0,0.0,0.0,0.0,0.0,0.0,0.0,0.0,0.0,0.0,0.0,0.0,0.0,0.0,0.0,0.0,0.0,0.0,0.0,0.0,0.0,0.0,0.0,0.0,0.0,0.0,0.0,0.0,0.0,0.0,0.0,0.0,0.0,0.0,0.0,0.0,0.0,0.0,0.0,0.0,0.0,0.0,0.0,0.0,0.0,0.0,0.0,0.0,0.0,0.0,0.0,0.0,0.0,0.0,0.0,0.0,0.0,0.0,0.0,0.0,0.0,0.0,0.0,0.0,0.0,0.0,0.0,0.0,0.0,0.0,0.0,0.0,0.0,0.0,0.0,0.0,0.0,0.0,0.0,0.0,0.0,0.0,0.0,0.0,0.0,0.0,0.0,0.0,0.0,0.0,0.0,0.0,0.0,0.0,0.0,0.0,0.0,0.0,0.0,0.0,0.0,0.0,0.0,0.0,0.0,0.0,0.0,0.0,0.0,0.0,0.0,0.0,0.0,0.0,0.0,0.0,0.0,0.0,0.0,0.0,0.0,0.0,0.0,0.0,0.0,0.0,0.0,0.0,0.0,0.0,0.0,0.0,0.0,0.0,0.0,0.0,0.0,0.0,0.0,0.0,0.0,0.0,0.0,0.0,0.0,0.0,0.0,0.0,0.0,0.0,0.0,0.0,0.0,0.0,0.0,0.0,0.0,0.0,0.0,0.0,0.0,0.0,0.0,0.0,0.0,0.0,0.0,0.0,0.0,0.0,0.0,0.0,0.0,0.0,0.0,0.0,0.0,0.0,0.0,0.0,0.0,0.0,0.0,0.0,0.0,0.0,0.0,0.0,0.0,0.0,0.0,0.0,0.0,0.0,0.0,0.0,0.0,0.0,0.0,0.0,0.0,0.0,0.0,0.0,0.0,0.0,0.0,0.0,0.0,0.0,0.0,0.0,0.0,0.0,0.0,0.0,0.0,0.0,0.0,0.0,0.0,0.0,0.0,0.0,0.0,0.0,0.0,0.0,0.0,0.0,0.0,0.0,0.0,0.0,0.0,0.0,0.0,0.0,0.0,0.0,0.0,0.0,0.0,0.0,0.0,0.0,0.0,0.0,0.0,0.0,0.0,0.0,0.0,0.0,0.0,0.0,0.0,0.0,0.0,0.0,0.0,0.0,0.0,0.0,0.0,0.0,0.0,0.0,0.0,0.0,0.0,0.0,0.0,0.0,0.0,0.0,0.0,0.0,0.0,0.0,0.0,0.0,0.0,0.0,0.0,0.0,0.0,0.0,0.0,0.0,0.0,0.0,0.0,0.0,0.0,0.0,0.0,0.0,0.0,0.0,0.0,0.0,0.0,0.0,0.0,0.0,0.0,0.0,0.0,0.0,0.0,0.0,0.0,0.0,0.0,0.0,0.0,0.0,0.0,0.0,0.0,0.0,0.0,0.0,0.0,0.0,0.0,0.0,0.0,0.0,0.0,0.0,0.0,0.0,0.0,0.0,0.0,0.0,0.0,0.0,0.0,0.0,0.0,0.0,0.0,0.0,0.0,0.0,0.0,0.0,0.0,0.0,0.0,0.0,0.0,0.0,0.0,0.0,0.0,0.0,0.0,0.0,0.0,0.0,0.0,0.0,0.0,0.0,0.0,0.0,0.0,0.0,0.0,0.0,0.0,0.0,0.0,0.0,0.0,0.0,0.0,0.0,0.0,0.0,0.0,0.0,0.0,0.0,0.0,0.0,0.0,0.0,0.0,0.0,0.0,0.0,0.0,0.0,0.0,0.0,0.0,0.0,0.0,0.0,0.0,0.0,0.0,0.0,0.0,0.0,0.0,0.0,0.0,0.0,0.0,0.0,0.0,0.0,0.0,0.0,0.0,0.0,0.0,0.0,0.0,0.0,0.0,0.0,0.0,0.0,0.0,0.0,0.0,0.0,0.0,0.0,0.0,0.0,0.0,0.0,0.0,0.0,0.0,0.0,0.0,0.0,0.0,0.0,0.0,0.0,0.0,0.0,0.0,0.0,0.0,0.0,0.0,0.0,0.0,0.0,0.0,0.0,0.0,0.0,0.0,0.0,0.0,0.0,0.0,0.0,0.0,0.0,0.0,0.0,0.0,0.0,0.0,0.0,0.0,0.0,0.0,0.0,0.0,0.0,0.0,0.0,0.0,0.0,0.0,0.0,0.0,0.0,0.0,0.0,0.0,0.0,0.0,0.0,0.0,0.0,0.0,0.0,0.0,0.0,0.0,0.0,0.0,0.0,0.0,0.0,0.0,0.0,0.0,0.0,0.0,0.0,0.0,0.0,0.0,0.0,0.0,0.0,0.0,0.0,0.0,0.0,0.0,0.0,0.0,0.0,0.0,0.0,0.0,0.0,0.0,0.0,0.0,0.0,0.0,0.0,0.0,0.0,0.0,0.0,0.0,0.0,0.0,0.0,0.0,0.0,0.0,0.0,0.0,0.0,0.0,0.0,0.0,0.0,0.0,0.0,0.0,0.0,0.0,0.0,0.0,0.0,0.0,7.8957,0.0,0.0,0.0,0.0,0.0,0.0,0.0,0.0,0.0,0.0,0.0,0.0,0.0,0.0,0.0,0.0,0.0,0.0,0.0,0.0,0.0,0.0,0.0,0.0,0.0,0.0,0.0,0.0,0.0,0.0,0.0,0.0,0.0,0.0,0.0,0.0,0.0,0.0,0.0,0.0,0.0,0.0,0.0,0.0,0.0,0.0,0.0,0.0,0.0,0.0,0.0,0.0,0.0,0.0,0.0,0.0,0.0,0.0,0.0,0.0,0.0,0.0,0.0,0.0,0.0,0.0,0.0,0.0,0.0,0.0,0.0,0.0,0.0,0.0,0.0,0.0,0.0,0.0,0.0,0.0,0.0,0.0,0.0,0.0,0.0,0.0,0.0,0.0,0.0,0.0,0.0,0.0,0.0,0.0,0.0,0.0,0.0,0.0,0.0,0.0,0.0,0.0,0.0,0.0,0.0,0.0,0.0,0.0,0.0,0.0,8.1122,8.0716,8.1054,8.0445,7.8551,0.0,0.0,0.0,0.0,0.0,0.0,0.0,0.0,0.0,0.0,0.0,0.0,0.0,0.0,0.0,0.0,0.0,0.0,0.0,0.0,0.0,0.0,0.0,0.0,0.0,0.0,0.0,0.0,0.0,0.0,0.0,0.0,0.0,0.0,0.0,0.0,0.0,0.0,0.0,0.0,0.0,0.0,0.0,0.0,0.0,0.0,0.0,0.0,0.0,0.0,0.0,0.0,0.0,0.0,0.0,0.0,0.0,0.0,0.0,0.0,0.0,0.0,0.0,0.0,0.0,0.0,0.0,0.0,0.0,0.0,0.0,0.0,0.0,0.0,0.0,0.0,0.0,0.0,0.0,0.0,0.0,0.0,0.0,0.0,0.0,0.0,0.0,0.0,0.0,0.0,0.0,0.0,0.0,0.0,0.0,0.0,0.0,0.0,0.0,0.0,0.0,0.0,0.0,0.0,0.0,0.0,0.0,0.0,0.0,0.0,0.0,0.0,8.146,8.0581,7.8077,0.0,0.0,0.0,0.0,0.0,0.0,0.0,0.0,0.0,0.0,0.0,0.0,0.0,0.0,0.0,0.0,0.0,0.0,0.0,0.0,0.0,0.0,0.0,0.0,0.0,0.0,0.0,0.0,0.0,0.0,0.0,0.0,0.0,0.0,0.0,0.0,0.0,0.0,0.0,0.0,0.0,0.0,0.0,0.0,0.0,0.0,0.0,0.0,0.0,0.0,0.0,0.0,0.0,0.0,0.0,0.0,0.0,0.0,0.0,0.0,0.0,0.0,0.0,0.0,0.0,0.0,0.0,0.0,0.0,0.0,0.0,0.0,0.0,0.0,0.0,0.0,0.0,0.0,0.0,0.0,0.0,0.0,0.0,0.0,0.0,0.0,0.0,0.0,0.0,0.0,0.0,0.0,0.0,0.0,0.0,0.0,0.0,0.0,0.0,0.0,0.0,0.0,0.0,0.0,0.0,0.0,0.0,0.0,0.0,0.0,8.1866,8.3152,8.3219,0.0,7.828,0.0,0.0,0.0,0.0,0.0,0.0,0.0,0.0,0.0,0.0,0.0,0.0,0.0,0.0,0.0,0.0,0.0,0.0,0.0,0.0,0.0,0.0,0.0,0.0,0.0,0.0,0.0,0.0,0.0,0.0,0.0,0.0,0.0,0.0,0.0,0.0,0.0,0.0,0.0,0.0,0.0,0.0,0.0,0.0,0.0,0.0,0.0,0.0,0.0,0.0,0.0,0.0,0.0,0.0,0.0,0.0,0.0,0.0,0.0,0.0,0.0,0.0,0.0,0.0,0.0,0.0,0.0,0.0,0.0,0.0,0.0,0.0,0.0,0.0,0.0,0.0,0.0,0.0,0.0,0.0,0.0,0.0,0.0,0.0,0.0,0.0,0.0,0.0,0.0,0.0,0.0,0.0,0.0,0.0,0.0,0.0,0.0,0.0,0.0,0.0,0.0,0.0,0.0,0.0,0.0,0.0,0.0,0.0,0.0,0.0,0.0,8.2881,8.1596,7.9769,0.0,0.0,0.0,0.0,0.0,0.0,0.0,0.0,0.0,0.0,0.0,0.0,0.0,0.0,0.0,0.0,0.0,0.0,0.0,0.0,0.0,0.0,0.0,0.0,0.0,0.0,0.0,0.0,0.0,0.0,0.0,0.0,0.0,0.0,0.0,0.0,0.0,0.0,0.0,0.0,0.0,0.0,0.0,0.0,0.0,0.0,0.0,0.0,0.0,0.0,0.0,0.0,0.0,0.0,0.0,0.0,0.0,0.0,0.0,0.0,0.0,0.0,0.0,0.0,0.0,0.0,0.0,0.0,0.0,0.0,0.0,0.0,0.0,0.0,0.0,0.0,0.0,0.0,0.0,0.0,0.0,0.0,0.0,0.0,0.0,0.0,0.0,0.0,0.0,0.0,0.0,0.0,0.0,0.0,0.0,0.0,0.0,0.0,0.0,0.0,0.0,0.0,0.0,0.0,0.0,0.0,0.0,0.0,0.0,0.0,8.2881,0.0,8.2678,8.119,7.916,7.6657,0.0,0.0,0.0,0.0,0.0,0.0,0.0,0.0,0.0,0.0,0.0,0.0,0.0,0.0,0.0,0.0,0.0,0.0,0.0,0.0,0.0,0.0,0.0,0.0,0.0,0.0,0.0,0.0,0.0,0.0,0.0,0.0,0.0,0.0,0.0,0.0,0.0,0.0,0.0,0.0,0.0,0.0,0.0,0.0,0.0,0.0,0.0,0.0,0.0,0.0,0.0,0.0,0.0,0.0,0.0,0.0,0.0,0.0,0.0,0.0,0.0,0.0,0.0,0.0,0.0,0.0,0.0,0.0,0.0,0.0,0.0,0.0,0.0,0.0,0.0,0.0,0.0,0.0,0.0,0.0,0.0,0.0,0.0,0.0,0.0,0.0,0.0,0.0,0.0,0.0,0.0,0.0,0.0,0.0,0.0,0.0,0.0,0.0,0.0,0.0,0.0,0.0,0.0,0.0,0.0,0.0,0.0,0.0,0.0,8.3152,8.2746,8.349,8.3355,8.0919,0.0,0.0,0.0,0.0,0.0,0.0,0.0,0.0,0.0,0.0,0.0,0.0,0.0,0.0,0.0,0.0,0.0,0.0,0.0,0.0,0.0,0.0,0.0,0.0,0.0,0.0,0.0,0.0,0.0,0.0,0.0,0.0,0.0,0.0,0.0,0.0,0.0,0.0,0.0,0.0,0.0,0.0,0.0,0.0,0.0,0.0,0.0,0.0,0.0,0.0,0.0,0.0,0.0,0.0,0.0,0.0,0.0,0.0,0.0,0.0,0.0,0.0,0.0,0.0,0.0,0.0,0.0,0.0,0.0,0.0,0.0,0.0,0.0,0.0,0.0,0.0,0.0,0.0,0.0,0.0,0.0,0.0,0.0,0.0,0.0,0.0,0.0,0.0,0.0,0.0,0.0,0.0,0.0,0.0,0.0,0.0,0.0,0.0,0.0,0.0,0.0,0.0,0.0,0.0,0.0,0.0,0.0,0.0,0.0,8.1799,8.1731,8.2949,8.5384,8.1054,7.7874,0.0,0.0,0.0,0.0,0.0,0.0,0.0,0.0,0.0,0.0,0.0,0.0,0.0,0.0,0.0,0.0,0.0,0.0,0.0,0.0,0.0,0.0,0.0,0.0,0.0,0.0,0.0,0.0,0.0,0.0,0.0,0.0,0.0,0.0,0.0,0.0,0.0,0.0,0.0,0.0,0.0,0.0,0.0,0.0,0.0,0.0,0.0,0.0,0.0,0.0,0.0,0.0,0.0,0.0,0.0,0.0,0.0,0.0,0.0,0.0,0.0,0.0,0.0,0.0,0.0,0.0,0.0,0.0,0.0,0.0,0.0,0.0,0.0,0.0,0.0,0.0,0.0,0.0,0.0,0.0,0.0,0.0,0.0,0.0,0.0,0.0,0.0,0.0,0.0,0.0,0.0,0.0,0.0,0.0,0.0,0.0,0.0,0.0,0.0,0.0,0.0,0.0,0.0,0.0,0.0,0.0,0.0,0.0,0.0,8.1663,0.0,8.3896,0.0,8.031,7.6724,0.0,0.0,0.0,0.0,0.0,0.0,0.0,0.0,0.0,0.0,0.0,0.0,0.0,0.0,0.0,0.0,0.0,0.0,0.0,0.0,0.0,0.0,0.0,0.0,0.0,0.0,0.0,0.0,0.0,0.0,0.0,0.0,0.0,0.0,0.0,0.0,0.0,0.0,0.0,0.0,0.0,0.0,0.0,0.0,0.0,0.0,0.0,0.0,0.0,0.0,0.0,0.0,0.0,0.0,0.0,0.0,0.0,0.0,0.0,0.0,0.0,0.0,0.0,0.0,0.0,0.0,0.0,0.0,0.0,0.0,0.0,0.0,0.0,0.0,0.0,0.0,0.0,0.0,0.0,0.0,0.0,0.0,0.0,0.0,0.0,0.0,0.0,0.0,0.0,0.0,0.0,0.0,0.0,0.0,0.0,0.0,0.0,0.0,0.0,0.0,0.0,0.0,0.0,0.0,0.0,0.0,0.0,0.0,8.2408,8.4505,8.5926,8.5384,8.2611,8.1528,7.8077,0.0,0.0,0.0,0.0,0.0,0.0,0.0,0.0,0.0,0.0,0.0,0.0,0.0,0.0,0.0,0.0,0.0,0.0,0.0,0.0,0.0,0.0,0.0,0.0,0.0,0.0,0.0,0.0,0.0,0.0,0.0,0.0,0.0,0.0,0.0,0.0,0.0,0.0,0.0,0.0,0.0,0.0,0.0,0.0,0.0,0.0,0.0,0.0,0.0,0.0,0.0,0.0,0.0,0.0,0.0,0.0,0.0,0.0,0.0,0.0,0.0,0.0,0.0,0.0,0.0,0.0,0.0,0.0,0.0,0.0,0.0,0.0,0.0,0.0,0.0,0.0,0.0,0.0,0.0,0.0,0.0,0.0,0.0,0.0,0.0,0.0,0.0,0.0,0.0,0.0,0.0,0.0,0.0,0.0,0.0,0.0,0.0,0.0,0.0,0.0,0.0,0.0,0.0,0.0,0.0,0.0,0.0,0.0,0.0,8.2408,8.4302,8.5655,8.6061,8.1054,7.801,0.0,0.0,0.0,0.0,0.0,0.0,0.0,0.0,0.0,0.0,0.0,0.0,0.0,0.0,0.0,0.0,0.0,0.0,0.0,0.0,0.0,0.0,0.0,0.0,0.0,0.0,0.0,0.0,0.0,0.0,0.0,0.0,0.0,0.0,0.0,0.0,0.0,0.0,0.0,0.0,0.0,0.0,0.0,0.0,0.0,0.0,0.0,0.0,0.0,0.0,0.0,0.0,0.0,0.0,0.0,0.0,0.0,0.0,0.0,0.0,0.0,0.0,0.0,0.0,0.0,0.0,0.0,0.0,0.0,0.0,0.0,0.0,0.0,0.0,0.0,0.0,0.0,0.0,0.0,0.0,0.0,0.0,0.0,0.0,0.0,0.0,0.0,0.0,0.0,0.0,0.0,0.0,0.0,0.0,0.0,0.0,0.0,0.0,0.0,0.0,0.0,0.0,0.0,0.0,0.0,0.0,0.0,0.0,0.0,8.5587,8.7076,8.7955,8.8023,8.2949,7.9566,7.8077,0.0,0.0,0.0,0.0,0.0,0.0,0.0,0.0,0.0,0.0,0.0,0.0,0.0,0.0,0.0,0.0,0.0,0.0,0.0,0.0,0.0,0.0,0.0,0.0,0.0,0.0,0.0,0.0,0.0,0.0,0.0,0.0,0.0,0.0,0.0,0.0,0.0,0.0,0.0,0.0,0.0,0.0,0.0,0.0,0.0,0.0,0.0,0.0,0.0,0.0,0.0,0.0,0.0,0.0,0.0,0.0,0.0,0.0,0.0,0.0,0.0,0.0,0.0,0.0,0.0,0.0,0.0,0.0,0.0,0.0,0.0,0.0,0.0,0.0,0.0,0.0,0.0,0.0,0.0,0.0,0.0,0.0,0.0,0.0,0.0,0.0,0.0,0.0,0.0,0.0,0.0,0.0,0.0,0.0,0.0,0.0,0.0,0.0,0.0,0.0,0.0,0.0,0.0,0.0,0.0,0.0,0.0,0.0,9.2624,9.3774,9.2556,8.8835,8.6941,8.2611,0.0,0.0,0.0,0.0,0.0,0.0,0.0,0.0,0.0,0.0,0.0,0.0,0.0,0.0,0.0,0.0,0.0,0.0,0.0,0.0,0.0,0.0,0.0,0.0,0.0,0.0,0.0,0.0,0.0,0.0,0.0,0.0,0.0,0.0,0.0,0.0,0.0,0.0,0.0,0.0,0.0,0.0,0.0,0.0,0.0,0.0,0.0,0.0,0.0,0.0,0.0,0.0,0.0,0.0,0.0,0.0,0.0,0.0,0.0,0.0,0.0,0.0,0.0,0.0,0.0,0.0,0.0,0.0,0.0,0.0,0.0,0.0,0.0,0.0,0.0,0.0,0.0,0.0,0.0,0.0,0.0,0.0,0.0,0.0,0.0,0.0,0.0,0.0,0.0,0.0,0.0,0.0,0.0,0.0,0.0,0.0,0.0,0.0,0.0,0.0,0.0,0.0,0.0,0.0,0.0,0.0,0.0,0.0,0.0,9.5736,10.0743,10.1081,9.6277,9.1,8.6535,0.0,0.0,0.0,0.0,0.0,0.0,0.0,0.0,0.0,0.0,0.0,0.0,0.0,0.0,0.0,0.0,0.0,0.0,0.0,0.0,0.0,0.0,0.0,0.0,0.0,0.0,0.0,0.0,0.0,0.0,0.0,0.0,0.0,0.0,0.0,0.0,0.0,0.0,0.0,0.0,0.0,0.0,0.0,0.0,0.0,0.0,0.0,0.0,0.0,0.0,0.0,0.0,0.0,0.0,0.0,0.0,0.0,0.0,0.0,0.0,0.0,0.0,0.0,0.0,0.0,0.0,0.0,0.0,0.0,0.0,0.0,0.0,0.0,0.0,0.0,0.0,0.0,0.0,0.0,0.0,0.0,0.0,0.0,0.0,0.0,0.0,0.0,0.0,0.0,0.0,0.0,0.0,0.0,0.0,0.0,0.0,0.0,0.0,0.0,0.0,0.0,0.0,0.0,0.0,0.0,0.0,0.0,0.0,9.6074,10.054,10.6291,10.7644,10.4329,9.7766,9.1406,0.0,0.0,0.0,0.0,0.0,0.0,0.0,0.0,0.0,0.0,0.0,0.0,0.0,0.0,0.0,0.0,0.0,0.0,0.0,0.0,0.0,0.0,0.0,0.0,0.0,0.0,0.0,0.0,0.0,0.0,0.0,0.0,0.0,0.0,0.0,0.0,0.0,0.0,0.0,0.0,0.0,0.0,0.0,0.0,0.0,0.0,0.0,0.0,0.0,0.0,0.0,0.0,0.0,0.0,0.0,0.0,0.0,0.0,0.0,0.0,0.0,0.0,0.0,0.0,0.0,0.0,0.0,0.0,0.0,0.0,0.0,0.0,0.0,0.0,0.0,0.0,0.0,0.0,0.0,0.0,0.0,0.0,0.0,0.0,0.0,0.0,0.0,0.0,0.0,0.0,0.0,0.0,0.0,0.0,0.0,0.0,0.0,0.0,0.0,0.0,0.0,0.0,0.0,0.0,0.0,0.0,0.0,0.0,9.9593,10.602,11.0621,11.2583,11.1703,10.5005,9.6277,0.0,0.0,0.0,0.0,0.0,0.0,0.0,0.0,0.0,0.0,0.0,0.0,0.0,0.0,0.0,0.0,0.0,0.0,0.0,0.0,0.0,0.0,0.0,0.0,0.0,0.0,0.0,0.0,0.0,0.0,0.0,0.0,0.0,0.0,0.0,0.0,0.0,0.0,0.0,0.0,0.0,0.0,0.0,0.0,0.0,0.0,0.0,0.0,0.0,0.0,0.0,0.0,0.0,0.0,0.0,0.0,0.0,0.0,0.0,0.0,0.0,0.0,0.0,0.0,0.0,0.0,0.0,0.0,0.0,0.0,0.0,0.0,0.0,0.0,0.0,0.0,0.0,0.0,0.0,0.0,0.0,0.0,0.0,0.0,0.0,0.0,0.0,0.0,0.0,0.0,0.0,0.0,0.0,0.0,0.0,0.0,0.0,0.0,0.0,0.0,0.0,0.0,0.0,0.0,0.0,0.0,0.0,0.0,10.3449,10.8388,11.3395,11.5628,11.4883,10.5547,9.6886,0.0,0.0,0.0,0.0,0.0,0.0,0.0,0.0,0.0,0.0,0.0,0.0,0.0,0.0,0.0,0.0,0.0,0.0,0.0,0.0,0.0,0.0,0.0,0.0,0.0,0.0,0.0,0.0,0.0,0.0,0.0,0.0,0.0,0.0,0.0,0.0,0.0,0.0,0.0,0.0,0.0,0.0,0.0,0.0,0.0,0.0,0.0,0.0,8.004,0.0,0.0,0.0,0.0,0.0,0.0,0.0,0.0,0.0,0.0,0.0,0.0,0.0,0.0,0.0,0.0,0.0,0.0,0.0,0.0,0.0,0.0,0.0,0.0,0.0,0.0,0.0,0.0,0.0,0.0,0.0,0.0,0.0,0.0,0.0,0.0,0.0,0.0,0.0,0.0,0.0,0.0,0.0,0.0,0.0,0.0,0.0,0.0,0.0,0.0,0.0,0.0,0.0,0.0,0.0,0.0,0.0,0.0,0.0,10.6223,11.1636,11.5086,11.671,11.6034,10.7915,9.9863,0.0,0.0,0.0,0.0,0.0,0.0,0.0,0.0,0.0,0.0,0.0,0.0,0.0,0.0,0.0,0.0,0.0,0.0,0.0,0.0,0.0,0.0,0.0,0.0,0.0,0.0,0.0,0.0,0.0,0.0,0.0,0.0,0.0,0.0,0.0,0.0,0.0,0.0,0.0,0.0,0.0,0.0,0.0,0.0,0.0,0.0,0.0,0.0,0.0,0.0,0.0,0.0,0.0,0.0,0.0,0.0,0.0,0.0,0.0,0.0,0.0,0.0,0.0,0.0,0.0,0.0,0.0,0.0,0.0,0.0,0.0,0.0,0.0,0.0,0.0,0.0,0.0,0.0,0.0,0.0,0.0,0.0,0.0,0.0,0.0,0.0,0.0,0.0,0.0,0.0,0.0,0.0,0.0,0.0,0.0,0.0,0.0,0.0,0.0,0.0,0.0,0.0,0.0,0.0,0.0,0.0,0.0,10.1352,10.7982,11.4883,11.644,11.7116,11.6981,11.0689,10.3449,9.5533,0.0,0.0,0.0,0.0,0.0,0.0,0.0,0.0,0.0,0.0,0.0,0.0,0.0,0.0,0.0,0.0,0.0,0.0,0.0,0.0,0.0,0.0,0.0,0.0,0.0,0.0,0.0,0.0,0.0,0.0,0.0,0.0,0.0,0.0,0.0,0.0,0.0,0.0,7.6908,7.7721,0.0,0.0,0.0,0.0,0.0,0.0,0.0,0.0,7.9566,0.0,0.0,0.0,0.0,0.0,0.0,0.0,0.0,0.0,0.0,0.0,0.0,0.0,0.0,0.0,0.0,0.0,0.0,0.0,0.0,0.0,0.0,0.0,0.0,0.0,0.0,0.0,0.0,0.0,0.0,0.0,0.0,0.0,0.0,0.0,0.0,0.0,0.0,0.0,0.0,0.0,0.0,0.0,0.0,0.0,0.0,0.0,0.0,0.0,0.0,0.0,0.0,0.0,0.0,0.0,0.0,10.1758,10.3179,10.8253,11.7251,11.7793,11.7928,11.7725,11.1974,10.5208,9.7766,0.0,0.0,0.0,0.0,0.0,0.0,0.0,0.0,0.0,0.0,0.0,0.0,0.0,0.0,0.0,0.0,0.0,0.0,0.0,0.0,0.0,0.0,0.0,0.0,0.0,0.0,0.0,0.0,0.0,0.0,0.0,0.0,0.0,0.0,0.0,0.0,0.0,0.0,0.0,8.4171,8.4623,0.0,0.0,0.0,0.0,0.0,0.0,0.0,0.0,8.0445,0.0,0.0,0.0,0.0,0.0,0.0,0.0,0.0,0.0,0.0,0.0,0.0,0.0,0.0,0.0,0.0,0.0,0.0,0.0,0.0,0.0,0.0,0.0,0.0,0.0,0.0,0.0,0.0,0.0,0.0,0.0,0.0,0.0,0.0,0.0,0.0,0.0,0.0,0.0,0.0,0.0,0.0,0.0,0.0,0.0,0.0,0.0,0.0,0.0,0.0,0.0,0.0,0.0,0.0,0.0,10.2028,10.6629,11.238,11.9484,11.8672,11.8131,11.7928,11.0418,10.3652,0.0,0.0,0.0,0.0,0.0,0.0,0.0,0.0,0.0,0.0,0.0,0.0,0.0,0.0,0.0,0.0,0.0,0.0,0.0,0.0,0.0,0.0,0.0,0.0,0.0,0.0,0.0,0.0,0.0,0.0,0.0,0.0,0.0,0.0,0.0,0.0,0.0,0.0,0.0,0.0,8.5716,8.7094,8.942,0.0,0.0,0.0,0.0,0.0,0.0,8.1934,8.1325,0.0,0.0,0.0,0.0,0.0,0.0,0.0,0.0,0.0,0.0,0.0,0.0,0.0,0.0,0.0,0.0,0.0,0.0,0.0,0.0,0.0,0.0,0.0,0.0,0.0,0.0,0.0,0.0,0.0,0.0,0.0,0.0,0.0,0.0,0.0,0.0,0.0,0.0,0.0,0.0,0.0,0.0,0.0,0.0,0.0,0.0,0.0,0.0,0.0,0.0,0.0,0.0,0.0,0.0,0.0,10.1352,10.8862,11.556,12.0973,11.9214,11.8131,11.7928,10.9538,10.2773,0.0,0.0,0.0,0.0,0.0,0.0,0.0,0.0,0.0,0.0,0.0,0.0,0.0,0.0,0.0,0.0,0.0,0.0,0.0,0.0,0.0,0.0,0.0,0.0,0.0,0.0,0.0,0.0,0.0,0.0,0.0,0.0,0.0,0.0,0.0,0.0,0.0,0.0,0.0,0.0,0.0,8.9021,9.1715,8.8012,0.0,0.0,0.0,0.0,8.3558,8.4505,0.0,0.0,0.0,0.0,0.0,0.0,0.0,0.0,0.0,0.0,0.0,0.0,0.0,0.0,0.0,0.0,0.0,0.0,0.0,0.0,0.0,0.0,0.0,0.0,0.0,0.0,0.0,0.0,0.0,0.0,0.0,0.0,0.0,0.0,0.0,0.0,0.0,0.0,0.0,0.0,0.0,0.0,0.0,0.0,0.0,0.0,0.0,0.0,0.0,0.0,0.0,0.0,0.0,0.0,0.0,0.0,10.1149,10.6832,11.3463,12.0837,11.9214,11.8131,11.8063,11.2515,10.5885,0.0,0.0,0.0,0.0,0.0,0.0,0.0,0.0,0.0,0.0,0.0,0.0,0.0,0.0,0.0,0.0,0.0,0.0,0.0,0.0,0.0,0.0,0.0,0.0,0.0,0.0,0.0,0.0,0.0,0.0,0.0,0.0,0.0,0.0,0.0,0.0,0.0,0.0,0.0,0.0,0.0,9.2401,9.1512,9.0885,8.9758,0.0,0.0,8.897,9.0865,9.3436,0.0,0.0,0.0,0.0,0.0,0.0,0.0,0.0,0.0,0.0,0.0,0.0,0.0,0.0,0.0,0.0,0.0,0.0,0.0,0.0,0.0,0.0,0.0,0.0,0.0,0.0,0.0,0.0,0.0,0.0,0.0,0.0,0.0,0.0,0.0,0.0,0.0,0.0,0.0,0.0,0.0,0.0,0.0,0.0,0.0,0.0,0.0,0.0,0.0,0.0,0.0,0.0,0.0,0.0,0.0,9.4857,10.2028,11.0486,11.7387,12.2326,12.0499,11.9146,11.874,11.1162,10.4058,0.0,0.0,0.0,0.0,0.0,0.0,0.0,0.0,0.0,0.0,0.0,0.0,0.0,0.0,0.0,0.0,0.0,0.0,0.0,0.0,0.0,0.0,0.0,0.0,0.0,0.0,0.0,0.0,0.0,0.0,0.0,0.0,0.0,0.0,0.0,0.0,0.0,0.0,0.0,0.0,0.0,0.0,9.3923,9.4321,0.0,0.0,0.0,9.2353,9.2421,0.0,0.0,0.0,0.0,0.0,0.0,0.0,0.0,0.0,0.0,0.0,0.0,0.0,0.0,0.0,0.0,0.0,0.0,0.0,0.0,0.0,0.0,0.0,0.0,0.0,0.0,0.0,0.0,0.0,0.0,0.0,0.0,0.0,0.0,0.0,0.0,0.0,0.0,0.0,0.0,0.0,0.0,0.0,0.0,0.0,0.0,0.0,0.0,0.0,0.0,0.0,0.0,0.0,0.0,0.0,0.0,0.0,10.257,11.353,12.0634,12.3408,12.1446,11.9958,11.9078,11.1027,0.0,0.0,0.0,0.0,0.0,0.0,0.0,0.0,0.0,0.0,0.0,0.0,0.0,0.0,0.0,0.0,0.0,0.0,0.0,0.0,0.0,0.0,0.0,0.0,0.0,0.0,0.0,6.442,0.0,0.0,0.0,0.0,0.0,0.0,0.0,0.0,0.0,0.0,0.0,0.0,0.0,0.0,9.1468,9.4347,9.6129,9.6952,0.0,0.0,9.5872,9.533,9.8037,9.6855,0.0,0.0,0.0,0.0,0.0,0.0,0.0,0.0,0.0,0.0,0.0,0.0,0.0,0.0,0.0,0.0,0.0,0.0,0.0,0.0,0.0,0.0,0.0,0.0,0.0,0.0,0.0,0.0,0.0,0.0,0.0,0.0,0.0,0.0,0.0,0.0,0.0,0.0,0.0,0.0,0.0,0.0,0.0,0.0,0.0,0.0,0.0,0.0,0.0,0.0,0.0,0.0,0.0,0.0,0.0,10.2637,11.353,12.0634,12.3408,12.1446,11.9958,11.9146,11.4477,10.717,0.0,0.0,0.0,0.0,0.0,0.0,0.0,0.0,0.0,0.0,0.0,0.0,0.0,0.0,0.0,0.0,0.0,0.0,0.0,0.0,0.0,0.0,0.0,0.0,0.0,0.0,0.0,0.0,0.0,0.0,0.0,0.0,0.0,0.0,0.0,0.0,0.0,0.0,0.0,0.0,0.0,8.8,9.0086,9.4717,9.8769,0.0,0.0,10.054,10.2502,10.6426,10.5208,9.2777,0.0,0.0,0.0,0.0,0.0,0.0,0.0,0.0,0.0,0.0,0.0,0.0,0.0,0.0,0.0,0.0,0.0,0.0,0.0,0.0,0.0,0.0,0.0,0.0,0.0,0.0,0.0,0.0,0.0,0.0,0.0,0.0,0.0,0.0,0.0,0.0,0.0,0.0,0.0,0.0,0.0,0.0,0.0,0.0,0.0,0.0,0.0,0.0,0.0,0.0,0.0,0.0,0.0,9.7292,10.257,11.441,12.1785,12.4085,12.2596,12.104,11.989,11.5492,10.8253,0.0,0.0,0.0,0.0,0.0,0.0,0.0,0.0,0.0,0.0,0.0,0.0,0.0,0.0,0.0,0.0,0.0,0.0,0.0,0.0,0.0,0.0,0.0,0.0,0.0,0.0,0.0,0.0,7.2296,7.2008,7.0235,0.0,0.0,0.0,0.0,0.0,0.0,0.0,0.0,0.0,0.0,8.8661,9.3396,9.8334,0.0,0.0,10.3327,10.399,10.4802,10.5276,10.231,9.2827,8.8579,0.0,0.0,0.0,0.0,0.0,0.0,0.0,0.0,0.0,0.0,0.0,0.0,0.0,0.0,0.0,0.0,0.0,0.0,0.0,0.0,0.0,0.0,0.0,0.0,0.0,0.0,0.0,0.0,0.0,0.0,0.0,0.0,0.0,0.0,0.0,0.0,0.0,0.0,0.0,0.0,0.0,0.0,0.0,0.0,0.0,0.0,0.0,0.0,0.0,0.0,0.0,0.0,9.7157,10.284,11.4883,12.2258,12.4626,12.3476,12.2123,12.0567,11.671,10.9877,0.0,0.0,0.0,0.0,0.0,0.0,0.0,0.0,0.0,0.0,0.0,0.0,0.0,0.0,0.0,0.0,0.0,0.0,0.0,0.0,0.0,0.0,0.0,0.0,0.0,0.0,0.0,0.0,7.5123,7.4569,7.1887,0.0,0.0,0.0,0.0,0.0,0.0,0.0,0.0,0.0,0.0,8.939,9.4523,9.922,10.2281,10.2429,10.3582,10.4599,10.5073,10.4058,10.0758,9.3506,0.0,0.0,0.0,0.0,0.0,0.0,0.0,0.0,0.0,0.0,0.0,0.0,0.0,0.0,0.0,0.0,0.0,0.0,0.0,0.0,0.0,0.0,0.0,0.0,0.0,0.0,0.0,0.0,0.0,0.0,0.0,0.0,0.0,0.0,0.0,0.0,0.0,0.0,0.0,0.0,0.0,0.0,0.0,0.0,0.0,0.0,0.0,0.0,0.0,0.0,0.0,0.0,0.0,0.0,10.3585,11.468,12.1785,12.4559,12.395,12.2867,12.1379,11.8402,11.2583,10.3585,0.0,0.0,0.0,0.0,0.0,0.0,0.0,0.0,0.0,0.0,0.0,0.0,0.0,0.0,0.0,0.0,0.0,0.0,0.0,0.0,0.0,0.0,0.0,0.0,0.0,0.0,7.4559,7.334,7.1688,0.0,0.0,0.0,0.0,0.0,0.0,0.0,0.0,0.0,0.0,8.3606,8.9455,9.1554,9.6142,9.9745,9.977,10.0826,10.2096,10.3517,10.4126,10.2367,0.0,0.0,0.0,0.0,0.0,0.0,0.0,0.0,0.0,0.0,0.0,0.0,0.0,0.0,0.0,0.0,0.0,0.0,0.0,0.0,0.0,0.0,0.0,0.0,0.0,0.0,0.0,0.0,8.5615,0.0,0.0,0.0,0.0,0.0,0.0,0.0,0.0,0.0,0.0,0.0,8.7695,9.2676,0.0,0.0,0.0,0.0,0.0,0.0,0.0,0.0,0.0,0.0,0.0,0.0,9.8104,10.4464,11.5357,12.219,12.4626,12.4017,12.2935,12.1446,11.9484,11.3327,10.2434,0.0,0.0,0.0,0.0,0.0,0.0,0.0,0.0,0.0,0.0,0.0,0.0,0.0,0.0,0.0,0.0,0.0,0.0,0.0,0.0,0.0,0.0,0.0,0.0,0.0,7.4559,0.0,0.0,0.0,0.0,0.0,0.0,0.0,0.0,0.0,0.0,0.0,7.5587,8.0135,8.5342,8.9531,9.1925,9.6489,10.0078,0.0,0.0,0.0,0.0,0.0,0.0,0.0,0.0,0.0,0.0,0.0,0.0,0.0,0.0,8.8016,7.7807,7.3986,7.2755,7.419,0.0,0.0,0.0,0.0,0.0,0.0,0.0,0.0,0.0,0.0,0.0,0.0,0.0,0.0,0.0,0.0,8.4913,0.0,0.0,0.0,0.0,0.0,0.0,0.0,0.0,9.6683,9.7,9.359,9.9356,10.1149,0.0,9.6548,9.1677,0.0,0.0,0.0,0.0,0.0,0.0,0.0,0.0,9.8578,10.5208,11.5628,12.2123,12.422,12.4085,12.3273,12.1785,11.9078,11.326,10.399,9.6751,9.0527,0.0,0.0,0.0,0.0,0.0,0.0,0.0,0.0,0.0,0.0,0.0,0.0,0.0,0.0,0.0,0.0,0.0,0.0,0.0,0.0,0.0,0.0,0.0,7.6183,0.0,0.0,0.0,0.0,0.0,0.0,0.0,0.0,0.0,7.3052,7.5946,8.0075,8.4863,8.8917,9.1898,9.2873,0.0,0.0,0.0,0.0,0.0,0.0,0.0,9.8254,9.9746,9.816,9.5937,9.3539,9.4056,9.4137,9.2384,0.0,0.0,8.2882,7.9268,7.8232,7.9999,8.2125,8.3781,8.3862,8.5632,8.6549,0.0,0.0,0.0,0.0,0.0,0.0,0.0,0.0,9.7031,9.6843,0.0,9.2489,0.0,0.0,0.0,0.0,0.0,0.0,0.0,0.0,10.5547,10.7507,10.4604,10.7034,10.8932,0.0,10.7846,10.3855,9.7901,8.667,0.0,0.0,0.0,0.0,0.0,0.0,9.8578,10.602,11.5492,12.1379,12.3544,12.4288,12.395,12.2393,11.7522,11.2718,10.8253,10.3111,9.736,9.0729,8.6264,0.0,0.0,0.0,0.0,0.0,0.0,0.0,0.0,0.0,0.0,0.0,0.0,0.0,0.0,0.0,0.0,0.0,0.0,0.0,0.0,7.8619,0.0,0.0,0.0,0.0,0.0,0.0,0.0,0.0,0.0,0.0,7.756,8.1421,8.624,8.995,0.0,0.0,0.0,0.0,9.9418,9.6613,9.6836,9.8469,10.1582,10.2459,10.2892,10.3795,0.0,0.0,10.0418,9.6961,9.4611,9.2404,9.4012,9.4885,9.4561,9.0077,8.7237,8.8436,8.7836,8.7736,8.9412,9.0594,9.1374,10.9536,0.0,0.0,0.0,0.0,9.9863,10.2096,10.5411,10.393,10.2445,10.0878,9.7586,0.0,0.0,0.0,0.0,0.0,0.0,9.8307,10.2908,10.7238,11.035,11.2373,11.3801,11.4689,11.5036,11.1776,10.8997,10.6494,9.9593,9.1203,8.1799,0.0,0.0,0.0,0.0,10.2637,10.9065,11.644,12.1379,12.3611,12.3814,12.3476,12.2461,11.8469,11.468,11.1298,10.7712,10.2705,9.6074,9.2556,0.0,0.0,0.0,0.0,0.0,0.0,0.0,0.0,0.0,0.0,0.0,0.0,0.0,0.0,0.0,0.0,0.0,0.0,0.0,7.6183,7.7063,7.7536,0.0,0.0,0.0,0.0,0.0,0.0,0.0,0.0,0.0,8.8855,8.9544,9.0026,0.0,0.0,9.2942,9.0474,9.4123,9.8299,10.1857,0.0,0.0,0.0,10.6637,10.5487,10.8654,11.0494,11.0497,10.7425,10.5352,10.3267,10.049,10.0483,10.0607,9.9407,9.5256,9.2165,9.2703,9.3302,9.4199,9.5636,9.6833,9.767,11.8761,11.0937,10.69,10.5595,10.602,10.6629,10.8862,11.2042,11.1157,10.9738,10.7847,10.5547,10.1352,9.5804,9.3909,0.0,0.0,0.0,10.284,10.8253,11.0418,11.3327,11.6925,11.7522,11.786,11.7725,11.4951,11.3192,11.2448,10.8456,10.1419,9.1677,0.0,0.0,9.0391,9.851,10.494,10.9599,11.6563,12.0973,12.2239,12.2596,12.2529,12.1988,11.9281,11.671,11.4274,11.1365,10.7373,10.2164,9.8037,9.3098,0.0,0.0,0.0,0.0,0.0,0.0,0.0,0.0,0.0,0.0,0.0,7.5777,7.2259,0.0,0.0,0.0,7.5371,7.7739,7.9498,8.0107,0.0,0.0,0.0,0.0,0.0,0.0,0.0,8.8697,9.439,9.8308,9.8403,9.8156,9.6826,9.3872,9.4814,9.5322,9.4152,0.0,10.1222,10.5049,10.5035,10.6426,11.1709,11.028,10.9733,11.3446,11.3926,11.2994,11.1307,10.9702,10.7736,10.5073,10.4194,10.3775,10.2458,9.9586,9.7491,9.773,9.8149,9.8987,10.0543,10.1321,10.174,12.5662,12.4394,11.656,11.2913,11.2255,11.3463,11.4477,11.5289,11.776,11.7352,11.4748,11.4432,11.0833,10.487,10.1419,0.0,0.0,10.575,10.9065,11.3801,11.468,11.6372,11.8725,11.9146,11.9146,11.8793,11.7725,11.6778,11.5966,11.3801,10.9877,10.4396,9.8781,9.648,9.7495,10.2434,10.6225,10.8842,11.6145,12.0228,12.0329,12.1023,12.1379,12.1311,11.989,11.8402,11.6845,11.4072,11.123,10.8253,10.2773,9.7698,9.3165,0.0,0.0,0.0,0.0,0.0,0.0,0.0,0.0,0.0,0.0,0.0,0.0,0.0,0.0,0.0,8.0445,0.0,8.5723,8.575,0.0,0.0,0.0,8.4533,8.579,8.9647,9.33,9.6142,0.0,0.0,10.6098,0.0,10.4901,10.1518,10.0769,10.0921,10.188,10.3893,10.6234,10.704,10.8231,10.9977,11.3116,11.389,11.4885,11.7495,11.7083,11.5218,11.2825,11.1252,10.9029,10.5896,10.5451,10.5032,10.3775,10.3236,10.3236,10.2518,10.192,10.2039,10.3655,10.3655,10.3416,13.0501,12.9704,12.7626,12.3585,11.8439,11.7974,11.8266,11.9011,11.9702,11.8347,11.5492,11.435,11.1708,10.805,10.717,10.7779,10.9606,11.1095,11.2989,11.5357,11.7251,11.8469,11.9146,11.9755,12.0025,11.989,11.9078,11.8537,11.8266,11.6101,11.3733,11.123,10.8659,10.5073,10.0675,10.5479,10.94,11.1742,11.5752,11.8875,12.1108,12.1311,12.1176,12.0567,11.9146,11.7657,11.6101,11.4342,11.2245,10.9809,10.6764,10.2976,9.851,9.0459,0.0,0.0,0.0,0.0,0.0,0.0,0.0,0.0,0.0,8.0445,7.4221,0.0,7.9431,0.0,8.2272,8.5046,8.7211,8.5578,0.0,0.0,8.9899,9.0393,9.5953,9.851,10.054,10.2367,10.6832,10.9716,10.9265,10.8746,10.7681,10.631,10.2363,10.0355,10.1725,10.3947,10.7048,11.1662,11.3351,11.5071,11.7592,11.8676,11.881,11.9687,11.9367,11.7746,11.3768,11.2688,11.1221,10.7205,10.575,10.5331,10.4972,10.4134,10.3655,10.3775,10.3057,10.2698,10.4074,10.3895,10.3595,13.0449,13.1317,12.9923,12.7575,12.4799,12.2651,12.2047,12.231,12.1699,11.9958,11.7657,11.5898,11.4004,11.2177,11.2448,11.2921,11.3463,11.4951,11.6237,11.7387,11.8605,11.9552,12.0161,12.0567,12.077,12.077,12.0364,11.9687,11.8672,11.7454,11.5898,11.4072,11.3598,11.1162,10.7103,10.9403,11.1427,11.2897,11.6157,11.8808,12.077,12.0905,12.0228,11.8875,11.7996,11.6237,11.3463,11.1906,11.0283,10.8388,10.5817,10.284,9.9322,9.2962,8.7753,0.0,0.0,0.0,0.0,0.0,0.0,0.0,0.0,0.0,0.0,0.0,8.2205,8.3558,8.6399,8.9309,9.2218,9.1729,9.3027,9.7643,9.6758,9.757,10.1697,10.3517,10.5276,10.7441,11.0147,11.2223,11.3142,11.1937,11.064,10.999,10.6063,10.3573,10.451,10.6729,10.9949,11.443,11.6632,11.824,12.0077,12.0296,12.0296,12.0296,12.0296,11.9087,11.5607,11.4025,11.2049,10.8224,10.6339,10.5331,10.4972,10.4433,10.4074,10.4493,10.4074,10.3775,10.4613,10.4313,10.4014,12.8279,13.0884,12.8216,12.8377,13.0044,12.7075,12.5436,12.4871,12.354,12.1887,12.0025,11.8063,11.6778,11.6169,11.6778,11.671,11.6237,11.759,11.8605,11.9214,11.9281,12.0025,12.1243,12.1243,12.1243,12.1243,12.1243,12.0228,11.8402,11.8199,11.7048,11.5086,11.5425,11.4951,11.3666,11.3057,11.2982,11.3368,11.7036,11.9281,12.0093,12.0025,11.8943,11.6778,11.644,11.4342,11.0215,10.8659,10.7238,10.5817,10.3314,10.1081,9.9051,9.5127,9.1068,0.0,8.4302,0.0,0.0,0.0,0.0,0.0,0.0,0.0,0.0,8.5926,8.667,8.9241,9.2083,9.5195,9.8442,9.9881,10.1365,10.3043,10.3595,10.427,10.5481,10.6832,10.8587,11.1501,11.2448,11.3936,11.6225,11.4906,11.3094,11.21,10.9411,10.7484,10.7731,10.9776,11.2356,11.5349,11.8307,12.0009,12.0296,12.0296,12.0296,12.0296,12.0296,11.9397,11.7146,11.4705,11.2274,10.9512,10.7107,10.5271,10.4732,10.4553,10.4613,10.5211,10.4792,10.4553,10.5091,10.4792,10.4613,12.8576,12.9385,13.0231,13.0429,13.0235,12.9685,12.7378,12.4251,12.4589,12.2604,11.9417,11.8943,11.8334,11.7725,11.7793,11.7793,11.7725,11.8605,11.9078,11.9214,11.9822,12.0228,12.0499,12.0499,12.0499,12.0499,12.0499,12.0296,11.9822,11.8672,11.7522,11.6507,11.5425,11.4477,0.0,0.0,0.0,0.0,11.7847,11.9078,11.9349,11.8808,11.7454,11.5154,11.3936,0.0,10.8659,10.7576,10.6697,10.5817,10.5276,0.0,0.0,0.0,0.0,0.0,0.0,0.0,0.0,0.0,0.0,0.0,9.4451,9.2624,9.0594,9.4383,9.7022,9.7089,9.9728,10.1758,10.2502,10.2923,10.4182,10.6629,10.5768,10.6406,11.0329,11.0817,11.1576,11.3792,11.468,11.556,11.6428,11.4906,11.3256,11.2334,11.0153,10.8228,10.6963,10.8413,11.1352,11.5776,11.8642,12.0296,12.0296,12.0296,12.0296,12.0296,12.0296,11.9397,11.7307,11.4873,11.264,11.0192,10.735,10.557,10.5869,10.5151,10.4673,10.5331,10.4912,10.4613,10.5271,10.4852,10.4433,12.7217,0.0,12.9527,13.0497,0.0,0.0,12.902,12.5706,12.4949,12.2836,11.9755,11.9755,11.9349,11.8672,11.9011,11.9011,11.8672,11.9417,11.9755,11.9755,12.0093,12.0499,12.0837,12.0837,12.0837,12.0837,12.0837,12.0431,11.9755,11.9011,11.8063,11.6913,11.6169,11.5628,11.5289,11.6372,11.7116,11.7522,11.8537,11.9484,12.0228,11.9958,11.8469,11.5898,0.0,0.0,0.0,0.0,0.0,0.0,0.0,0.0,0.0,0.0,0.0,9.7428,9.533,9.4383,9.5127,9.621,9.824,10.1555,10.3246,10.2028,9.7225,10.0269,10.2705,10.3449,10.4938,10.6426,10.7847,10.8097,10.8895,11.0409,10.9844,11.0346,11.256,11.273,11.312,11.4323,11.5019,11.556,11.6237,11.5415,11.4287,11.3387,11.1459,10.9438,10.8407,10.8905,11.1264,11.5873,11.7694,11.902,12.0077,12.0296,12.0296,12.0296,12.0296,11.9772,11.8709,11.5607,11.2815,11.1579,10.8533,10.6049,10.6229,10.581,10.551,10.581,10.563,10.5331,10.5451,10.5151,10.4912,12.5966,12.7286,12.8362,12.9552,13.102,13.1557,13.0251,12.7744,0.0,0.0,0.0,12.0364,11.9958,11.9417,12.0025,11.9958,11.9417,12.0025,12.0364,12.0499,12.0499,12.0837,12.1379,12.1379,12.1311,12.1243,12.1176,12.0567,11.9417,11.9281,11.8537,11.7387,11.7184,11.7184,11.7387,11.8537,11.8943,11.8537,11.8943,11.9822,12.1176,12.1108,11.9687,11.6981,11.5357,11.1906,10.6629,10.4532,10.2502,10.0405,10.0405,10.0472,10.054,10.1555,10.2231,10.2367,10.3043,10.3585,10.3855,10.5141,10.6088,10.6629,11.0147,11.0147,10.487,10.5682,10.7238,10.9065,10.92,11.0147,11.2448,11.2921,11.326,11.3733,11.3581,11.3503,11.386,11.3503,11.3694,11.4603,11.4951,11.5154,11.5763,11.5831,11.5498,11.4477,11.2466,11.0593,10.9703,10.9523,11.1041,11.4366,11.5607,11.6985,11.902,11.9551,11.9772,12.0296,12.0296,12.0296,11.9618,11.6431,11.3682,11.3164,10.9523,10.699,10.6528,10.6468,10.6528,10.6707,10.6528,10.6288,10.5869,10.569,10.551,12.7018,12.6269,12.7899,12.8778,12.9135,13.1504,13.1039,12.8319,12.3806,12.1615,12.1176,12.0567,12.0228,12.0161,12.0228,12.0228,12.0161,12.0228,12.0634,0.0,12.1243,12.1311,12.1379,12.1379,12.104,12.0431,12.0431,12.0296,12.0093,11.9484,11.9078,11.8808,11.8266,11.8199,11.8808,11.9078,11.9417,11.9958,11.9484,11.9619,12.0431,11.9822,11.8672,11.6913,11.4951,11.2177,10.8862,10.7779,10.6494,10.5005,10.5479,10.5817,10.575,10.5411,10.5479,10.6088,10.6832,10.7847,10.9065,11.0012,11.1568,11.4004,11.5425,11.4951,11.238,11.2786,11.3395,11.3733,11.3666,11.3598,11.3598,11.4613,11.5086,11.4468,11.3476,11.3355,11.5133,11.396,11.3507,11.5414,11.5695,11.5628,11.5763,11.5831,11.5498,11.4569,11.2798,11.0243,10.8162,10.8652,10.9892,11.0923,11.264,11.4536,11.6594,11.7307,11.8012,12.0077,12.0077,12.0077,12.0296,11.6594,11.3682,11.3337,10.9707,10.7111,10.7007,10.6767,10.6887,10.7545,10.7066,10.6588,10.6887,10.6588,10.5929,12.7826,12.6296,12.8142,12.9171,12.9248,13.0041,12.9541,12.7808,12.4236,12.2123,12.1379,12.104,12.0634,12.0296,12.0296,12.0296,12.0296,12.0296,12.0702,12.1379,12.1379,12.1649,12.192,12.1582,12.1243,12.0905,12.0431,12.0093,11.9687,11.9349,11.8808,11.7996,11.8063,11.8469,11.9146,11.9552,11.9958,12.0296,11.9958,12.0364,12.1446,12.1176,12.0634,11.9958,11.8131,11.6034,11.3463,11.1906,11.035,10.893,10.9132,10.9132,10.8794,10.92,10.9538,10.9944,11.0621,11.1365,11.2042,11.2786,11.4274,11.6778,11.7387,11.7522,11.7251,11.6778,11.6507,11.6575,11.6575,11.6237,11.5492,11.6034,11.6101,11.5357,11.461,11.4662,11.547,11.496,11.4662,11.5684,11.5831,11.5831,11.5831,11.5831,11.5875,11.5613,11.3454,11.0544,10.7611,10.7228,10.8098,10.9645,11.0742,11.2289,11.4366,11.4873,11.5938,11.8012,11.8328,11.8865,11.9772,11.7307,11.5041,11.3337,11.0379,10.808,10.7217,10.6947,10.7066,10.7007,10.7246,10.7126,10.7246,10.7126,10.6468,12.8968,12.7261,12.8595,12.9577,12.9892,12.8901,12.8207,12.7731,12.5413,12.3532,12.1988,12.1582,12.0973,12.0296,12.0296,12.0296,12.0296,12.0431,12.0905,12.1649,12.1852,12.219,12.2664,12.2123,12.1717,12.1379,12.077,12.0161,11.9484,11.9281,11.8537,11.7387,11.7996,11.8605,11.9214,11.989,12.0296,12.0296,12.0431,12.1176,12.2393,12.2664,12.2732,12.2664,12.1446,11.989,11.7996,11.6101,11.4477,11.326,11.2989,11.2651,11.2177,11.2921,11.353,11.3733,11.4274,11.4613,11.468,11.5154,11.6304,11.8131,11.8334,11.9011,12.0228,11.9349,11.8537,11.8402,11.8131,11.7793,11.7184,11.6981,11.6643,11.6101,11.5898,11.5684,11.5831,11.5831,11.5831,11.5831,11.5831,11.5831,11.5831,11.5831,11.5808,11.5583,11.3617,11.0877,10.8213,10.6372,10.666,10.8098,10.8967,10.9889,11.2049,11.2465,11.351,11.5607,11.6594,11.7627,11.8552,11.7853,11.5938,11.3682,11.1463,10.915,10.7171,10.6827,10.7126,10.7246,10.7246,10.7066,10.7066,10.7246,10.7066,13.11,13.0097,12.8918,12.9407,13.0738,12.9269,12.8924,12.94,12.7803,12.5631,12.3273,12.1988,12.104,12.0364,12.0296,12.0364,12.0364,12.0973,12.1717,12.2393,12.307,12.3476,12.3476,12.3408,12.2732,12.1582,12.1311,12.0837,12.0093,11.9484,11.8808,11.8131,11.874,11.9146,11.9281,11.9958,12.0296,12.0296,12.0973,12.1649,12.2461,12.3138,12.3544,12.3476,12.2732,12.192,12.0973,12.0161,11.9281,11.8537,11.7793,11.7454,11.7319,11.6845,11.6778,11.7454,11.759,11.7725,11.7657,11.7725,11.8063,11.8943,11.9078,11.9687,12.104,12.0567,11.9822,11.9214,11.8537,11.8199,11.7928,11.7387,11.6981,11.6845,11.6304,11.5831,11.5898,11.5831,11.5831,11.5831,11.5831,11.5831,11.5831,11.5831,11.5296,11.4619,11.2672,11.0605,10.8386,10.6438,10.5391,10.5836,10.5896,10.7222,10.9522,11.0258,11.1284,11.3164,11.5441,11.666,11.7146,11.7307,11.6103,11.3682,11.1757,10.9708,10.7738,10.7007,10.7186,10.7844,10.7426,10.6588,10.6588,10.7007,10.7186,13.3827,13.1729,13.0661,13.0328,13.011,12.9463,12.8913,12.8297,12.78,12.5918,12.3767,12.2935,12.2055,12.0973,12.1379,12.1379,12.104,12.1717,12.2461,12.3138,12.3476,12.3882,12.422,12.3814,12.3273,12.2664,12.1852,12.104,12.0228,11.9146,11.8605,11.8808,11.9078,11.9417,11.9822,12.0093,12.0296,12.0296,12.1446,12.219,12.2529,12.3205,12.3814,12.4153,12.395,12.3679,12.3341,12.2664,12.2123,12.1785,12.1108,12.0499,12.0093,11.9755,11.9484,11.9417,11.8943,11.8943,11.9349,11.8605,11.8605,11.9755,11.9822,12.0296,12.1311,12.1514,12.1311,12.0567,11.9822,11.9214,11.8808,11.8402,11.8063,11.7657,11.7319,11.7116,11.7184,11.671,11.644,11.644,11.6101,11.5831,11.5831,11.5831,11.5808,11.4926,11.2833,11.031,10.917,10.6631,10.5164,10.5331,10.5451,10.6076,10.7647,10.7768,10.884,11.0923,11.3164,11.4873,11.6594,11.817,11.7694,11.4025,11.2289,11.0321,10.7171,10.7202,10.7246,10.7785,10.7785,10.7007,10.7007,10.7186,10.7366,13.6079,13.3792,13.2208,13.113,13.0315,12.9595,12.8616,12.7508,12.7369,12.5986,12.4105,12.3882,12.3205,12.219,12.2393,12.219,12.1852,12.2461,12.307,12.3611,12.3814,12.422,12.4626,12.422,12.3814,12.3408,12.2326,12.1108,12.0025,11.9011,11.8605,11.8875,11.9078,11.9417,11.9958,12.0296,12.0567,12.0702,12.2055,12.2799,12.2935,12.3544,12.4153,12.4626,12.4694,12.4694,12.4694,12.4423,12.422,12.422,12.3544,12.2867,12.2326,12.192,12.1446,12.0905,12.0364,12.0296,12.0837,11.989,11.9755,12.0702,12.0905,12.1243,12.1852,12.2326,12.2258,12.1717,12.104,12.0296,11.9619,11.9281,11.8943,11.8469,11.8266,11.8131,11.8063,11.7387,11.6845,11.6845,11.644,11.6101,11.6101,11.5966,11.5887,11.593,11.3396,11.0704,10.9991,10.7598,10.5806,10.5523,10.557,10.5869,10.6288,10.6603,10.7255,10.8652,11.0923,11.3164,11.5209,11.7307,11.8012,11.351,11.299,11.1284,10.7568,10.6827,10.7066,10.6767,10.6887,10.7186,10.6947,10.7186,10.7246,13.7355,13.651,13.2641,13.137,13.2064,12.9618,12.8131,12.7293,12.7369,12.641,12.4715,12.4626,12.422,12.3408,12.2867,12.2529,12.2596,12.3205,12.3679,12.3814,12.4356,12.4626,12.4694,12.4626,12.4288,12.3679,12.2867,12.1446,11.9552,11.9214,11.8808,11.8334,11.8943,11.9281,11.9552,12.0702,12.1311,12.1514,12.2732,12.3544,12.3611,12.4288,12.4626,12.4761,12.4694,12.4694,12.4829,12.5438,12.5776,12.5776,12.4964,12.4559,12.4423,12.3205,12.2461,12.2393,12.2326,12.2326,12.2393,12.219,12.219,12.2326,12.2326,12.2664,12.3205,12.2935,12.2664,12.2461,12.1852,12.1108,12.0296,11.9687,11.9349,11.9214,11.8605,11.8266,11.8266,11.7657,11.6981,11.6981,11.6981,11.6845,11.6845,11.6237,11.6034,11.5875,11.442,11.2637,11.0585,10.9223,10.7674,10.6088,10.5929,10.6348,10.6408,10.6408,10.6408,10.7447,10.9152,11.0923,11.2289,11.351,11.351,11.299,11.1642,10.9707,10.7447,10.6468,10.6528,10.6528,10.6887,10.7066,10.6767,10.7066,10.7126,13.8472,13.7158,13.4028,13.1869,13.0601,12.9116,12.7396,12.5795,12.6854,12.633,12.5007,12.4694,12.4559,12.4288,12.4017,12.3882,12.395,12.422,12.4559,12.4964,12.4829,12.4694,12.4694,12.4694,12.4559,12.422,12.3544,12.2596,12.1311,12.0364,12.0025,12.0161,11.9958,12.0093,12.0634,12.1108,12.1649,12.2123,12.3138,12.3611,12.3747,12.4356,12.4964,12.5438,12.4964,12.4964,12.5438,12.5235,12.5573,12.6521,12.5912,12.5438,12.537,12.4491,12.4153,12.4491,12.3747,12.3408,12.3747,12.3002,12.2732,12.3138,12.3205,12.3341,12.3611,12.3747,12.3747,12.3273,12.3002,12.2326,12.1176,12.0296,12.0093,12.0431,11.9958,11.9687,11.989,11.9146,11.8334,11.8266,11.7996,11.7657,11.7522,11.6981,11.671,11.6968,11.526,11.3351,11.1692,10.9965,10.8351,10.6641,10.6229,10.6408,10.6408,10.6408,10.6603,10.7123,10.8337,10.9707,11.1104,11.2289,11.264,11.1579,11.0258,10.8965,10.687,10.6288,10.6288,10.6348,10.6707,10.6767,10.6468,10.6767,10.6707,13.9362,13.7605,13.5123,13.2554,13.0182,12.8768,12.681,12.5007,12.6029,12.5795,12.4851,12.4694,12.4694,12.4851,12.5249,12.5453,12.5032,12.4829,12.4964,12.5438,12.4964,12.4694,12.4694,12.4694,12.4694,12.4559,12.395,12.3205,12.2461,12.1514,12.1311,12.1649,12.1243,12.1243,12.1717,12.1988,12.2393,12.2935,12.3611,12.4085,12.4356,12.4829,12.5438,12.6047,12.5709,12.5709,12.625,12.5979,12.625,12.713,12.6859,12.6521,12.625,12.5776,12.5573,12.5776,12.4964,12.4423,12.4559,12.3747,12.3544,12.4288,12.4356,12.4356,12.4356,12.4829,12.4559,12.395,12.3611,12.307,12.2055,12.1311,12.104,12.1108,12.0973,12.0973,12.0973,12.0161,11.9484,11.9078,11.8469,11.8199,11.8334,11.7725,11.759,11.8063,11.6387,11.5098,11.3409,11.1639,10.9699,10.7897,10.693,10.6603,10.6408,10.6408,10.6408,10.693,10.7123,10.8525,10.9707,11.0923,11.1104,11.0013,10.8965,10.7837,10.7074,10.6303,10.6109,10.6169,10.6348,10.6528,10.6408,10.6408,10.6408,13.9706,13.8564,13.6201,13.342,13.1004,12.8503,12.633,12.5075,12.4851,12.4851,12.4829,12.4761,12.4761,12.4939,12.6317,12.666,12.5841,12.5122,12.4761,12.4897,12.4761,12.4694,12.4694,12.4694,12.4694,12.4694,12.395,12.3273,12.2732,12.2393,12.2326,12.2461,12.2393,12.2326,12.2529,12.307,12.3544,12.3747,12.4356,12.5032,12.5776,12.5844,12.625,12.6927,12.6927,12.6994,12.7062,12.7603,12.7874,12.8077,12.8077,12.7738,12.7197,12.6859,12.6656,12.6182,12.5912,12.5506,12.4897,12.4761,12.5032,12.5506,12.5844,12.5776,12.5776,12.5844,12.537,12.4356,12.3882,12.3408,12.2799,12.2529,12.2055,12.077,12.1582,12.1717,12.0905,12.0431,12.0025,11.9417,11.8808,11.8537,11.8808,11.8537,11.7982,11.7682,11.7952,11.7458,11.538,11.3551,11.2162,11.0075,10.7829,10.6408,10.6408,10.6408,10.6408,10.6408,10.6603,10.7255,10.8148,10.9213,10.9213,10.8337,10.7958,10.687,10.6629,10.6049,10.5929,10.5989,10.6169,10.6408,10.6408,10.6408,10.6408,13.9192,13.8603,13.562,13.3171,13.0997,12.8575,12.6604,12.5596,12.4964,12.5032,12.5438,12.5506,12.5235,12.5054,12.5948,12.6562,12.6823,12.5472,12.4964,12.537,12.4964,12.4694,12.4694,12.4694,12.4694,12.4559,12.395,12.3747,12.3814,12.3002,12.2732,12.307,12.2732,12.2799,12.3273,12.3544,12.3814,12.4423,12.51,12.5641,12.5979,12.6385,12.6994,12.7671,12.7738,12.8009,12.8483,12.828,12.8347,12.8821,12.8821,12.8753,12.8415,12.7535,12.713,12.7332,12.6927,12.6318,12.5709,12.5979,12.6115,12.6115,12.6385,12.6588,12.6656,12.6656,12.6453,12.5844,12.5506,12.4897,12.422,12.4017,12.3476,12.2664,12.2529,12.2596,12.2393,12.2055,12.1243,12.0296,12.0161,11.9349,11.7839,11.7525,11.7851,11.6239,11.721,11.7631,11.6023,11.4095,11.1957,11.0072,10.8087,10.6603,10.6408,10.6408,10.6408,10.6408,10.6408,10.6408,10.7123,10.7447,10.7255,10.7002,10.6677,10.6423,10.6049,10.5869,10.569,10.5929,10.6288,10.6348,10.6408,10.6408,10.6408,13.8678,13.7834,13.5765,13.389,13.2121,12.976,12.827,12.723,12.6024,12.5844,12.625,12.6318,12.6047,12.5867,12.6765,12.7246,12.7154,12.6341,12.6084,12.5934,12.5438,12.5032,12.4761,12.4694,12.4694,12.4626,12.422,12.422,12.4626,12.3814,12.3544,12.3814,12.3544,12.3544,12.395,12.4017,12.4288,12.4761,12.5506,12.6047,12.6385,12.7062,12.7738,12.8415,12.855,12.8753,12.9159,12.9024,12.9024,12.9159,12.9159,12.9159,12.9092,12.8347,12.7941,12.7941,12.7671,12.7062,12.6453,12.6656,12.713,12.713,12.7535,12.7806,12.7806,12.7806,12.7671,12.6994,12.6318,12.5709,12.5235,12.4829,12.4491,12.4085,12.3611,12.3408,12.3544,12.2935,12.2055,12.1108,12.104,11.949,11.7746,11.6964,11.7147,11.5183,11.5944,11.7237,11.5834,11.4694,11.2933,11.1211,10.9461,10.7958,10.6543,10.6408,10.6408,10.6408,10.6408,10.6408,10.6737,10.6737,10.6737,10.6436,10.5989,10.569,10.551,10.5391,10.5271,10.575,10.6288,10.6348,10.6408,10.6408,10.6408,13.809,13.6769,13.6696,13.5547,13.3719,13.1802,13.0537,12.9508,12.767,12.6859,12.6994,12.6994,12.6927,12.7336,12.8289,12.8443,12.7514,12.7688,12.7414,12.6609,12.6138,12.5709,12.4829,12.4694,12.4694,12.4694,12.4626,12.4694,12.4694,12.4559,12.4694,12.4559,12.4491,12.4626,12.4626,12.4694,12.4829,12.4964,12.5709,12.6521,12.7062,12.7806,12.8483,12.9092,12.9092,12.9159,12.9227,12.9701,12.9904,12.943,12.943,12.943,12.9362,12.9295,12.9092,12.8618,12.8347,12.7941,12.74,12.7603,12.7941,12.8753,12.9092,12.9295,12.9295,12.9295,12.8821,12.7671,12.6859,12.625,12.6047,12.5438,12.5032,12.4829,12.4626,12.4288,12.3747,12.3138,12.2461,12.1717,12.1293,12.0271,11.7344,11.6985,11.5742,11.4316,11.4594,11.5251,11.5611,11.4558,11.4457,11.2671,11.0137,10.8775,10.705,10.6707,10.6707,10.6408,10.6408,10.6408,10.6408,10.6408,10.6408,10.6109,10.575,10.5391,10.5271,10.5391,10.5451,10.581,10.6109,10.6288,10.6348,10.6348,10.6169,13.8751,13.8311,13.7723,13.6504,13.4634,13.2846,13.1448,13.02,12.7582,12.713,12.7671,12.7671,12.74,12.7222,12.8173,12.8596,12.858,12.7913,12.8016,12.8389,12.7833,12.6385,12.5032,12.4694,12.4761,12.4761,12.4761,12.4694,12.4694,12.4761,12.4761,12.4694,12.4761,12.4761,12.4761,12.5303,12.5573,12.5776,12.6927,12.7535,12.7874,12.855,12.8956,12.9159,12.9227,12.9227,12.9295,12.9904,13.0512,13.0783,13.0242,13.0309,13.0715,13.0783,13.0648,13.058,13.0377,12.9904,12.9159,12.9565,12.9904,12.9362,13.0309,13.0851,13.0851,13.0851,13.0377,12.9498,12.8753,12.8077,12.7535,12.6791,12.6385,12.625,12.5438,12.4694,12.4423,12.422,12.3679,12.2529,12.219,12.0562,11.8329,11.6694,11.5577,11.3275,11.2848,11.3229,11.3551,11.416,11.376,11.2049,11.0017,10.8581,10.7617,10.7337,10.6947,10.6528,10.6408,10.6408,10.6408,10.6408,10.6408,10.6288,10.5989,10.569,10.5869,10.6109,10.6109,10.5869,10.6169,10.6408,10.6229,10.6109,10.575,13.8825,13.8458,13.8017,13.7427,13.6346,13.3963,13.264,13.1923,12.9006,12.7941,12.8483,12.8483,12.8212,12.8009,12.8347,12.8921,12.9093,12.8015,12.7969,12.8528,12.7947,12.6859,12.5912,12.5641,12.5506,12.5235,12.5235,12.537,12.5573,12.537,12.537,12.5573,12.537,12.537,12.5709,12.5709,12.6115,12.6521,12.7535,12.8212,12.8618,12.9295,12.9633,12.9633,12.9633,12.9633,12.9701,13.0106,13.0512,13.0851,13.1054,13.1392,13.1798,13.1866,13.2001,13.2272,13.1798,13.1054,13.0918,13.146,13.1595,13.1324,13.2001,13.2272,13.2272,13.2069,13.1527,13.0783,12.9836,12.9092,12.855,12.7603,12.7197,12.7197,12.6115,12.5235,12.5167,12.4897,12.4017,12.3002,12.2239,12.1145,11.8005,11.6365,11.4237,11.1957,11.0823,11.1,11.1366,11.2333,11.2633,11.0805,11.0634,10.9954,10.8183,10.7322,10.6947,10.6588,10.6408,10.6408,10.6408,10.6408,10.6348,10.6348,10.6169,10.6049,10.6109,10.6169,10.6109,10.6049,10.6288,10.6169,10.5929,10.557,10.5271,13.8678,13.8017,13.8017,13.8458,13.8411,13.5537,13.4653,13.4257,13.0786,12.9488,13.0192,12.9712,12.9805,12.9687,12.9687,12.9362,12.9525,12.878,12.828,12.817,12.7806,12.7265,12.6994,12.6724,12.6453,12.6047,12.6047,12.6318,12.6521,12.6182,12.6318,12.6521,12.625,12.6385,12.6656,12.6521,12.6656,12.7332,12.8347,12.9092,12.9565,13.0106,13.0377,13.0377,13.0377,13.0377,13.0445,13.058,13.0715,13.0715,13.1933,13.261,13.2813,13.288,13.3219,13.3625,13.2948,13.2407,13.2475,13.2677,13.2948,13.3286,13.3422,13.376,13.3557,13.3083,13.2272,13.1324,13.0242,12.9768,12.9159,12.8077,12.7671,12.7738,12.6791,12.6115,12.5776,12.5167,12.4153,12.2935,12.2664,12.0719,11.8196,11.5171,11.299,11.2274,11.0781,10.9761,11.0186,11.1138,11.1095,10.9769,11.0264,11.1497,10.9381,10.7306,10.6947,10.6588,10.6468,10.6408,10.6408,10.6408,10.6348,10.6229,10.6109,10.5929,10.575,10.581,10.581,10.569,10.563,10.557,10.5451,10.4972,10.4613,13.9852,13.9706,13.9706,13.9779,13.9589,13.8303,13.7644,13.7187,13.1799,13.1708,13.396,13.2346,13.1858,13.2977,13.1147,13.0377,13.0744,12.9728,12.8956,12.8956,12.8821,12.828,12.7738,12.74,12.6994,12.6791,12.6724,12.6859,12.6927,12.6994,12.6859,12.6994,12.713,12.6859,12.7197,12.8077,12.855,12.8956,12.9971,13.058,13.0715,13.0986,13.1189,13.1257,13.1257,13.1189,13.1324,13.173,13.2339,13.288,13.3354,13.4031,13.4775,13.5046,13.5181,13.5248,13.5113,13.4437,13.3828,13.3963,13.4098,13.3828,13.3963,13.3963,13.4504,13.3828,13.2813,13.1866,13.1595,13.1121,13.0039,12.9227,12.855,12.8009,12.7265,12.6453,12.5912,12.5235,12.4491,12.4017,12.3138,12.2171,12.1078,11.7675,11.5301,11.3054,11.0861,10.9028,10.9399,11.0317,10.9831,10.913,11.0386,11.1255,10.9366,10.7485,10.7066,10.6707,10.6528,10.6408,10.6408,10.6348,10.6288,10.6229,10.6049,10.5869,10.557,10.5391,10.5391,10.5151,10.4912,10.4852,10.4673,10.4313,10.3954,14.0219,14.0219,14.0219,14.0219,13.9995,13.8741,13.8293,13.8131,13.557,13.4891,13.6161,13.5381,13.5371,13.4869,13.3132,13.2468,13.2218,13.0569,12.9701,12.9701,12.9701,12.943,12.9227,12.8889,12.8618,12.7671,12.7468,12.7671,12.7941,12.8077,12.828,12.855,12.8483,12.8889,12.8956,12.9498,12.9633,12.9836,13.0783,13.1392,13.146,13.1798,13.2204,13.2407,13.2542,13.261,13.3083,13.3354,13.4166,13.491,13.5248,13.5519,13.6196,13.6466,13.6602,13.6805,13.6196,13.5722,13.5046,13.5316,13.5519,13.4775,13.4775,13.491,13.491,13.4369,13.3422,13.2677,13.2407,13.1866,13.0445,12.9633,12.8889,12.8212,12.7468,12.6724,12.5979,12.5167,12.4559,12.422,12.3476,12.2935,12.157,11.9303,11.7086,11.4471,11.1229,10.9399,10.8635,10.9204,10.932,10.9366,11.044,11.0563,10.902,10.7725,10.7306,10.6947,10.6647,10.6528,10.6408,10.6348,10.6288,10.6109,10.5869,10.569,10.5391,10.5211,10.4912,10.4732,10.4493,10.4254,10.4014,10.3775,10.3416,14.0219,14.0219,14.0219,14.0219,13.9922,13.869,13.857,13.9192,13.99,13.8788,13.754,13.9108,13.8058,13.6863,13.5225,13.4545,13.3132,13.1488,13.0106,12.9904,12.9904,13.0106,13.0309,13.0445,13.0106,12.855,12.8686,12.9092,12.943,12.9565,12.9768,13.0309,13.0377,13.0445,13.0986,13.0986,13.0715,13.0851,13.1595,13.2001,13.2001,13.2475,13.3016,13.3625,13.4031,13.4234,13.464,13.491,13.5519,13.6872,13.7008,13.7075,13.7143,13.7211,13.7414,13.7955,13.694,13.6263,13.5925,13.6331,13.6534,13.5993,13.5857,13.5857,13.5587,13.4707,13.3828,13.3219,13.2677,13.1798,13.058,12.9904,12.9024,12.8077,12.7332,12.6656,12.5844,12.51,12.4491,12.4017,12.3679,12.3273,12.2354,12.0673,11.8337,11.5937,11.2641,11.014,10.9381,10.8463,10.8704,10.8765,10.9661,10.9802,10.8374,10.7785,10.7366,10.7007,10.6707,10.6528,10.6348,10.6109,10.5989,10.581,10.557,10.5331,10.4912,10.4433,10.4194,10.4194,10.3835,10.3296,10.3176,10.3176,10.2877,14.0219,14.0219,14.0219,14.0219,14.0293,14.0468,14.0647,14.1201,14.2023,14.2243,14.1231,14.0151,14.0002,13.9338,13.7565,13.5166,13.3121,13.1375,13.0174,12.9768,12.9768,13.0338,13.1422,13.1218,13.0851,13.1354,13.0986,13.0851,13.0851,13.1054,13.1054,13.1189,13.1324,13.146,13.1663,13.1798,13.2001,13.1933,13.261,13.3016,13.3016,13.3422,13.3963,13.4707,13.5248,13.5654,13.579,13.579,13.6128,13.6872,13.7008,13.7346,13.7684,13.782,13.7955,13.7955,13.7752,13.7075,13.6331,13.6602,13.6534,13.6128,13.5993,13.5925,13.5722,13.5046,13.4098,13.3016,13.2272,13.1527,13.1257,13.0445,12.9159,12.7874,12.7062,12.6453,12.537,12.4829,12.4694,12.4356,12.395,12.3611,12.2894,12.2019,12.0311,11.7891,11.5065,11.2546,11.1064,10.965,10.8659,10.8461,10.8659,10.8298,10.7605,10.7545,10.7306,10.6887,10.6588,10.6408,10.6169,10.581,10.557,10.5151,10.4912,10.4732,10.4194,10.3715,10.3416,10.3356,10.2817,10.2219,10.2458,10.2638,10.2398,14.0219,14.0219,14.0219,14.0219,14.0219,14.0586,14.1027,14.1467,14.2055,14.2202,14.1901,14.1395,14.1403,14.1258,13.9945,13.7291,13.452,13.2169,13.1422,13.0918,13.0648,13.0918,13.2167,13.1595,13.2069,13.261,13.2677,13.2069,13.1527,13.1798,13.1933,13.2069,13.2339,13.261,13.2677,13.2948,13.2813,13.2745,13.3219,13.3489,13.3286,13.4031,13.5181,13.5925,13.6602,13.7211,13.7481,13.7143,13.7414,13.7955,13.7752,13.782,13.7955,13.809,13.809,13.809,13.809,13.7684,13.6805,13.7075,13.7211,13.6602,13.6466,13.6263,13.5857,13.5181,13.4234,13.3286,13.2407,13.2001,13.1933,13.0986,12.9633,12.8415,12.7468,12.6453,12.5573,12.5032,12.4829,12.4761,12.4491,12.422,12.4085,12.3209,12.2012,11.9987,11.7338,11.5121,11.3119,11.1225,10.9397,10.8922,10.8922,10.8503,10.8084,10.7785,10.7366,10.6827,10.6528,10.6348,10.6109,10.581,10.4972,10.4194,10.4074,10.4134,10.3954,10.3595,10.3057,10.2518,10.2159,10.192,10.2039,10.2039,10.186,14.0219,14.0219,14.0219,14.0219,14.0219,14.0219,14.0586,14.11,14.1174,14.1174,14.1247,14.1908,14.2308,14.2257,14.1178,13.9251,13.6283,13.3792,13.2661,13.1933,13.1527,13.173,13.2339,13.261,13.2813,13.3354,13.3489,13.3083,13.2407,13.2542,13.2677,13.288,13.3422,13.3692,13.3625,13.3557,13.3151,13.3083,13.3219,13.3286,13.3489,13.491,13.6399,13.7008,13.7684,13.8293,13.8496,13.8158,13.8158,13.8428,13.8361,13.809,13.809,13.809,13.809,13.809,13.809,13.7684,13.7346,13.7617,13.7684,13.694,13.7143,13.6737,13.5857,13.5113,13.4234,13.3692,13.3219,13.2475,13.2069,13.1189,13.0039,12.8821,12.7671,12.6724,12.6182,12.5641,12.5167,12.51,12.4964,12.4761,12.4559,12.4288,12.3027,12.1958,11.9519,11.6923,11.4786,11.2544,11.085,11.004,10.958,10.9221,10.8802,10.8204,10.7605,10.6827,10.6528,10.6348,10.6109,10.5869,10.5032,10.4313,10.3595,10.3655,10.3595,10.3356,10.2698,10.2159,10.18,10.162,10.174,10.174,10.162,14.0219,14.0219,14.0219,14.0219,14.0219,14.0219,14.0219,14.0366,14.044,14.0293,14.0513,14.1174,14.1908,14.2299,14.1571,13.9207,13.6587,13.4811,13.3517,13.2525,13.1828,13.1933,13.2475,13.2542,13.2948,13.3625,13.376,13.3625,13.3286,13.3354,13.3489,13.3557,13.3557,13.3692,13.3692,13.3692,13.3625,13.3557,13.3625,13.3963,13.4572,13.5925,13.6669,13.7211,13.7684,13.8225,13.8428,13.8225,13.8225,13.8293,13.8225,13.809,13.809,13.809,13.809,13.809,13.8022,13.7752,13.7346,13.7684,13.7887,13.7414,13.7549,13.7143,13.606,13.491,13.4098,13.376,13.3557,13.2948,13.2069,13.146,13.0242,12.8956,12.7806,12.7197,12.6724,12.5979,12.5573,12.5506,12.5438,12.51,12.4829,12.4626,12.4199,12.2976,12.1507,11.8959,11.6075,11.3486,11.1472,11.0401,10.976,10.94,10.8802,10.8323,10.7665,10.6827,10.6588,10.6288,10.6049,10.5869,10.5869,10.5151,10.4254,10.3356,10.3176,10.2877,10.2279,10.1979,10.174,10.1561,10.1501,10.1441,10.1321,14.0219,14.0219,14.0219,14.0219,14.0219,14.0219,14.0219,14.0219,14.0219,14.0219,14.0219,14.0513,14.1394,14.2226,14.1933,14.0938,13.8966,13.6703,13.5237,13.3906,13.2865,13.2475,13.2948,13.2813,13.2948,13.3692,13.4031,13.4031,13.3895,13.376,13.3692,13.3692,13.3692,13.3692,13.3692,13.3692,13.3692,13.3692,13.3828,13.4301,13.5316,13.606,13.6805,13.7549,13.7887,13.8225,13.8496,13.8225,13.8361,13.8496,13.8428,13.809,13.809,13.809,13.809,13.809,13.809,13.7955,13.7752,13.7955,13.782,13.7752,13.7752,13.7346,13.6128,13.5316,13.4437,13.376,13.4098,13.3489,13.2204,13.1663,13.0715,12.9498,12.8144,12.7806,12.7332,12.6385,12.5844,12.5912,12.5844,12.5506,12.51,12.4829,12.4559,12.3816,12.2167,11.9864,11.6637,11.3161,11.1654,11.044,10.9819,10.9341,10.8622,10.8024,10.7426,10.6707,10.6528,10.6288,10.5929,10.581,10.5869,10.551,10.4493,10.3715,10.3117,10.2638,10.2339,10.2039,10.174,10.174,10.162,10.1082,10.1082,14.0219,14.0219,14.0219,14.0219,14.0219,14.0219,14.0219,14.0219,14.0219,14.0219,14.0293,14.066,14.1467,14.2268,14.2568,14.2482,14.15,13.9132,13.7516,13.5997,13.4591,13.3749,13.3454,13.3151,13.3286,13.3963,13.4437,13.4437,13.4234,13.4166,13.4234,13.376,13.3692,13.3692,13.3692,13.3692,13.3692,13.3692,13.4166,13.491,13.5722,13.6128,13.694,13.7684,13.8158,13.8361,13.8767,13.8428,13.8428,13.8564,13.8361,13.809,13.809,13.809,13.809,13.809,13.809,13.809,13.8022,13.809,13.809,13.8022,13.7752,13.7211,13.6196,13.579,13.5181,13.376,13.4031,13.3557,13.2542,13.1663,13.0851,12.9836,12.8753,12.8483,12.8144,12.7062,12.6588,12.6724,12.6521,12.5709,12.537,12.4964,12.4536,12.4334,12.2693,12.0532,11.7137,11.3407,11.1396,11.0119,10.976,10.9101,10.8263,10.7605,10.7007,10.6647,10.6468,10.6348,10.6049,10.5989,10.6049,10.5451,10.4732,10.4313,10.3835,10.3117,10.2398,10.2039,10.174,10.192,10.174,10.1201,10.1082,14.0219,14.0219,14.0219,14.0219,14.0219,14.0219,14.0219,14.0219,14.0219,14.0219,14.0513,14.1614,14.1981,14.2235,14.3398,14.3344,14.1307,14.1572,13.9556,13.7516,13.6205,13.5002,13.4225,13.376,13.3895,13.4437,13.4843,13.4843,13.4775,13.4978,13.4572,13.3895,13.4031,13.3828,13.376,13.3828,13.3963,13.4234,13.491,13.5587,13.6128,13.6534,13.7278,13.7887,13.809,13.809,13.8158,13.809,13.809,13.8293,13.8158,13.809,13.809,13.809,13.809,13.809,13.809,13.809,13.809,13.809,13.809,13.7887,13.7549,13.7075,13.6196,13.5316,13.4572,13.4031,13.4166,13.3219,13.2204,13.1324,13.0783,12.9768,12.8956,12.8821,12.8415,12.7671,12.7265,12.7535,12.7062,12.6047,12.5506,12.51,12.4694,12.4266,12.2203,12.002,11.7137,11.3729,11.1214,10.976,10.952,10.8802,10.7785,10.7186,10.6827,10.6647,10.6468,10.6408,10.6348,10.6288,10.6229,10.5989,10.5391,10.4972,10.4373,10.3476,10.2698,10.2039,10.18,10.2039,10.2159,10.186,10.186,14.0219,14.0219,14.0219,14.0219,14.0219,14.0219,14.0219,14.0219,14.0219,14.0513,14.1027,14.2055,14.2715,14.3229,14.411,14.454,14.3344,14.2428,14.0593,13.8627,13.7062,13.5553,13.4361,13.4031,13.4301,13.4437,13.491,13.4843,13.4234,13.5113,13.4978,13.4572,13.4775,13.4369,13.4166,13.4234,13.4572,13.4978,13.5587,13.606,13.6602,13.6805,13.7346,13.8022,13.809,13.809,13.809,13.809,13.809,13.809,13.809,13.809,13.809,13.809,13.809,13.809,13.809,13.809,13.809,13.809,13.809,13.809,13.782,13.7346,13.6669,13.6263,13.5451,13.4843,13.4234,13.3422,13.1798,13.1392,13.0918,12.9701,12.9092,12.9092,12.8686,12.8077,12.7806,12.8009,12.7062,12.5979,12.5506,12.5167,12.4761,12.4266,12.1873,11.9437,11.6711,11.3796,11.1153,10.94,10.9101,10.8622,10.7605,10.7126,10.6707,10.6588,10.6408,10.6408,10.6408,10.6408,10.6288,10.6169,10.5929,10.5271,10.4553,10.3655,10.2937,10.2339,10.2219,10.2339,10.2339,10.2339,10.2398,14.0219,14.0219,14.0219,14.0219,14.0219,14.0219,14.0219,14.0219,14.0219,14.066,14.1467,14.2275,14.3083,14.3817,14.4624,14.4991,14.4496,14.3587,14.199,14.0183,13.8336,13.6361,13.5182,13.4367,13.4234,13.4234,13.4775,13.491,13.464,13.5113,13.5113,13.5248,13.5654,13.5316,13.4843,13.4843,13.5316,13.5519,13.5857,13.6128,13.6602,13.694,13.7346,13.7955,13.809,13.809,13.809,13.809,13.809,13.809,13.809,13.809,13.809,13.809,13.809,13.809,13.809,13.809,13.809,13.809,13.8225,13.8428,13.8158,13.782,13.7414,13.694,13.579,13.491,13.4504,13.3692,13.1866,13.1798,13.1392,13.0445,12.9768,12.9565,12.9227,12.8686,12.855,12.8415,12.7265,12.625,12.5844,12.5506,12.4672,12.3472,12.0871,11.8785,11.6754,11.3865,11.0559,10.9281,10.8742,10.8144,10.7485,10.7007,10.6588,10.6528,10.6408,10.6408,10.6408,10.6408,10.6408,10.6288,10.5989,10.5451,10.4912,10.4433,10.3535,10.2638,10.2518,10.2458,10.2458,10.2398,10.2458,14.0219,14.0219,14.0219,14.0219,14.0219,14.0219,14.0219,14.0219,14.0219,14.0733,14.1541,14.2275,14.3083,14.389,14.4771,14.4991,14.4991,14.4686,14.3587,14.1599,13.9627,13.8042,13.6343,13.4924,13.4234,13.464,13.5046,13.5384,13.5519,13.5993,13.579,13.5722,13.6263,13.6534,13.5857,13.5857,13.5519,13.5046,13.5654,13.5925,13.6331,13.6737,13.7346,13.7887,13.809,13.809,13.809,13.809,13.809,13.809,13.809,13.809,13.809,13.809,13.809,13.809,13.809,13.809,13.809,13.809,13.8361,13.8699,13.8293,13.8022,13.7752,13.694,13.5857,13.5181,13.4437,13.3557,13.2813,13.2339,13.1798,13.1189,13.0512,12.9971,12.9633,12.9159,12.8889,12.8483,12.7671,12.6859,12.6385,12.5618,12.4648,12.2893,11.9848,11.784,11.6446,11.3366,11.0119,10.9041,10.8383,10.7785,10.7186,10.6767,10.6468,10.6408,10.6408,10.6408,10.6408,10.6408,10.6408,10.6408,10.6169,10.581,10.557,10.5331,10.4254,10.3236,10.2638,10.2518,10.2518,10.2518,10.2578,14.0219,14.0219,14.0219,14.0219,14.0219,14.0219,14.0219,14.0219,14.0293,14.0954,14.2055,14.2569,14.345,14.4331,14.4771,14.4991,14.4991,14.4876,14.4023,14.219,14.0183,13.8336,13.6585,13.5156,13.4234,13.4369,13.4843,13.5248,13.5113,13.606,13.6466,13.6534,13.6872,13.694,13.6196,13.5925,13.5722,13.5587,13.5857,13.6128,13.6534,13.6872,13.7346,13.8022,13.8022,13.809,13.809,13.809,13.809,13.809,13.809,13.809,13.809,13.809,13.809,13.809,13.809,13.809,13.809,13.809,13.8158,13.8293,13.8293,13.809,13.7955,13.7211,13.6331,13.5587,13.4775,13.3828,13.2813,13.2542,13.2069,13.1392,13.0783,13.0377,12.9971,12.9362,12.8956,12.8483,12.7806,12.6994,12.6453,12.472,12.3724,12.2139,11.9219,11.7855,11.6456,11.2797,10.9341,10.8682,10.8024,10.7426,10.6887,10.6647,10.6468,10.6408,10.6408,10.6408,10.6408,10.6408,10.6408,10.6408,10.6348,10.6229,10.581,10.5391,10.4673,10.3895,10.3296,10.2817,10.2757,10.2757,10.2698,14.0219,14.0219,14.0219,14.0219,14.0219,14.0219,14.0219,14.0219,14.0513,14.1394,14.2422,14.2862,14.3743,14.4698,14.4991,14.4991,14.4991,14.4991,14.476,14.2772,14.0457,13.8916,13.7423,13.5618,13.4402,13.4369,13.491,13.5384,13.579,13.606,13.6466,13.694,13.7414,13.6669,13.5993,13.5654,13.5722,13.5519,13.5451,13.5587,13.6128,13.6602,13.7211,13.7617,13.7887,13.809,13.809,13.809,13.809,13.809,13.809,13.809,13.809,13.809,13.809,13.809,13.809,13.809,13.809,13.809,13.8158,13.8158,13.809,13.8225,13.8158,13.7549,13.694,13.6196,13.5384,13.4437,13.3489,13.3219,13.261,13.1933,13.1527,13.1189,13.0783,13.0242,12.943,12.8956,12.828,12.7468,12.6268,12.4064,12.2534,12.0543,11.8468,11.7381,11.61,11.2468,10.9281,10.8622,10.8024,10.7605,10.7126,10.6647,10.6468,10.6408,10.6408,10.6408,10.6408,10.6408,10.6408,10.6408,10.6348,10.6229,10.5869,10.5331,10.4972,10.4493,10.3954,10.3535,10.3176,10.3176,10.3176,14.0146,14.0146,14.0219,14.0219,14.0219,14.0219,14.0219,14.0219,14.0954,14.1761,14.2642,14.3303,14.4037,14.4844,14.4991,14.4991,14.4991,14.4991,14.4876,14.3829,14.1336,13.9906,13.8112,13.6008,13.5003,13.4809,13.5113,13.5857,13.6805,13.7008,13.7075,13.7008,13.7143,13.6263,13.5654,13.5316,13.5316,13.4978,13.4775,13.5046,13.5587,13.6331,13.694,13.7414,13.782,13.8022,13.809,13.809,13.809,13.809,13.809,13.809,13.809,13.809,13.809,13.8022,13.7955,13.782,13.7887,13.7887,13.8022,13.8022,13.809,13.8496,13.8428,13.782,13.7211,13.6602,13.579,13.5248,13.4572,13.4031,13.3489,13.3016,13.2677,13.2272,13.2001,13.1324,13.0445,12.9768,12.9159,12.8118,12.6781,12.4665,12.1392,11.9403,11.7402,11.4804,11.3538,11.2133,10.966,10.8802,10.8263,10.7904,10.7426,10.6827,10.6528,10.6408,10.6408,10.6408,10.6408,10.6408,10.6408,10.6408,10.6408,10.6229,10.6049,10.581,10.557,10.5091,10.4792,10.4313,10.3954,10.3954,10.3954,13.9852,13.9412,13.9926,14.0219,14.0219,14.0219,14.0219,14.0219,14.0513,14.1247,14.2642,14.2862,14.3817,14.4918,14.4991,14.4991,14.4991,14.4991,14.4991,14.3902,14.2319,14.1158,13.934,13.7172,13.5961,13.5621,13.5654,13.606,13.694,13.7414,13.7346,13.7075,13.6872,13.5993,13.5316,13.4978,13.464,13.4301,13.4098,13.464,13.5248,13.5993,13.6737,13.7481,13.7887,13.809,13.809,13.809,13.809,13.809,13.809,13.809,13.809,13.809,13.7955,13.7278,13.694,13.6669,13.7211,13.7346,13.7549,13.7955,13.809,13.8158,13.8225,13.7955,13.7414,13.6805,13.5993,13.5316,13.4707,13.4234,13.3828,13.3489,13.3083,13.2813,13.2407,13.1595,13.0648,12.9904,12.9295,12.8618,12.7186,12.3675,12.0386,11.8413,11.6244,11.3452,11.1638,11.0661,10.984,10.9041,10.8503,10.8144,10.7545,10.6887,10.6588,10.6408,10.6408,10.6408,10.6408,10.6408,10.6408,10.6408,10.6408,10.6408,10.6348,10.6109,10.5929,10.6049,10.581,10.5211,10.4792,10.4792,10.4792,13.9926,13.9559,13.9999,14.0219,14.0219,14.0219,14.0366,14.0586,14.066,14.1467,14.2569,14.2936,14.3817,14.4844,14.4991,14.4991,14.4991,14.4991,14.4991,14.457,14.3219,14.2018,14.0401,13.8384,13.7084,13.6522,13.6504,13.6399,13.7143,13.7346,13.7278,13.6602,13.6602,13.5857,13.5113,13.4775,13.4437,13.4031,13.3895,13.4437,13.5113,13.579,13.6669,13.7481,13.7887,13.809,13.809,13.809,13.809,13.809,13.809,13.809,13.7955,13.782,13.7278,13.6669,13.6331,13.6263,13.6534,13.694,13.7211,13.7617,13.7955,13.809,13.7955,13.7752,13.7346,13.6872,13.5993,13.5248,13.4707,13.4234,13.3963,13.3692,13.3354,13.3083,13.2339,13.1527,13.0715,12.9904,12.9227,12.8618,12.63,12.2737,11.9753,11.8312,11.5989,11.3006,11.1383,11.0701,10.9879,10.9281,10.8802,10.8383,10.7725,10.7186,10.6887,10.6647,10.6468,10.6468,10.6408,10.6408,10.6408,10.6408,10.6408,10.6408,10.6408,10.6408,10.6288,10.6408,10.6408,10.5929,10.557,10.557,10.563,13.9999,13.9926,14.0146,14.0219,14.0219,14.0293,14.0733,14.1394,14.1467,14.1981,14.2789,14.345,14.4184,14.4918,14.4991,14.4991,14.4991,14.4991,14.5138,14.5065,14.3781,14.2735,14.1436,13.8839,13.8021,13.7822,13.7137,13.6196,13.7211,13.7346,13.6805,13.5925,13.5993,13.5519,13.4707,13.4707,13.4504,13.4166,13.4098,13.4437,13.5046,13.5654,13.6331,13.7143,13.7684,13.809,13.809,13.809,13.809,13.809,13.809,13.809,13.7752,13.7075,13.6399,13.5925,13.5587,13.5587,13.5925,13.6399,13.6805,13.7211,13.7617,13.7955,13.7955,13.7481,13.7143,13.6805,13.5993,13.5248,13.464,13.4166,13.3828,13.3692,13.3557,13.3219,13.2677,13.1663,13.0512,12.9768,12.9295,12.8753,12.7599,12.401,12.0688,11.8819,11.5594,11.2225,11.1256,11.0597,11.0119,10.958,10.9161,10.8682,10.8144,10.7665,10.7306,10.7007,10.6707,10.6528,10.6408,10.6408,10.6408,10.6408,10.6408,10.6408,10.6408,10.6408,10.6408,10.6408,10.6408,10.6408,10.6288,10.6169,10.6109,13.8384,13.8458,13.9706,14.0219,14.0293,14.088,14.1247,14.1467,14.2055,14.2789,14.345,14.3743,14.4257,14.4918,14.4991,14.4991,14.4991,14.5065,14.5358,14.5358,14.4553,14.3778,14.3215,14.0193,13.9225,13.8348,13.7137,13.5722,13.6331,13.6534,13.6331,13.5248,13.5384,13.5181,13.4166,13.4437,13.4504,13.4369,13.4572,13.491,13.5654,13.6331,13.7075,13.7617,13.809,13.809,13.809,13.809,13.809,13.809,13.809,13.782,13.7278,13.606,13.5316,13.4978,13.464,13.4707,13.5181,13.579,13.6399,13.7075,13.7549,13.7887,13.7887,13.7346,13.6805,13.6466,13.5925,13.5181,13.4572,13.4098,13.3692,13.3692,13.3692,13.3286,13.288,13.1595,13.0309,12.9701,12.9295,12.8698,12.7769,12.5379,12.2103,11.8257,11.4226,11.1579,11.1196,11.0717,11.0418,10.9939,10.958,10.9101,10.8622,10.8024,10.7665,10.7126,10.6647,10.6528,10.6408,10.6647,10.6827,10.6528,10.6408,10.6468,10.6468,10.6408,10.6408,10.6408,10.6408,10.6408,10.6408,10.6288,10.6348,13.7797,13.7944,13.9118,13.9852,14.0293,14.1027,14.1614,14.2055,14.2789,14.3596,14.4184,14.4037,14.4257,14.4918,14.4991,14.4991,14.4991,14.4991,14.5138,14.5358,14.5316,14.4846,14.3279,14.1165,14.0617,13.9374,13.7206,13.5993,13.5654,13.5587,13.5316,13.4572,13.4775,13.464,13.376,13.4166,13.4572,13.4775,13.5046,13.5654,13.6263,13.6872,13.7414,13.7887,13.809,13.809,13.809,13.8022,13.7887,13.7549,13.7211,13.6669,13.606,13.5316,13.4707,13.4301,13.4031,13.3895,13.4504,13.5248,13.606,13.6669,13.7617,13.8022,13.782,13.7278,13.6466,13.5993,13.4978,13.4234,13.4166,13.376,13.3692,13.3692,13.3557,13.3286,13.2339,13.1121,13.0106,12.943,12.9159,12.9159,12.7935,12.5892,12.282,11.9886,11.5648,11.1985,11.1542,11.0777,11.0478,11.0238,10.9879,10.976,10.952,10.8742,10.7964,10.7366,10.6707,10.6528,10.6468,10.7007,10.7306,10.6767,10.6528,10.6647,10.6647,10.6528,10.6408,10.6408,10.6408,10.6408,10.6408,10.6408,10.6408,13.7577,13.787,13.8825,13.9632,14.044,14.1247,14.2055,14.2789,14.3596,14.4331,14.4771,14.4257,14.4477,14.4771,14.5138,14.5065,14.5138,14.5285,14.5285,14.5285,14.5138,14.5199,14.3829,14.1551,14.0193,13.8871,13.7303,13.5791,13.4978,13.4978,13.4775,13.3963,13.3828,13.3828,13.376,13.3963,13.4301,13.5046,13.5587,13.6331,13.6805,13.7143,13.7617,13.7887,13.809,13.809,13.809,13.7955,13.7684,13.7008,13.6331,13.5722,13.5181,13.4707,13.4301,13.3895,13.3828,13.376,13.4098,13.5113,13.5654,13.6331,13.7414,13.7887,13.7684,13.7143,13.6331,13.5451,13.4437,13.3828,13.376,13.3692,13.3692,13.3557,13.3354,13.3016,13.1866,13.0715,12.9904,12.9159,12.9159,12.9159,12.7868,12.5995,12.3463,12.0743,11.7816,11.4619,11.2207,11.1181,11.0418,11.0298,11.0178,11.0119,11.0059,10.9221,10.8084,10.7545,10.6947,10.6647,10.6468,10.6827,10.6947,10.6707,10.6588,10.6707,10.6707,10.6588,10.6468,10.6468,10.6408,10.6408,10.6408,10.6408,10.6408,13.6622,13.7944,13.9338,14.044,14.1247,14.2055,14.2862,14.3596,14.4404,14.4918,14.4918,14.4918,14.4918,14.5065,14.5725,14.5725,14.5065,14.5432,14.5872,14.5946,14.5212,14.5432,14.4559,14.1705,13.8095,13.6607,13.5993,13.5791,13.4775,13.4707,13.4707,13.4437,13.4437,13.4234,13.3828,13.4166,13.4707,13.5384,13.5857,13.6466,13.7481,13.782,13.7887,13.809,13.809,13.809,13.809,13.809,13.7617,13.6872,13.579,13.5046,13.464,13.4301,13.3963,13.3828,13.3692,13.3692,13.4166,13.5181,13.5722,13.606,13.7075,13.7887,13.7549,13.7075,13.6331,13.5587,13.464,13.3895,13.3692,13.3692,13.3692,13.3219,13.2948,13.2339,13.146,13.0377,12.943,12.9159,12.9159,12.8956,12.8321,12.6199,12.3813,12.0979,11.7941,11.4764,11.2045,11.1099,11.0358,11.0298,11.0298,10.9939,10.964,10.9041,10.8144,10.7605,10.7126,10.6827,10.6588,10.6468,10.6468,10.6528,10.6588,10.6707,10.6647,10.6588,10.6707,10.6707,10.6528,10.6408,10.6408,10.6408,10.6408]},{"header":{"parameterUnit":"m.s-1","parameterCategory":1,"la1":31.0,"la2":29.5877,"lo1":-88.7671,"lo2":-86.6584,"dy":0.0162,"dx":0.0185,"nx":115,"ny":88,"refTime":"2026-03-16T00:00:00:Z","depth":0,"parameterNumber":3,"parameterNumberName":"V-component_of_WINDS"},"data":[0.0,0.0,0.0,0.0,0.0,0.0,0.0,0.0,0.0,0.0,0.0,0.0,0.0,0.0,0.0,0.0,0.0,0.0,0.0,0.0,0.0,0.0,0.0,0.0,0.0,0.0,0.0,0.0,0.0,0.0,0.0,0.0,0.0,0.0,0.0,0.0,0.0,0.0,0.0,0.0,0.0,0.0,0.0,0.0,0.0,0.0,0.0,0.0,0.0,0.0,0.0,0.0,0.0,0.0,0.0,0.0,0.0,0.0,0.0,0.0,0.0,0.0,0.0,0.0,0.0,0.0,0.0,0.0,0.0,0.0,0.0,0.0,0.0,0.0,0.0,0.0,0.0,0.0,0.0,0.0,0.0,0.0,0.0,0.0,0.0,0.0,0.0,0.0,0.0,0.0,0.0,0.0,0.0,0.0,0.0,0.0,0.0,0.0,0.0,0.0,0.0,0.0,0.0,0.0,0.0,0.0,0.0,0.0,0.0,0.0,0.0,0.0,0.0,0.0,0.0,0.0,0.0,0.0,0.0,0.0,0.0,0.0,0.0,0.0,0.0,0.0,0.0,0.0,0.0,0.0,0.0,0.0,0.0,0.0,0.0,0.0,0.0,0.0,0.0,0.0,0.0,0.0,0.0,0.0,0.0,0.0,0.0,0.0,0.0,0.0,0.0,0.0,0.0,0.0,0.0,0.0,0.0,0.0,0.0,0.0,0.0,0.0,0.0,0.0,0.0,0.0,0.0,0.0,0.0,0.0,0.0,0.0,0.0,0.0,0.0,0.0,0.0,0.0,0.0,0.0,0.0,0.0,0.0,0.0,0.0,0.0,0.0,0.0,0.0,0.0,0.0,0.0,0.0,0.0,0.0,0.0,0.0,0.0,0.0,0.0,0.0,0.0,0.0,0.0,0.0,0.0,0.0,0.0,0.0,0.0,0.0,0.0,0.0,0.0,0.0,0.0,0.0,0.0,0.0,0.0,0.0,0.0,0.0,0.0,0.0,0.0,0.0,0.0,0.0,0.0,0.0,0.0,0.0,0.0,0.0,0.0,0.0,0.0,0.0,0.0,0.0,0.0,0.0,0.0,0.0,0.0,0.0,0.0,0.0,0.0,0.0,0.0,0.0,0.0,0.0,0.0,0.0,0.0,0.0,0.0,0.0,0.0,0.0,0.0,0.0,0.0,0.0,0.0,0.0,0.0,0.0,0.0,0.0,0.0,0.0,0.0,0.0,0.0,0.0,0.0,0.0,0.0,0.0,0.0,0.0,0.0,0.0,0.0,0.0,0.0,0.0,0.0,0.0,0.0,0.0,0.0,0.0,0.0,0.0,0.0,0.0,0.0,0.0,0.0,0.0,0.0,0.0,0.0,0.0,0.0,0.0,0.0,0.0,0.0,0.0,0.0,0.0,0.0,0.0,0.0,0.0,0.0,0.0,0.0,0.0,0.0,0.0,0.0,0.0,0.0,0.0,0.0,0.0,0.0,0.0,0.0,0.0,0.0,0.0,0.0,0.0,0.0,0.0,0.0,0.0,0.0,0.0,0.0,0.0,0.0,0.0,0.0,0.0,0.0,0.0,0.0,0.0,0.0,0.0,0.0,0.0,0.0,0.0,0.0,0.0,0.0,0.0,0.0,0.0,0.0,0.0,0.0,0.0,0.0,0.0,0.0,0.0,0.0,0.0,0.0,0.0,0.0,0.0,0.0,0.0,0.0,0.0,0.0,0.0,0.0,0.0,0.0,0.0,0.0,0.0,0.0,0.0,0.0,0.0,0.0,0.0,0.0,0.0,0.0,0.0,0.0,0.0,0.0,0.0,0.0,0.0,0.0,0.0,0.0,0.0,0.0,0.0,0.0,0.0,0.0,0.0,0.0,0.0,0.0,0.0,0.0,0.0,0.0,0.0,0.0,0.0,0.0,0.0,0.0,0.0,0.0,0.0,0.0,0.0,0.0,0.0,0.0,0.0,0.0,0.0,0.0,0.0,0.0,0.0,0.0,0.0,0.0,0.0,0.0,0.0,0.0,0.0,0.0,0.0,0.0,0.0,0.0,0.0,0.0,0.0,0.0,0.0,0.0,0.0,0.0,0.0,0.0,0.0,0.0,0.0,0.0,0.0,0.0,0.0,0.0,0.0,0.0,0.0,0.0,0.0,0.0,0.0,0.0,0.0,0.0,0.0,0.0,0.0,0.0,0.0,0.0,0.0,0.0,0.0,0.0,0.0,0.0,0.0,0.0,0.0,0.0,0.0,0.0,0.0,0.0,0.0,0.0,0.0,0.0,0.0,0.0,0.0,0.0,0.0,0.0,0.0,0.0,0.0,0.0,0.0,0.0,0.0,0.0,0.0,0.0,0.0,0.0,0.0,0.0,0.0,0.0,0.0,0.0,0.0,0.0,0.0,0.0,0.0,0.0,0.0,0.0,0.0,0.0,0.0,0.0,0.0,0.0,0.0,0.0,0.0,0.0,0.0,0.0,0.0,0.0,0.0,0.0,0.0,0.0,0.0,0.0,0.0,0.0,0.0,0.0,0.0,0.0,0.0,0.0,0.0,0.0,0.0,0.0,0.0,0.0,0.0,0.0,0.0,0.0,0.0,0.0,0.0,0.0,0.0,0.0,0.0,0.0,0.0,0.0,0.0,0.0,0.0,0.0,0.0,0.0,0.0,0.0,0.0,0.0,0.0,0.0,0.0,0.0,0.0,0.0,0.0,0.0,0.0,0.0,0.0,0.0,0.0,0.0,0.0,0.0,0.0,0.0,0.0,0.0,0.0,0.0,0.0,0.0,0.0,0.0,0.0,0.0,0.0,0.0,0.0,0.0,0.0,0.0,0.0,0.0,0.0,0.0,0.0,0.0,0.0,0.0,0.0,0.0,0.0,0.0,0.0,0.0,0.0,0.0,0.0,0.0,0.0,0.0,0.0,0.0,0.0,0.0,0.0,0.0,0.0,0.0,0.0,0.0,0.0,0.0,0.0,0.0,0.0,0.0,0.0,0.0,0.0,0.0,0.0,0.0,0.0,0.0,0.0,0.0,0.0,0.0,0.0,0.0,0.0,0.0,0.0,0.0,0.0,0.0,0.0,0.0,0.0,0.0,0.0,0.0,0.0,0.0,0.0,0.0,0.0,0.0,0.0,0.0,0.0,0.0,0.0,0.0,0.0,0.0,0.0,0.0,0.0,0.0,0.0,0.0,0.0,0.0,0.0,0.0,0.0,0.0,0.0,0.0,0.0,0.0,0.0,0.0,0.0,0.0,0.0,0.0,0.0,0.0,0.0,0.0,0.0,0.0,0.0,0.0,0.0,0.0,0.0,0.0,0.0,0.0,0.0,0.0,0.0,0.0,0.0,0.0,0.0,0.0,0.0,0.0,0.0,0.0,0.0,0.0,0.0,0.0,0.0,0.0,0.0,0.0,0.0,0.0,0.0,0.0,0.0,0.0,0.0,0.0,0.0,0.0,0.0,0.0,0.0,0.0,0.0,0.0,0.0,0.0,0.0,0.0,0.0,0.0,0.0,0.0,0.0,0.0,0.0,0.0,0.0,0.0,0.0,0.0,0.0,0.0,0.0,0.0,0.0,0.0,0.0,0.0,0.0,0.0,0.0,0.0,0.0,0.0,0.0,0.0,0.0,0.0,0.0,0.0,0.0,0.0,0.0,0.0,0.0,0.0,0.0,0.0,0.0,0.0,0.0,0.0,0.0,0.0,0.0,0.0,0.0,0.0,0.0,0.0,0.0,0.0,0.0,0.0,0.0,0.0,0.0,0.0,0.0,0.0,0.0,0.0,0.0,0.0,0.0,0.0,0.0,0.0,0.0,0.0,0.0,0.0,0.0,0.0,0.0,0.0,0.0,0.0,0.0,0.0,0.0,0.0,0.0,0.0,0.0,0.0,0.0,0.0,0.0,0.0,0.0,0.0,0.0,0.0,0.0,0.0,0.0,0.0,0.0,0.0,0.0,0.0,0.0,0.0,0.0,0.0,0.0,0.0,0.0,0.0,0.0,0.0,0.0,0.0,0.0,0.0,0.0,0.0,0.0,0.0,0.0,0.0,0.0,0.0,0.0,0.0,0.0,0.0,0.0,0.0,0.0,0.0,0.0,0.0,0.0,0.0,0.0,0.0,0.0,0.0,0.0,0.0,0.0,0.0,0.0,0.0,0.0,0.0,0.0,0.0,0.0,0.0,0.0,0.0,0.0,0.0,0.0,0.0,0.0,0.0,0.0,0.0,0.0,0.0,0.0,0.0,0.0,0.0,0.0,0.0,0.0,0.0,0.0,0.0,-4.5586,0.0,0.0,0.0,0.0,0.0,0.0,0.0,0.0,0.0,0.0,0.0,0.0,0.0,0.0,0.0,0.0,0.0,0.0,0.0,0.0,0.0,0.0,0.0,0.0,0.0,0.0,0.0,0.0,0.0,0.0,0.0,0.0,0.0,0.0,0.0,0.0,0.0,0.0,0.0,0.0,0.0,0.0,0.0,0.0,0.0,0.0,0.0,0.0,0.0,0.0,0.0,0.0,0.0,0.0,0.0,0.0,0.0,0.0,0.0,0.0,0.0,0.0,0.0,0.0,0.0,0.0,0.0,0.0,0.0,0.0,0.0,0.0,0.0,0.0,0.0,0.0,0.0,0.0,0.0,0.0,0.0,0.0,0.0,0.0,0.0,0.0,0.0,0.0,0.0,0.0,0.0,0.0,0.0,0.0,0.0,0.0,0.0,0.0,0.0,0.0,0.0,0.0,0.0,0.0,0.0,0.0,0.0,0.0,0.0,0.0,-4.6836,-4.6601,-4.6797,-4.6445,-4.5351,0.0,0.0,0.0,0.0,0.0,0.0,0.0,0.0,0.0,0.0,0.0,0.0,0.0,0.0,0.0,0.0,0.0,0.0,0.0,0.0,0.0,0.0,0.0,0.0,0.0,0.0,0.0,0.0,0.0,0.0,0.0,0.0,0.0,0.0,0.0,0.0,0.0,0.0,0.0,0.0,0.0,0.0,0.0,0.0,0.0,0.0,0.0,0.0,0.0,0.0,0.0,0.0,0.0,0.0,0.0,0.0,0.0,0.0,0.0,0.0,0.0,0.0,0.0,0.0,0.0,0.0,0.0,0.0,0.0,0.0,0.0,0.0,0.0,0.0,0.0,0.0,0.0,0.0,0.0,0.0,0.0,0.0,0.0,0.0,0.0,0.0,0.0,0.0,0.0,0.0,0.0,0.0,0.0,0.0,0.0,0.0,0.0,0.0,0.0,0.0,0.0,0.0,0.0,0.0,0.0,0.0,0.0,0.0,0.0,0.0,0.0,0.0,-4.7031,-4.6523,-4.5078,0.0,0.0,0.0,0.0,0.0,0.0,0.0,0.0,0.0,0.0,0.0,0.0,0.0,0.0,0.0,0.0,0.0,0.0,0.0,0.0,0.0,0.0,0.0,0.0,0.0,0.0,0.0,0.0,0.0,0.0,0.0,0.0,0.0,0.0,0.0,0.0,0.0,0.0,0.0,0.0,0.0,0.0,0.0,0.0,0.0,0.0,0.0,0.0,0.0,0.0,0.0,0.0,0.0,0.0,0.0,0.0,0.0,0.0,0.0,0.0,0.0,0.0,0.0,0.0,0.0,0.0,0.0,0.0,0.0,0.0,0.0,0.0,0.0,0.0,0.0,0.0,0.0,0.0,0.0,0.0,0.0,0.0,0.0,0.0,0.0,0.0,0.0,0.0,0.0,0.0,0.0,0.0,0.0,0.0,0.0,0.0,0.0,0.0,0.0,0.0,0.0,0.0,0.0,0.0,0.0,0.0,0.0,0.0,0.0,0.0,-4.7266,-4.8008,-4.8047,0.0,-4.5195,0.0,0.0,0.0,0.0,0.0,0.0,0.0,0.0,0.0,0.0,0.0,0.0,0.0,0.0,0.0,0.0,0.0,0.0,0.0,0.0,0.0,0.0,0.0,0.0,0.0,0.0,0.0,0.0,0.0,0.0,0.0,0.0,0.0,0.0,0.0,0.0,0.0,0.0,0.0,0.0,0.0,0.0,0.0,0.0,0.0,0.0,0.0,0.0,0.0,0.0,0.0,0.0,0.0,0.0,0.0,0.0,0.0,0.0,0.0,0.0,0.0,0.0,0.0,0.0,0.0,0.0,0.0,0.0,0.0,0.0,0.0,0.0,0.0,0.0,0.0,0.0,0.0,0.0,0.0,0.0,0.0,0.0,0.0,0.0,0.0,0.0,0.0,0.0,0.0,0.0,0.0,0.0,0.0,0.0,0.0,0.0,0.0,0.0,0.0,0.0,0.0,0.0,0.0,0.0,0.0,0.0,0.0,0.0,0.0,0.0,0.0,-4.7851,-4.7109,-4.6055,0.0,0.0,0.0,0.0,0.0,0.0,0.0,0.0,0.0,0.0,0.0,0.0,0.0,0.0,0.0,0.0,0.0,0.0,0.0,0.0,0.0,0.0,0.0,0.0,0.0,0.0,0.0,0.0,0.0,0.0,0.0,0.0,0.0,0.0,0.0,0.0,0.0,0.0,0.0,0.0,0.0,0.0,0.0,0.0,0.0,0.0,0.0,0.0,0.0,0.0,0.0,0.0,0.0,0.0,0.0,0.0,0.0,0.0,0.0,0.0,0.0,0.0,0.0,0.0,0.0,0.0,0.0,0.0,0.0,0.0,0.0,0.0,0.0,0.0,0.0,0.0,0.0,0.0,0.0,0.0,0.0,0.0,0.0,0.0,0.0,0.0,0.0,0.0,0.0,0.0,0.0,0.0,0.0,0.0,0.0,0.0,0.0,0.0,0.0,0.0,0.0,0.0,0.0,0.0,0.0,0.0,0.0,0.0,0.0,0.0,-4.7851,0.0,-4.7734,-4.6875,-4.5703,-4.4258,0.0,0.0,0.0,0.0,0.0,0.0,0.0,0.0,0.0,0.0,0.0,0.0,0.0,0.0,0.0,0.0,0.0,0.0,0.0,0.0,0.0,0.0,0.0,0.0,0.0,0.0,0.0,0.0,0.0,0.0,0.0,0.0,0.0,0.0,0.0,0.0,0.0,0.0,0.0,0.0,0.0,0.0,0.0,0.0,0.0,0.0,0.0,0.0,0.0,0.0,0.0,0.0,0.0,0.0,0.0,0.0,0.0,0.0,0.0,0.0,0.0,0.0,0.0,0.0,0.0,0.0,0.0,0.0,0.0,0.0,0.0,0.0,0.0,0.0,0.0,0.0,0.0,0.0,0.0,0.0,0.0,0.0,0.0,0.0,0.0,0.0,0.0,0.0,0.0,0.0,0.0,0.0,0.0,0.0,0.0,0.0,0.0,0.0,0.0,0.0,0.0,0.0,0.0,0.0,0.0,0.0,0.0,0.0,0.0,-4.8008,-4.7773,-4.8203,-4.8125,-4.6719,0.0,0.0,0.0,0.0,0.0,0.0,0.0,0.0,0.0,0.0,0.0,0.0,0.0,0.0,0.0,0.0,0.0,0.0,0.0,0.0,0.0,0.0,0.0,0.0,0.0,0.0,0.0,0.0,0.0,0.0,0.0,0.0,0.0,0.0,0.0,0.0,0.0,0.0,0.0,0.0,0.0,0.0,0.0,0.0,0.0,0.0,0.0,0.0,0.0,0.0,0.0,0.0,0.0,0.0,0.0,0.0,0.0,0.0,0.0,0.0,0.0,0.0,0.0,0.0,0.0,0.0,0.0,0.0,0.0,0.0,0.0,0.0,0.0,0.0,0.0,0.0,0.0,0.0,0.0,0.0,0.0,0.0,0.0,0.0,0.0,0.0,0.0,0.0,0.0,0.0,0.0,0.0,0.0,0.0,0.0,0.0,0.0,0.0,0.0,0.0,0.0,0.0,0.0,0.0,0.0,0.0,0.0,0.0,0.0,-4.7226,-4.7187,-4.7891,-4.9297,-4.6797,-4.4961,0.0,0.0,0.0,0.0,0.0,0.0,0.0,0.0,0.0,0.0,0.0,0.0,0.0,0.0,0.0,0.0,0.0,0.0,0.0,0.0,0.0,0.0,0.0,0.0,0.0,0.0,0.0,0.0,0.0,0.0,0.0,0.0,0.0,0.0,0.0,0.0,0.0,0.0,0.0,0.0,0.0,0.0,0.0,0.0,0.0,0.0,0.0,0.0,0.0,0.0,0.0,0.0,0.0,0.0,0.0,0.0,0.0,0.0,0.0,0.0,0.0,0.0,0.0,0.0,0.0,0.0,0.0,0.0,0.0,0.0,0.0,0.0,0.0,0.0,0.0,0.0,0.0,0.0,0.0,0.0,0.0,0.0,0.0,0.0,0.0,0.0,0.0,0.0,0.0,0.0,0.0,0.0,0.0,0.0,0.0,0.0,0.0,0.0,0.0,0.0,0.0,0.0,0.0,0.0,0.0,0.0,0.0,0.0,0.0,-4.7148,0.0,-4.8437,0.0,-4.6367,-4.4297,0.0,0.0,0.0,0.0,0.0,0.0,0.0,0.0,0.0,0.0,0.0,0.0,0.0,0.0,0.0,0.0,0.0,0.0,0.0,0.0,0.0,0.0,0.0,0.0,0.0,0.0,0.0,0.0,0.0,0.0,0.0,0.0,0.0,0.0,0.0,0.0,0.0,0.0,0.0,0.0,0.0,0.0,0.0,0.0,0.0,0.0,0.0,0.0,0.0,0.0,0.0,0.0,0.0,0.0,0.0,0.0,0.0,0.0,0.0,0.0,0.0,0.0,0.0,0.0,0.0,0.0,0.0,0.0,0.0,0.0,0.0,0.0,0.0,0.0,0.0,0.0,0.0,0.0,0.0,0.0,0.0,0.0,0.0,0.0,0.0,0.0,0.0,0.0,0.0,0.0,0.0,0.0,0.0,0.0,0.0,0.0,0.0,0.0,0.0,0.0,0.0,0.0,0.0,0.0,0.0,0.0,0.0,0.0,-4.7578,-4.8789,-4.9609,-4.9297,-4.7695,-4.707,-4.5078,0.0,0.0,0.0,0.0,0.0,0.0,0.0,0.0,0.0,0.0,0.0,0.0,0.0,0.0,0.0,0.0,0.0,0.0,0.0,0.0,0.0,0.0,0.0,0.0,0.0,0.0,0.0,0.0,0.0,0.0,0.0,0.0,0.0,0.0,0.0,0.0,0.0,0.0,0.0,0.0,0.0,0.0,0.0,0.0,0.0,0.0,0.0,0.0,0.0,0.0,0.0,0.0,0.0,0.0,0.0,0.0,0.0,0.0,0.0,0.0,0.0,0.0,0.0,0.0,0.0,0.0,0.0,0.0,0.0,0.0,0.0,0.0,0.0,0.0,0.0,0.0,0.0,0.0,0.0,0.0,0.0,0.0,0.0,0.0,0.0,0.0,0.0,0.0,0.0,0.0,0.0,0.0,0.0,0.0,0.0,0.0,0.0,0.0,0.0,0.0,0.0,0.0,0.0,0.0,0.0,0.0,0.0,0.0,0.0,-4.7578,-4.8672,-4.9453,-4.9687,-4.6797,-4.5039,0.0,0.0,0.0,0.0,0.0,0.0,0.0,0.0,0.0,0.0,0.0,0.0,0.0,0.0,0.0,0.0,0.0,0.0,0.0,0.0,0.0,0.0,0.0,0.0,0.0,0.0,0.0,0.0,0.0,0.0,0.0,0.0,0.0,0.0,0.0,0.0,0.0,0.0,0.0,0.0,0.0,0.0,0.0,0.0,0.0,0.0,0.0,0.0,0.0,0.0,0.0,0.0,0.0,0.0,0.0,0.0,0.0,0.0,0.0,0.0,0.0,0.0,0.0,0.0,0.0,0.0,0.0,0.0,0.0,0.0,0.0,0.0,0.0,0.0,0.0,0.0,0.0,0.0,0.0,0.0,0.0,0.0,0.0,0.0,0.0,0.0,0.0,0.0,0.0,0.0,0.0,0.0,0.0,0.0,0.0,0.0,0.0,0.0,0.0,0.0,0.0,0.0,0.0,0.0,0.0,0.0,0.0,0.0,0.0,-4.9414,-5.0273,-5.0781,-5.082,-4.7891,-4.5937,-4.5078,0.0,0.0,0.0,0.0,0.0,0.0,0.0,0.0,0.0,0.0,0.0,0.0,0.0,0.0,0.0,0.0,0.0,0.0,0.0,0.0,0.0,0.0,0.0,0.0,0.0,0.0,0.0,0.0,0.0,0.0,0.0,0.0,0.0,0.0,0.0,0.0,0.0,0.0,0.0,0.0,0.0,0.0,0.0,0.0,0.0,0.0,0.0,0.0,0.0,0.0,0.0,0.0,0.0,0.0,0.0,0.0,0.0,0.0,0.0,0.0,0.0,0.0,0.0,0.0,0.0,0.0,0.0,0.0,0.0,0.0,0.0,0.0,0.0,0.0,0.0,0.0,0.0,0.0,0.0,0.0,0.0,0.0,0.0,0.0,0.0,0.0,0.0,0.0,0.0,0.0,0.0,0.0,0.0,0.0,0.0,0.0,0.0,0.0,0.0,0.0,0.0,0.0,0.0,0.0,0.0,0.0,0.0,0.0,-5.3476,-5.4141,-5.3437,-5.1289,-5.0195,-4.7695,0.0,0.0,0.0,0.0,0.0,0.0,0.0,0.0,0.0,0.0,0.0,0.0,0.0,0.0,0.0,0.0,0.0,0.0,0.0,0.0,0.0,0.0,0.0,0.0,0.0,0.0,0.0,0.0,0.0,0.0,0.0,0.0,0.0,0.0,0.0,0.0,0.0,0.0,0.0,0.0,0.0,0.0,0.0,0.0,0.0,0.0,0.0,0.0,0.0,0.0,0.0,0.0,0.0,0.0,0.0,0.0,0.0,0.0,0.0,0.0,0.0,0.0,0.0,0.0,0.0,0.0,0.0,0.0,0.0,0.0,0.0,0.0,0.0,0.0,0.0,0.0,0.0,0.0,0.0,0.0,0.0,0.0,0.0,0.0,0.0,0.0,0.0,0.0,0.0,0.0,0.0,0.0,0.0,0.0,0.0,0.0,0.0,0.0,0.0,0.0,0.0,0.0,0.0,0.0,0.0,0.0,0.0,0.0,0.0,-5.5273,-5.8164,-5.8359,-5.5586,-5.2539,-4.9961,0.0,0.0,0.0,0.0,0.0,0.0,0.0,0.0,0.0,0.0,0.0,0.0,0.0,0.0,0.0,0.0,0.0,0.0,0.0,0.0,0.0,0.0,0.0,0.0,0.0,0.0,0.0,0.0,0.0,0.0,0.0,0.0,0.0,0.0,0.0,0.0,0.0,0.0,0.0,0.0,0.0,0.0,0.0,0.0,0.0,0.0,0.0,0.0,0.0,0.0,0.0,0.0,0.0,0.0,0.0,0.0,0.0,0.0,0.0,0.0,0.0,0.0,0.0,0.0,0.0,0.0,0.0,0.0,0.0,0.0,0.0,0.0,0.0,0.0,0.0,0.0,0.0,0.0,0.0,0.0,0.0,0.0,0.0,0.0,0.0,0.0,0.0,0.0,0.0,0.0,0.0,0.0,0.0,0.0,0.0,0.0,0.0,0.0,0.0,0.0,0.0,0.0,0.0,0.0,0.0,0.0,0.0,0.0,-5.5469,-5.8047,-6.1367,-6.2148,-6.0234,-5.6445,-5.2773,0.0,0.0,0.0,0.0,0.0,0.0,0.0,0.0,0.0,0.0,0.0,0.0,0.0,0.0,0.0,0.0,0.0,0.0,0.0,0.0,0.0,0.0,0.0,0.0,0.0,0.0,0.0,0.0,0.0,0.0,0.0,0.0,0.0,0.0,0.0,0.0,0.0,0.0,0.0,0.0,0.0,0.0,0.0,0.0,0.0,0.0,0.0,0.0,0.0,0.0,0.0,0.0,0.0,0.0,0.0,0.0,0.0,0.0,0.0,0.0,0.0,0.0,0.0,0.0,0.0,0.0,0.0,0.0,0.0,0.0,0.0,0.0,0.0,0.0,0.0,0.0,0.0,0.0,0.0,0.0,0.0,0.0,0.0,0.0,0.0,0.0,0.0,0.0,0.0,0.0,0.0,0.0,0.0,0.0,0.0,0.0,0.0,0.0,0.0,0.0,0.0,0.0,0.0,0.0,0.0,0.0,0.0,0.0,-5.75,-6.1211,-6.3867,-6.5,-6.4492,-6.0625,-5.5586,0.0,0.0,0.0,0.0,0.0,0.0,0.0,0.0,0.0,0.0,0.0,0.0,0.0,0.0,0.0,0.0,0.0,0.0,0.0,0.0,0.0,0.0,0.0,0.0,0.0,0.0,0.0,0.0,0.0,0.0,0.0,0.0,0.0,0.0,0.0,0.0,0.0,0.0,0.0,0.0,0.0,0.0,0.0,0.0,0.0,0.0,0.0,0.0,0.0,0.0,0.0,0.0,0.0,0.0,0.0,0.0,0.0,0.0,0.0,0.0,0.0,0.0,0.0,0.0,0.0,0.0,0.0,0.0,0.0,0.0,0.0,0.0,0.0,0.0,0.0,0.0,0.0,0.0,0.0,0.0,0.0,0.0,0.0,0.0,0.0,0.0,0.0,0.0,0.0,0.0,0.0,0.0,0.0,0.0,0.0,0.0,0.0,0.0,0.0,0.0,0.0,0.0,0.0,0.0,0.0,0.0,0.0,0.0,-5.9726,-6.2578,-6.5469,-6.6758,-6.6328,-6.0937,-5.5937,0.0,0.0,0.0,0.0,0.0,0.0,0.0,0.0,0.0,0.0,0.0,0.0,0.0,0.0,0.0,0.0,0.0,0.0,0.0,0.0,0.0,0.0,0.0,0.0,0.0,0.0,0.0,0.0,0.0,0.0,0.0,0.0,0.0,0.0,0.0,0.0,0.0,0.0,0.0,0.0,0.0,0.0,0.0,0.0,0.0,0.0,0.0,0.0,-4.6211,0.0,0.0,0.0,0.0,0.0,0.0,0.0,0.0,0.0,0.0,0.0,0.0,0.0,0.0,0.0,0.0,0.0,0.0,0.0,0.0,0.0,0.0,0.0,0.0,0.0,0.0,0.0,0.0,0.0,0.0,0.0,0.0,0.0,0.0,0.0,0.0,0.0,0.0,0.0,0.0,0.0,0.0,0.0,0.0,0.0,0.0,0.0,0.0,0.0,0.0,0.0,0.0,0.0,0.0,0.0,0.0,0.0,0.0,0.0,-6.1328,-6.4453,-6.6445,-6.7383,-6.6992,-6.2305,-5.7656,0.0,0.0,0.0,0.0,0.0,0.0,0.0,0.0,0.0,0.0,0.0,0.0,0.0,0.0,0.0,0.0,0.0,0.0,0.0,0.0,0.0,0.0,0.0,0.0,0.0,0.0,0.0,0.0,0.0,0.0,0.0,0.0,0.0,0.0,0.0,0.0,0.0,0.0,0.0,0.0,0.0,0.0,0.0,0.0,0.0,0.0,0.0,0.0,0.0,0.0,0.0,0.0,0.0,0.0,0.0,0.0,0.0,0.0,0.0,0.0,0.0,0.0,0.0,0.0,0.0,0.0,0.0,0.0,0.0,0.0,0.0,0.0,0.0,0.0,0.0,0.0,0.0,0.0,0.0,0.0,0.0,0.0,0.0,0.0,0.0,0.0,0.0,0.0,0.0,0.0,0.0,0.0,0.0,0.0,0.0,0.0,0.0,0.0,0.0,0.0,0.0,0.0,0.0,0.0,0.0,0.0,0.0,-5.8515,-6.2344,-6.6328,-6.7226,-6.7617,-6.7539,-6.3906,-5.9726,-5.5156,0.0,0.0,0.0,0.0,0.0,0.0,0.0,0.0,0.0,0.0,0.0,0.0,0.0,0.0,0.0,0.0,0.0,0.0,0.0,0.0,0.0,0.0,0.0,0.0,0.0,0.0,0.0,0.0,0.0,0.0,0.0,0.0,0.0,0.0,0.0,0.0,0.0,0.0,-4.8525,-5.1442,0.0,0.0,0.0,0.0,0.0,0.0,0.0,0.0,-4.5937,0.0,0.0,0.0,0.0,0.0,0.0,0.0,0.0,0.0,0.0,0.0,0.0,0.0,0.0,0.0,0.0,0.0,0.0,0.0,0.0,0.0,0.0,0.0,0.0,0.0,0.0,0.0,0.0,0.0,0.0,0.0,0.0,0.0,0.0,0.0,0.0,0.0,0.0,0.0,0.0,0.0,0.0,0.0,0.0,0.0,0.0,0.0,0.0,0.0,0.0,0.0,0.0,0.0,0.0,0.0,0.0,-5.875,-5.957,-6.25,-6.7695,-6.8008,-6.8086,-6.7969,-6.4648,-6.0742,-5.6445,0.0,0.0,0.0,0.0,0.0,0.0,0.0,0.0,0.0,0.0,0.0,0.0,0.0,0.0,0.0,0.0,0.0,0.0,0.0,0.0,0.0,0.0,0.0,0.0,0.0,0.0,0.0,0.0,0.0,0.0,0.0,0.0,0.0,0.0,0.0,0.0,0.0,0.0,0.0,-5.2087,-5.3135,0.0,0.0,0.0,0.0,0.0,0.0,0.0,0.0,-4.6445,0.0,0.0,0.0,0.0,0.0,0.0,0.0,0.0,0.0,0.0,0.0,0.0,0.0,0.0,0.0,0.0,0.0,0.0,0.0,0.0,0.0,0.0,0.0,0.0,0.0,0.0,0.0,0.0,0.0,0.0,0.0,0.0,0.0,0.0,0.0,0.0,0.0,0.0,0.0,0.0,0.0,0.0,0.0,0.0,0.0,0.0,0.0,0.0,0.0,0.0,0.0,0.0,0.0,0.0,0.0,-5.8906,-6.1562,-6.4883,-6.8984,-6.8515,-6.8203,-6.8086,-6.375,-5.9844,0.0,0.0,0.0,0.0,0.0,0.0,0.0,0.0,0.0,0.0,0.0,0.0,0.0,0.0,0.0,0.0,0.0,0.0,0.0,0.0,0.0,0.0,0.0,0.0,0.0,0.0,0.0,0.0,0.0,0.0,0.0,0.0,0.0,0.0,0.0,0.0,0.0,0.0,0.0,0.0,-5.3302,-5.3896,-5.2148,0.0,0.0,0.0,0.0,0.0,0.0,-4.7305,-4.6953,0.0,0.0,0.0,0.0,0.0,0.0,0.0,0.0,0.0,0.0,0.0,0.0,0.0,0.0,0.0,0.0,0.0,0.0,0.0,0.0,0.0,0.0,0.0,0.0,0.0,0.0,0.0,0.0,0.0,0.0,0.0,0.0,0.0,0.0,0.0,0.0,0.0,0.0,0.0,0.0,0.0,0.0,0.0,0.0,0.0,0.0,0.0,0.0,0.0,0.0,0.0,0.0,0.0,0.0,0.0,-5.8515,-6.2851,-6.6719,-6.9844,-6.8828,-6.8203,-6.8086,-6.3242,-5.9336,0.0,0.0,0.0,0.0,0.0,0.0,0.0,0.0,0.0,0.0,0.0,0.0,0.0,0.0,0.0,0.0,0.0,0.0,0.0,0.0,0.0,0.0,0.0,0.0,0.0,0.0,0.0,0.0,0.0,0.0,0.0,0.0,0.0,0.0,0.0,0.0,0.0,0.0,0.0,0.0,0.0,-5.5088,-5.3487,-5.3144,0.0,0.0,0.0,0.0,-4.8242,-4.8789,0.0,0.0,0.0,0.0,0.0,0.0,0.0,0.0,0.0,0.0,0.0,0.0,0.0,0.0,0.0,0.0,0.0,0.0,0.0,0.0,0.0,0.0,0.0,0.0,0.0,0.0,0.0,0.0,0.0,0.0,0.0,0.0,0.0,0.0,0.0,0.0,0.0,0.0,0.0,0.0,0.0,0.0,0.0,0.0,0.0,0.0,0.0,0.0,0.0,0.0,0.0,0.0,0.0,0.0,0.0,0.0,-5.8398,-6.168,-6.5508,-6.9765,-6.8828,-6.8203,-6.8164,-6.4961,-6.1133,0.0,0.0,0.0,0.0,0.0,0.0,0.0,0.0,0.0,0.0,0.0,0.0,0.0,0.0,0.0,0.0,0.0,0.0,0.0,0.0,0.0,0.0,0.0,0.0,0.0,0.0,0.0,0.0,0.0,0.0,0.0,0.0,0.0,0.0,0.0,0.0,0.0,0.0,0.0,0.0,0.0,-5.6901,-5.3368,-5.2737,-5.2345,0.0,0.0,-5.1367,-5.2461,-5.3945,0.0,0.0,0.0,0.0,0.0,0.0,0.0,0.0,0.0,0.0,0.0,0.0,0.0,0.0,0.0,0.0,0.0,0.0,0.0,0.0,0.0,0.0,0.0,0.0,0.0,0.0,0.0,0.0,0.0,0.0,0.0,0.0,0.0,0.0,0.0,0.0,0.0,0.0,0.0,0.0,0.0,0.0,0.0,0.0,0.0,0.0,0.0,0.0,0.0,0.0,0.0,0.0,0.0,0.0,0.0,-5.4765,-5.8906,-6.3789,-6.7773,-7.0625,-6.957,-6.8789,-6.8555,-6.418,-6.0078,0.0,0.0,0.0,0.0,0.0,0.0,0.0,0.0,0.0,0.0,0.0,0.0,0.0,0.0,0.0,0.0,0.0,0.0,0.0,0.0,0.0,0.0,0.0,0.0,0.0,0.0,0.0,0.0,0.0,0.0,0.0,0.0,0.0,0.0,0.0,0.0,0.0,0.0,0.0,0.0,0.0,0.0,-5.7556,-5.5837,0.0,0.0,0.0,-5.332,-5.3359,0.0,0.0,0.0,0.0,0.0,0.0,0.0,0.0,0.0,0.0,0.0,0.0,0.0,0.0,0.0,0.0,0.0,0.0,0.0,0.0,0.0,0.0,0.0,0.0,0.0,0.0,0.0,0.0,0.0,0.0,0.0,0.0,0.0,0.0,0.0,0.0,0.0,0.0,0.0,0.0,0.0,0.0,0.0,0.0,0.0,0.0,0.0,0.0,0.0,0.0,0.0,0.0,0.0,0.0,0.0,0.0,0.0,-5.9219,-6.5547,-6.9648,-7.125,-7.0117,-6.9258,-6.875,-6.4101,0.0,0.0,0.0,0.0,0.0,0.0,0.0,0.0,0.0,0.0,0.0,0.0,0.0,0.0,0.0,0.0,0.0,0.0,0.0,0.0,0.0,0.0,0.0,0.0,0.0,0.0,0.0,-3.7946,0.0,0.0,0.0,0.0,0.0,0.0,0.0,0.0,0.0,0.0,0.0,0.0,0.0,0.0,-5.9684,-6.1563,-5.9487,-5.768,0.0,0.0,-5.5351,-5.5039,-5.6601,-5.6768,0.0,0.0,0.0,0.0,0.0,0.0,0.0,0.0,0.0,0.0,0.0,0.0,0.0,0.0,0.0,0.0,0.0,0.0,0.0,0.0,0.0,0.0,0.0,0.0,0.0,0.0,0.0,0.0,0.0,0.0,0.0,0.0,0.0,0.0,0.0,0.0,0.0,0.0,0.0,0.0,0.0,0.0,0.0,0.0,0.0,0.0,0.0,0.0,0.0,0.0,0.0,0.0,0.0,0.0,0.0,-5.9258,-6.5547,-6.9648,-7.125,-7.0117,-6.9258,-6.8789,-6.6094,-6.1875,0.0,0.0,0.0,0.0,0.0,0.0,0.0,0.0,0.0,0.0,0.0,0.0,0.0,0.0,0.0,0.0,0.0,0.0,0.0,0.0,0.0,0.0,0.0,0.0,0.0,0.0,0.0,0.0,0.0,0.0,0.0,0.0,0.0,0.0,0.0,0.0,0.0,0.0,0.0,0.0,0.0,-6.482,-6.3666,-6.2989,-6.2923,0.0,0.0,-5.8047,-5.918,-6.1445,-6.0742,-5.3835,0.0,0.0,0.0,0.0,0.0,0.0,0.0,0.0,0.0,0.0,0.0,0.0,0.0,0.0,0.0,0.0,0.0,0.0,0.0,0.0,0.0,0.0,0.0,0.0,0.0,0.0,0.0,0.0,0.0,0.0,0.0,0.0,0.0,0.0,0.0,0.0,0.0,0.0,0.0,0.0,0.0,0.0,0.0,0.0,0.0,0.0,0.0,0.0,0.0,0.0,0.0,0.0,0.0,-5.6172,-5.9219,-6.6055,-7.0312,-7.164,-7.0781,-6.9883,-6.9219,-6.668,-6.25,0.0,0.0,0.0,0.0,0.0,0.0,0.0,0.0,0.0,0.0,0.0,0.0,0.0,0.0,0.0,0.0,0.0,0.0,0.0,0.0,0.0,0.0,0.0,0.0,0.0,0.0,0.0,0.0,-4.2586,-4.4127,-4.6048,0.0,0.0,0.0,0.0,0.0,0.0,0.0,0.0,0.0,0.0,-6.6811,-6.9742,-6.7267,0.0,0.0,-6.2392,-6.0039,-6.0508,-6.0781,-5.9666,-5.6052,-5.4016,0.0,0.0,0.0,0.0,0.0,0.0,0.0,0.0,0.0,0.0,0.0,0.0,0.0,0.0,0.0,0.0,0.0,0.0,0.0,0.0,0.0,0.0,0.0,0.0,0.0,0.0,0.0,0.0,0.0,0.0,0.0,0.0,0.0,0.0,0.0,0.0,0.0,0.0,0.0,0.0,0.0,0.0,0.0,0.0,0.0,0.0,0.0,0.0,0.0,0.0,0.0,0.0,-5.6094,-5.9375,-6.6328,-7.0586,-7.1953,-7.1289,-7.0508,-6.9609,-6.7383,-6.3437,0.0,0.0,0.0,0.0,0.0,0.0,0.0,0.0,0.0,0.0,0.0,0.0,0.0,0.0,0.0,0.0,0.0,0.0,0.0,0.0,0.0,0.0,0.0,0.0,0.0,0.0,0.0,0.0,-4.4251,-4.5027,-4.5357,0.0,0.0,0.0,0.0,0.0,0.0,0.0,0.0,0.0,0.0,-6.9839,-7.4182,-7.0773,-6.7698,-6.7475,-6.3475,-6.039,-6.0664,-6.0078,-5.876,-5.6741,0.0,0.0,0.0,0.0,0.0,0.0,0.0,0.0,0.0,0.0,0.0,0.0,0.0,0.0,0.0,0.0,0.0,0.0,0.0,0.0,0.0,0.0,0.0,0.0,0.0,0.0,0.0,0.0,0.0,0.0,0.0,0.0,0.0,0.0,0.0,0.0,0.0,0.0,0.0,0.0,0.0,0.0,0.0,0.0,0.0,0.0,0.0,0.0,0.0,0.0,0.0,0.0,0.0,0.0,-5.9805,-6.6211,-7.0312,-7.1914,-7.1562,-7.0937,-7.0078,-6.8359,-6.5,-5.9805,0.0,0.0,0.0,0.0,0.0,0.0,0.0,0.0,0.0,0.0,0.0,0.0,0.0,0.0,0.0,0.0,0.0,0.0,0.0,0.0,0.0,0.0,0.0,0.0,0.0,0.0,-4.3047,-4.4943,-4.567,0.0,0.0,0.0,0.0,0.0,0.0,0.0,0.0,0.0,0.0,-7.0154,-7.473,-7.6483,-7.3108,-7.0167,-6.986,-6.3617,-5.8945,-5.9765,-6.0117,-5.9101,0.0,0.0,0.0,0.0,0.0,0.0,0.0,0.0,0.0,0.0,0.0,0.0,0.0,0.0,0.0,0.0,0.0,0.0,0.0,0.0,0.0,0.0,0.0,0.0,0.0,0.0,0.0,0.0,-4.9679,0.0,0.0,0.0,0.0,0.0,0.0,0.0,0.0,0.0,0.0,0.0,-5.3215,-5.4319,0.0,0.0,0.0,0.0,0.0,0.0,0.0,0.0,0.0,0.0,0.0,0.0,-5.664,-6.0312,-6.6601,-7.0547,-7.1953,-7.1601,-7.0976,-7.0117,-6.8984,-6.543,-5.914,0.0,0.0,0.0,0.0,0.0,0.0,0.0,0.0,0.0,0.0,0.0,0.0,0.0,0.0,0.0,0.0,0.0,0.0,0.0,0.0,0.0,0.0,0.0,0.0,0.0,-4.3047,0.0,0.0,0.0,0.0,0.0,0.0,0.0,0.0,0.0,0.0,0.0,-6.3425,-6.7241,-7.161,-7.5126,-7.7134,-7.5725,-7.3716,0.0,0.0,0.0,0.0,0.0,0.0,0.0,0.0,0.0,0.0,0.0,0.0,0.0,0.0,-6.4536,-5.679,-5.4997,-5.5074,-5.6415,0.0,0.0,0.0,0.0,0.0,0.0,0.0,0.0,0.0,0.0,0.0,0.0,0.0,0.0,0.0,0.0,-5.1021,0.0,0.0,0.0,0.0,0.0,0.0,0.0,0.0,-5.582,-5.7138,-5.7352,-5.8525,-5.8398,0.0,-5.5742,-5.293,0.0,0.0,0.0,0.0,0.0,0.0,0.0,0.0,-5.6914,-6.0742,-6.6758,-7.0508,-7.1719,-7.164,-7.1172,-7.0312,-6.875,-6.539,-6.0039,-5.5859,-5.2266,0.0,0.0,0.0,0.0,0.0,0.0,0.0,0.0,0.0,0.0,0.0,0.0,0.0,0.0,0.0,0.0,0.0,0.0,0.0,0.0,0.0,0.0,0.0,-4.3984,0.0,0.0,0.0,0.0,0.0,0.0,0.0,0.0,0.0,-6.0487,-6.3726,-6.7191,-7.1209,-7.3298,-7.5084,-7.7585,0.0,0.0,0.0,0.0,0.0,0.0,0.0,-6.1396,-5.817,-5.8399,-6.0239,-6.4589,-7.0555,-7.4545,-7.3486,0.0,0.0,-6.4464,-6.249,-6.2788,-6.4206,-6.4163,-6.4578,-6.7006,-6.842,-6.9774,0.0,0.0,0.0,0.0,0.0,0.0,0.0,0.0,-5.4897,-5.507,0.0,-5.3398,0.0,0.0,0.0,0.0,0.0,0.0,0.0,0.0,-6.0937,-6.2696,-6.2542,-6.2421,-6.226,0.0,-6.1639,-5.9961,-5.6523,-5.0039,0.0,0.0,0.0,0.0,0.0,0.0,-5.6914,-6.1211,-6.668,-7.0078,-7.1328,-7.1758,-7.1562,-7.0664,-6.7851,-6.5078,-6.25,-5.9531,-5.6211,-5.2383,-4.9805,0.0,0.0,0.0,0.0,0.0,0.0,0.0,0.0,0.0,0.0,0.0,0.0,0.0,0.0,0.0,0.0,0.0,0.0,0.0,0.0,-4.5391,0.0,0.0,0.0,0.0,0.0,0.0,0.0,0.0,0.0,0.0,-6.3369,-6.8018,-7.2364,-7.5477,0.0,0.0,0.0,0.0,-7.157,-7.3134,-7.1003,-6.831,-6.5339,-6.5273,-6.4294,-6.0531,0.0,0.0,-6.8372,-7.4737,-7.9037,-7.7536,-7.8536,-7.8218,-7.3879,-7.2618,-7.2877,-7.3878,-7.3377,-7.3619,-7.5025,-7.5681,-7.6333,-5.1077,0.0,0.0,0.0,0.0,-5.7656,-5.8945,-6.0859,-6.061,-5.9744,-5.8242,-5.6911,0.0,0.0,0.0,0.0,0.0,0.0,-5.6758,-5.9414,-6.1914,-6.3711,-6.5206,-6.5703,-6.5883,-6.5749,-6.4209,-6.293,-6.1484,-5.75,-5.2656,-4.7226,0.0,0.0,0.0,0.0,-5.9258,-6.2969,-6.7226,-7.0078,-7.1367,-7.1484,-7.1289,-7.0703,-6.8398,-6.6211,-6.4258,-6.2187,-5.9297,-5.5469,-5.3437,0.0,0.0,0.0,0.0,0.0,0.0,0.0,0.0,0.0,0.0,0.0,0.0,0.0,0.0,0.0,0.0,0.0,0.0,0.0,-4.3984,-4.4492,-4.4766,0.0,0.0,0.0,0.0,0.0,0.0,0.0,0.0,0.0,-6.8489,-7.0275,-7.1931,0.0,0.0,-7.6276,-7.5581,-7.656,-7.6455,-7.3664,0.0,0.0,0.0,-6.5667,-6.5596,-6.3365,-6.6391,-7.0394,-7.4177,-7.867,-8.2143,-8.3576,-8.4315,-8.4046,-8.1945,-7.8873,-7.7335,-7.7787,-7.8289,-7.9043,-8.0248,-8.1252,-8.1955,-5.2876,-5.2321,-5.4175,-5.7333,-6.1211,-6.1562,-6.2851,-6.4687,-6.45,-6.3677,-6.2265,-6.0937,-5.8515,-5.5312,-5.4219,0.0,0.0,0.0,-5.9375,-6.25,-6.375,-6.543,-6.7167,-6.7851,-6.8047,-6.7969,-6.6367,-6.5351,-6.4922,-6.2617,-5.8555,-5.293,0.0,0.0,-5.2187,-5.6875,-6.0893,-6.3916,-6.7637,-6.9844,-7.0931,-7.0781,-7.0742,-7.043,-6.8867,-6.7383,-6.5976,-6.4297,-6.1992,-5.8984,-5.6601,-5.375,0.0,0.0,0.0,0.0,0.0,0.0,0.0,0.0,0.0,0.0,0.0,-4.375,-4.1719,0.0,0.0,0.0,-4.3516,-4.4883,-4.5898,-4.625,0.0,0.0,0.0,0.0,0.0,0.0,0.0,-5.3823,-5.7842,-6.2629,-6.9223,-7.1315,-7.3628,-7.7727,-7.7812,-7.719,-7.5903,0.0,-7.6623,-7.3898,-7.5267,-7.452,-6.8455,-6.8243,-6.8236,-6.616,-6.9472,-7.373,-7.7217,-8.0805,-8.4172,-8.6616,-8.7429,-8.7077,-8.5973,-8.3562,-8.1805,-8.2005,-8.2357,-8.306,-8.4366,-8.5019,-8.537,-5.562,-5.1844,-5.5596,-5.9721,-6.4159,-6.5508,-6.6094,-6.6562,-6.6965,-6.6733,-6.625,-6.5073,-6.3026,-6.0547,-5.8555,0.0,0.0,-6.1055,-6.2969,-6.5703,-6.6211,-6.7187,-6.8892,-6.8789,-6.8789,-6.8931,-6.7969,-6.7422,-6.6953,-6.5703,-6.3437,-6.0273,-5.7031,-5.5703,-5.6289,-5.914,-6.1948,-6.4433,-6.7734,-6.9414,-7.0174,-7.0225,-7.0078,-7.0039,-6.9219,-6.8359,-6.7461,-6.5859,-6.4219,-6.25,-5.9336,-5.6406,-5.3789,0.0,0.0,0.0,0.0,0.0,0.0,0.0,0.0,0.0,0.0,0.0,0.0,0.0,0.0,0.0,-4.6445,0.0,-4.9492,-4.9757,0.0,0.0,0.0,-4.9052,-4.9531,-5.1758,-5.3867,-5.5508,0.0,0.0,-6.7267,0.0,-7.6916,-8.3313,-8.0515,-7.779,-7.7823,-7.6177,-7.4386,-7.3911,-7.4385,-7.418,-7.1371,-7.1166,-7.0747,-6.8521,-7.1047,-7.4466,-7.7906,-8.1201,-8.48,-8.8073,-8.8484,-8.8132,-8.7077,-8.6625,-8.6625,-8.6023,-8.5521,-8.5621,-8.6977,-8.6977,-8.6776,-5.5059,-5.3725,-5.4832,-5.8286,-6.3307,-6.6746,-6.8281,-6.8711,-6.8762,-6.7984,-6.668,-6.5688,-6.417,-6.2383,-6.1875,-6.2226,-6.3281,-6.414,-6.5234,-6.6601,-6.7695,-6.8398,-6.8789,-6.914,-6.9297,-6.9219,-6.875,-6.8437,-6.8281,-6.7031,-6.5664,-6.4219,-6.2734,-6.0664,-5.8125,-6.0898,-6.3481,-6.5821,-6.7167,-6.8633,-6.9922,-7.0039,-6.9961,-6.9609,-6.8789,-6.793,-6.7031,-6.6015,-6.4805,-6.3398,-6.164,-5.9453,-5.6875,-5.2226,0.0,0.0,0.0,0.0,0.0,0.0,0.0,0.0,0.0,-4.6445,-4.2851,0.0,-4.5859,0.0,-4.75,-4.9101,-5.0351,-5.2186,0.0,0.0,-5.4552,-5.5393,-5.5678,-5.6875,-5.8047,-5.9101,-6.168,-6.4951,-6.9275,-7.335,-7.7876,-8.2314,-8.2522,-8.0904,-7.841,-7.833,-7.7418,-7.3908,-7.3611,-7.2956,-7.0657,-6.9905,-6.9985,-6.9101,-6.9962,-7.2509,-7.819,-8.0009,-8.2299,-8.759,-8.8735,-8.8383,-8.8082,-8.7379,-8.6977,-8.7077,-8.6475,-8.6174,-8.7329,-8.7178,-8.6927,-5.7739,-5.4729,-5.5819,-5.7468,-5.9192,-6.4872,-6.7304,-6.7797,-6.9205,-6.9258,-6.793,-6.6914,-6.582,-6.4765,-6.4922,-6.5195,-6.5508,-6.6367,-6.7109,-6.7773,-6.8476,-6.9023,-6.9375,-6.9609,-6.9726,-6.9726,-6.9492,-6.9101,-6.8515,-6.7812,-6.6914,-6.5859,-6.5586,-6.418,-6.1836,-6.3164,-6.4657,-6.617,-6.7402,-6.8594,-6.9726,-6.9805,-6.9414,-6.8633,-6.8125,-6.7109,-6.5508,-6.4609,-6.3672,-6.2578,-6.1094,-5.9375,-5.7344,-5.3672,-5.0664,0.0,0.0,0.0,0.0,0.0,0.0,0.0,0.0,0.0,0.0,0.0,-4.7461,-4.8242,-4.9883,-5.1562,-5.3242,-5.4845,-5.6173,-5.6658,-5.7851,-5.8626,-5.9011,-5.9765,-6.0781,-6.2031,-6.3594,-6.5775,-6.8656,-7.2346,-7.6396,-8.028,-8.2123,-8.2386,-8.0556,-7.9699,-7.8064,-7.3957,-7.2527,-7.1398,-6.9676,-6.9453,-6.9453,-6.9453,-6.9453,-7.1202,-7.6157,-7.8367,-8.1035,-8.57,-8.7659,-8.8383,-8.8082,-8.763,-8.7329,-8.768,-8.7329,-8.7077,-8.778,-8.7529,-8.7278,-6.1874,-5.5557,-5.7757,-5.6822,-5.4532,-6.0952,-6.4258,-6.535,-6.8479,-6.9664,-6.9297,-6.8164,-6.7422,-6.707,-6.7422,-6.7383,-6.7109,-6.789,-6.8476,-6.8828,-6.8867,-6.9297,-7.0,-7.0,-7.0,-7.0,-7.0,-6.9414,-6.8359,-6.8242,-6.7578,-6.6445,-6.664,-6.6367,-6.5625,-6.5273,-6.5559,-6.6446,-6.7912,-6.8867,-6.9336,-6.9297,-6.8672,-6.7422,-6.7226,-6.6015,-6.3633,-6.2734,-6.1914,-6.1094,-5.9648,-5.8359,-5.7187,-5.4922,-5.2578,0.0,-4.8672,0.0,0.0,0.0,0.0,0.0,0.0,0.0,0.0,-4.9609,-5.0039,-5.1523,-5.3164,-5.4961,-5.6836,-5.8249,-5.9115,-5.9492,-6.0718,-6.142,-6.1207,-6.1991,-6.3326,-6.4375,-6.4922,-6.5781,-6.7441,-7.0415,-7.4148,-7.8129,-8.133,-8.3223,-8.3414,-8.123,-7.8308,-7.4551,-7.1438,-6.9637,-6.9453,-6.9453,-6.9453,-6.9453,-6.9453,-7.0681,-7.3914,-7.7369,-8.0455,-8.3275,-8.6347,-8.8333,-8.7881,-8.773,-8.778,-8.8283,-8.7931,-8.773,-8.8182,-8.7931,-8.778,-6.3756,-5.8964,-5.6288,-5.5028,-5.4278,-5.5382,-5.9398,-6.4681,-6.555,-6.7263,-6.8945,-6.8672,-6.832,-6.7969,-6.8008,-6.8008,-6.7969,-6.8476,-6.875,-6.8828,-6.918,-6.9414,-6.957,-6.957,-6.957,-6.957,-6.957,-6.9453,-6.918,-6.8515,-6.7851,-6.7265,-6.664,-6.6094,0.0,0.0,0.0,0.0,-6.8382,-6.875,-6.8906,-6.8594,-6.7812,-6.6484,-6.5781,0.0,-6.2734,-6.2109,-6.1601,-6.1094,-6.0781,0.0,0.0,0.0,0.0,0.0,0.0,0.0,0.0,0.0,0.0,0.0,-5.4531,-5.3476,-5.2305,-5.4492,-5.6015,-5.6055,-5.7578,-5.875,-5.918,-6.2455,-6.3843,-6.2184,-6.7058,-6.9101,-6.4989,-6.6915,-6.8374,-6.603,-6.6211,-6.6719,-6.7559,-7.0415,-7.3901,-7.7929,-8.1509,-8.4557,-8.7392,-8.4701,-8.0532,-7.5186,-7.164,-6.9453,-6.9453,-6.9453,-6.9453,-6.9453,-6.9453,-7.0681,-7.3658,-7.7119,-8.0346,-8.3413,-8.6543,-8.8584,-8.8835,-8.8232,-8.7831,-8.8383,-8.8032,-8.778,-8.8333,-8.7981,-8.763,-6.6932,0.0,-5.9029,-5.6066,0.0,0.0,-5.7107,-6.2333,-6.4009,-6.6348,-6.914,-6.914,-6.8906,-6.8515,-6.8711,-6.8711,-6.8515,-6.8945,-6.914,-6.914,-6.9336,-6.957,-6.9765,-6.9765,-6.9765,-6.9765,-6.9765,-6.9531,-6.914,-6.8711,-6.8164,-6.75,-6.707,-6.6758,-6.6562,-6.7187,-6.7617,-6.7851,-6.8437,-6.8984,-6.9414,-6.9258,-6.8398,-6.6914,0.0,0.0,0.0,0.0,0.0,0.0,0.0,0.0,0.0,0.0,0.0,-5.625,-5.5039,-5.4492,-5.4922,-5.5547,-5.6719,-5.8633,-5.9609,-5.8906,-5.6133,-5.789,-5.9297,-5.9726,-6.0586,-6.1445,-6.2265,-6.4311,-6.5108,-6.4388,-6.7312,-6.8284,-6.5972,-6.7067,-6.7634,-6.6671,-6.6406,-6.6719,-6.7109,-6.8665,-7.1415,-7.5406,-7.8771,-8.2467,-8.5846,-8.5086,-8.1582,-7.5609,-7.3187,-7.1162,-6.9676,-6.9453,-6.9453,-6.9453,-6.9453,-7.0199,-7.168,-7.6157,-8.01,-8.1813,-8.5561,-8.8986,-8.9136,-8.8785,-8.8534,-8.8785,-8.8634,-8.8383,-8.8484,-8.8232,-8.8032,-7.0545,-6.6968,-6.2953,-5.9724,-5.6629,-5.5167,-5.6635,-5.9907,0.0,0.0,0.0,-6.9492,-6.9258,-6.8945,-6.9297,-6.9258,-6.8945,-6.9297,-6.9492,-6.957,-6.957,-6.9765,-7.0078,-7.0078,-7.0039,-7.0,-6.9961,-6.9609,-6.8945,-6.8867,-6.8437,-6.7773,-6.7656,-6.7656,-6.7773,-6.8437,-6.8672,-6.8437,-6.8672,-6.918,-6.9961,-6.9922,-6.9101,-6.7539,-6.6601,-6.4609,-6.1562,-6.0351,-5.918,-5.7969,-5.7969,-5.8008,-5.8047,-5.8633,-5.9023,-5.9101,-5.9492,-5.9805,-5.9961,-6.0703,-6.125,-6.1562,-6.3594,-6.3594,-6.0547,-6.1015,-6.1914,-6.2969,-6.3047,-6.3594,-6.4922,-6.5195,-6.539,-6.5664,-6.6238,-6.6525,-6.6069,-6.6525,-6.6971,-6.65,-6.6367,-6.6484,-6.6836,-6.6875,-6.8373,-7.258,-7.6217,-7.9982,-8.3798,-8.4801,-8.2542,-7.7869,-7.6157,-7.4169,-7.1162,-7.0421,-7.0199,-6.9453,-6.9453,-6.9453,-7.046,-7.4891,-7.8864,-7.9607,-8.4801,-8.8589,-8.9387,-8.9337,-8.9387,-8.9538,-8.9387,-8.9187,-8.8835,-8.8684,-8.8534,-7.2965,-7.144,-6.7648,-6.5616,-6.4736,-5.7863,-5.6977,-6.0519,-6.6523,-6.9509,-6.9961,-6.9609,-6.9414,-6.9375,-6.9414,-6.9414,-6.9375,-6.9414,-6.9648,0.0,-7.0,-7.0039,-7.0078,-7.0078,-6.9883,-6.9531,-6.9531,-6.9453,-6.9336,-6.8984,-6.875,-6.8594,-6.8281,-6.8242,-6.8594,-6.875,-6.8945,-6.9258,-6.8984,-6.9062,-6.9531,-6.918,-6.8515,-6.75,-6.6367,-6.4765,-6.2851,-6.2226,-6.1484,-6.0625,-6.0898,-6.1094,-6.1055,-6.0859,-6.0898,-6.125,-6.168,-6.2265,-6.2969,-6.3515,-6.4414,-6.582,-6.664,-6.6367,-6.4883,-6.5117,-6.5469,-6.5664,-6.5625,-6.5586,-6.5586,-6.6172,-6.6445,-6.6422,-6.8859,-6.9805,-6.7143,-6.8813,-6.9557,-6.6971,-6.6797,-6.6758,-6.6836,-6.6875,-6.8373,-7.2288,-7.5726,-8.0464,-8.5652,-8.604,-8.4323,-8.283,-8.0346,-7.7619,-7.4637,-7.3658,-7.2673,-6.9676,-6.9676,-6.9676,-6.9453,-7.4637,-7.8864,-7.9359,-8.4562,-8.8688,-8.9789,-8.9588,-8.9689,-9.0241,-8.9839,-8.9438,-8.9689,-8.9438,-8.8885,-7.122,-7.2184,-6.8853,-6.7242,-6.6924,-6.3075,-6.2135,-6.3722,-6.8511,-7.0508,-7.0078,-6.9883,-6.9648,-6.9453,-6.9453,-6.9453,-6.9453,-6.9453,-6.9687,-7.0078,-7.0078,-7.0234,-7.039,-7.0195,-7.0,-6.9805,-6.9531,-6.9336,-6.9101,-6.8906,-6.8594,-6.8125,-6.8164,-6.8398,-6.8789,-6.9023,-6.9258,-6.9453,-6.9258,-6.9492,-7.0117,-6.9961,-6.9648,-6.9258,-6.8203,-6.6992,-6.5508,-6.4609,-6.3711,-6.289,-6.3008,-6.3008,-6.2812,-6.3047,-6.3242,-6.3476,-6.3867,-6.4297,-6.4687,-6.5117,-6.5976,-6.7422,-6.7773,-6.7851,-6.7695,-6.7422,-6.7265,-6.7305,-6.7305,-6.7109,-6.668,-6.6992,-6.7031,-6.6601,-6.8186,-6.8556,-6.734,-6.8055,-6.8556,-6.7127,-6.6875,-6.6875,-6.6875,-6.6875,-6.7576,-7.0156,-7.4738,-8.0315,-8.5215,-8.6445,-8.5985,-8.4515,-8.3072,-8.0836,-7.7869,-7.7119,-7.5651,-7.2673,-7.2157,-7.1421,-7.0199,-7.3658,-7.6868,-7.9359,-8.3555,-8.7132,-8.9172,-8.9739,-8.9839,-8.9789,-8.999,-8.989,-8.999,-8.989,-8.9337,-6.9297,-7.127,-6.9822,-6.7813,-6.6183,-6.6744,-6.6385,-6.5433,-6.8804,-7.0248,-7.043,-7.0195,-6.9844,-6.9453,-6.9453,-6.9453,-6.9453,-6.9531,-6.9805,-7.0234,-7.0351,-7.0547,-7.082,-7.0508,-7.0273,-7.0078,-6.9726,-6.9375,-6.8984,-6.8867,-6.8437,-6.7773,-6.8125,-6.8476,-6.8828,-6.9219,-6.9453,-6.9453,-6.9531,-6.9961,-7.0664,-7.082,-7.0859,-7.082,-7.0117,-6.9219,-6.8125,-6.7031,-6.6094,-6.539,-6.5234,-6.5039,-6.4765,-6.5195,-6.5547,-6.5664,-6.5976,-6.6172,-6.6211,-6.6484,-6.7148,-6.8203,-6.832,-6.8711,-6.9414,-6.8906,-6.8437,-6.8359,-6.8203,-6.8008,-6.7656,-6.7539,-6.7344,-6.7031,-6.6914,-6.7127,-6.6875,-6.6875,-6.6875,-6.6875,-6.6875,-6.6875,-6.6875,-6.6875,-6.7537,-6.945,-7.4491,-7.9453,-8.266,-8.6138,-8.7145,-8.5985,-8.5134,-8.3941,-8.1035,-8.0591,-7.9112,-7.6157,-7.4637,-7.3145,-7.1939,-7.293,-7.5651,-7.8864,-8.2103,-8.5661,-8.8738,-8.9639,-8.989,-8.999,-8.999,-8.9839,-8.9839,-8.999,-8.9839,-6.861,-6.9174,-7.1829,-6.8807,-6.2709,-6.5511,-6.4983,-6.2067,-6.5119,-6.8567,-7.1172,-7.043,-6.9883,-6.9492,-6.9453,-6.9492,-6.9492,-6.9844,-7.0273,-7.0664,-7.1055,-7.1289,-7.1289,-7.125,-7.0859,-7.0195,-7.0039,-6.9765,-6.9336,-6.8984,-6.8594,-6.8203,-6.8555,-6.8789,-6.8867,-6.9258,-6.9453,-6.9453,-6.9844,-7.0234,-7.0703,-7.1094,-7.1328,-7.1289,-7.0859,-7.039,-6.9844,-6.9375,-6.8867,-6.8437,-6.8008,-6.7812,-6.7734,-6.7461,-6.7422,-6.7812,-6.789,-6.7969,-6.793,-6.7969,-6.8164,-6.8672,-6.875,-6.9101,-6.9883,-6.9609,-6.918,-6.8828,-6.8437,-6.8242,-6.8086,-6.7773,-6.7539,-6.7461,-6.7148,-6.6875,-6.6914,-6.6875,-6.6875,-6.6875,-6.6875,-6.6875,-6.6875,-6.6875,-6.8254,-7.0583,-7.493,-7.8894,-8.2046,-8.5808,-8.8433,-8.8023,-8.8073,-8.6826,-8.4419,-8.3842,-8.2346,-7.9607,-7.6409,-7.4679,-7.3914,-7.3658,-7.5398,-7.8864,-8.1569,-8.4945,-8.8418,-8.9789,-8.994,-9.0492,-9.0141,-8.9438,-8.9438,-8.9789,-8.994,-6.276,-6.4605,-6.9109,-6.8569,-6.5581,-6.6678,-6.6039,-6.4316,-6.5469,-6.8368,-7.1097,-7.0976,-7.0469,-6.9844,-7.0078,-7.0078,-6.9883,-7.0273,-7.0703,-7.1094,-7.1289,-7.1523,-7.1719,-7.1484,-7.1172,-7.082,-7.0351,-6.9883,-6.9414,-6.8789,-6.8476,-6.8594,-6.875,-6.8945,-6.918,-6.9336,-6.9453,-6.9453,-7.0117,-7.0547,-7.0742,-7.1133,-7.1484,-7.168,-7.1562,-7.1406,-7.1211,-7.082,-7.0508,-7.0312,-6.9922,-6.957,-6.9336,-6.914,-6.8984,-6.8945,-6.8672,-6.8672,-6.8906,-6.8476,-6.8476,-6.914,-6.918,-6.9453,-7.0039,-7.0156,-7.0039,-6.9609,-6.918,-6.8828,-6.8594,-6.8359,-6.8164,-6.793,-6.7734,-6.7617,-6.7656,-6.7383,-6.7226,-6.7226,-6.7031,-6.6875,-6.6875,-6.6875,-6.7537,-7.0082,-7.3977,-7.796,-7.9681,-8.4439,-8.7853,-8.8383,-8.8484,-8.8222,-8.717,-8.7269,-8.5802,-8.283,-7.9607,-7.7119,-7.4637,-7.2415,-7.3187,-7.8367,-8.0836,-8.389,-8.8738,-8.9556,-8.999,-9.0442,-9.0442,-8.9789,-8.9789,-8.994,-9.009,-5.8113,-6.0973,-6.6277,-6.7536,-6.6041,-6.7104,-6.6953,-6.6376,-6.6304,-6.8405,-7.1292,-7.1523,-7.1133,-7.0547,-7.0664,-7.0547,-7.0351,-7.0703,-7.1055,-7.1367,-7.1484,-7.1719,-7.1953,-7.1719,-7.1484,-7.125,-7.0625,-6.9922,-6.9297,-6.8711,-6.8476,-6.8633,-6.875,-6.8945,-6.9258,-6.9453,-6.9609,-6.9687,-7.0469,-7.0898,-7.0976,-7.1328,-7.168,-7.1953,-7.1992,-7.1992,-7.1992,-7.1836,-7.1719,-7.1719,-7.1328,-7.0937,-7.0625,-7.039,-7.0117,-6.9805,-6.9492,-6.9453,-6.9765,-6.9219,-6.914,-6.9687,-6.9805,-7.0,-7.0351,-7.0625,-7.0586,-7.0273,-6.9883,-6.9453,-6.9062,-6.8867,-6.8672,-6.8398,-6.8281,-6.8203,-6.8164,-6.7773,-6.7461,-6.7461,-6.7226,-6.7031,-6.7031,-6.6953,-6.7245,-6.7948,-7.2241,-7.6441,-7.7734,-8.2563,-8.6832,-8.8153,-8.8584,-8.8835,-8.9187,-8.9055,-8.8022,-8.604,-8.283,-7.9607,-7.6617,-7.3658,-7.2673,-7.9112,-7.9853,-8.2346,-8.7887,-8.9639,-8.9839,-8.9588,-8.9689,-8.994,-8.9739,-8.994,-8.999,-5.6894,-5.8297,-6.5052,-6.5857,-6.2286,-6.5688,-6.6701,-6.6618,-6.6304,-6.8279,-7.1642,-7.1953,-7.1719,-7.125,-7.0937,-7.0742,-7.0781,-7.1133,-7.1406,-7.1484,-7.1797,-7.1953,-7.1992,-7.1953,-7.1758,-7.1406,-7.0937,-7.0117,-6.9023,-6.8828,-6.8594,-6.832,-6.8672,-6.8867,-6.9023,-6.9687,-7.0039,-7.0156,-7.0859,-7.1328,-7.1367,-7.1758,-7.1953,-7.2031,-7.1992,-7.1992,-7.207,-7.2422,-7.2617,-7.2617,-7.2148,-7.1914,-7.1836,-7.1133,-7.0703,-7.0664,-7.0625,-7.0625,-7.0664,-7.0547,-7.0547,-7.0625,-7.0625,-7.082,-7.1133,-7.0976,-7.082,-7.0703,-7.0351,-6.9922,-6.9453,-6.9101,-6.8906,-6.8828,-6.8476,-6.8281,-6.8281,-6.793,-6.7539,-6.7539,-6.7539,-6.7461,-6.7461,-6.7109,-6.6992,-6.7576,-7.046,-7.3848,-7.7433,-8.119,-8.4883,-8.7841,-8.8885,-8.9237,-8.9287,-8.9287,-8.9287,-8.7788,-8.5279,-8.283,-8.0836,-7.9112,-7.9112,-7.9853,-8.1859,-8.4562,-8.7788,-8.9337,-8.9387,-8.9387,-8.9689,-8.9839,-8.9588,-8.9839,-8.989,-5.4546,-5.7164,-6.2143,-6.4673,-6.5472,-6.6499,-6.8095,-6.9729,-6.745,-6.8591,-7.1447,-7.1992,-7.1914,-7.1758,-7.1601,-7.1523,-7.1562,-7.1719,-7.1914,-7.2148,-7.207,-7.1992,-7.1992,-7.1992,-7.1914,-7.1719,-7.1328,-7.0781,-7.0039,-6.9492,-6.9297,-6.9375,-6.9258,-6.9336,-6.9648,-6.9922,-7.0234,-7.0508,-7.1094,-7.1367,-7.1445,-7.1797,-7.2148,-7.2422,-7.2148,-7.2148,-7.2422,-7.2305,-7.25,-7.3047,-7.2695,-7.2422,-7.2383,-7.1875,-7.168,-7.1875,-7.1445,-7.125,-7.1445,-7.1015,-7.0859,-7.1094,-7.1133,-7.1211,-7.1367,-7.1445,-7.1445,-7.1172,-7.1015,-7.0625,-6.9961,-6.9453,-6.9336,-6.9531,-6.9258,-6.9101,-6.9219,-6.8789,-6.832,-6.8281,-6.8125,-6.793,-6.7851,-6.7539,-6.7383,-6.7872,-7.0286,-7.3611,-7.7484,-8.137,-8.4653,-8.7908,-8.9136,-8.9287,-8.9287,-8.9287,-8.9055,-8.8305,-8.6562,-8.4562,-8.2588,-8.0836,-8.0346,-8.1813,-8.3842,-8.5516,-8.8489,-8.9187,-8.9187,-8.9237,-8.9538,-8.9588,-8.9337,-8.9588,-8.9538,-5.2452,-5.5247,-5.8753,-6.2163,-6.5262,-6.632,-6.8852,-7.1447,-6.9142,-6.9729,-7.172,-7.1992,-7.1992,-7.172,-7.0863,-7.0978,-7.2187,-7.207,-7.2148,-7.2422,-7.2148,-7.1992,-7.1992,-7.1992,-7.1992,-7.1914,-7.1562,-7.1133,-7.0703,-7.0156,-7.0039,-7.0234,-7.0,-7.0,-7.0273,-7.043,-7.0664,-7.0976,-7.1367,-7.164,-7.1797,-7.207,-7.2422,-7.2773,-7.2578,-7.2578,-7.289,-7.2734,-7.289,-7.3398,-7.3242,-7.3047,-7.289,-7.2617,-7.25,-7.2617,-7.2148,-7.1836,-7.1914,-7.1445,-7.1328,-7.1758,-7.1797,-7.1797,-7.1797,-7.207,-7.1914,-7.1562,-7.1367,-7.1055,-7.0469,-7.0039,-6.9883,-6.9922,-6.9844,-6.9844,-6.9844,-6.9375,-6.8984,-6.875,-6.8398,-6.8242,-6.832,-6.7969,-6.789,-6.8164,-6.9932,-7.2621,-7.6496,-7.9999,-8.3417,-8.6984,-8.8539,-8.9055,-8.9287,-8.9287,-8.9287,-8.8539,-8.8305,-8.6325,-8.4562,-8.283,-8.2588,-8.4035,-8.5516,-8.6935,-8.7873,-8.8804,-8.9036,-8.9086,-8.9237,-8.9387,-8.9287,-8.9287,-8.9287,-5.0849,-5.1463,-5.4339,-5.8359,-6.1786,-6.5123,-6.8591,-7.1486,-7.172,-7.172,-7.207,-7.2031,-7.2031,-7.1408,-6.8942,-6.9129,-7.1561,-7.1875,-7.2031,-7.2109,-7.2031,-7.1992,-7.1992,-7.1992,-7.1992,-7.1992,-7.1562,-7.1172,-7.0859,-7.0664,-7.0625,-7.0703,-7.0664,-7.0625,-7.0742,-7.1055,-7.1328,-7.1445,-7.1797,-7.2187,-7.2617,-7.2656,-7.289,-7.3281,-7.3281,-7.332,-7.3359,-7.3672,-7.3828,-7.3945,-7.3945,-7.375,-7.3437,-7.3242,-7.3125,-7.2851,-7.2695,-7.2461,-7.2109,-7.2031,-7.2187,-7.2461,-7.2656,-7.2617,-7.2617,-7.2656,-7.2383,-7.1797,-7.1523,-7.125,-7.0898,-7.0742,-7.0469,-6.9726,-7.0195,-7.0273,-6.9805,-6.9531,-6.9297,-6.8945,-6.8594,-6.8437,-6.8594,-6.8437,-6.8461,-6.8975,-6.9133,-7.0576,-7.4215,-7.7677,-8.0745,-8.4083,-8.7318,-8.9287,-8.9287,-8.9287,-8.9287,-8.9287,-8.9055,-8.8022,-8.6798,-8.5327,-8.5327,-8.6562,-8.7034,-8.8489,-8.829,-8.8986,-8.8885,-8.8935,-8.9086,-8.9287,-8.9287,-8.9287,-8.9287,-5.0662,-5.1133,-5.4107,-5.7559,-6.1433,-6.4807,-6.8741,-7.2148,-7.2148,-7.2187,-7.2422,-7.2461,-7.2305,-7.1837,-7.0896,-6.9794,-6.8501,-7.0628,-7.2148,-7.2383,-7.2148,-7.1992,-7.1992,-7.1992,-7.1992,-7.1914,-7.1562,-7.1445,-7.1484,-7.1015,-7.0859,-7.1055,-7.0859,-7.0898,-7.1172,-7.1328,-7.1484,-7.1836,-7.2226,-7.2539,-7.2734,-7.2969,-7.332,-7.3711,-7.375,-7.3906,-7.418,-7.4062,-7.4101,-7.4375,-7.4375,-7.4336,-7.414,-7.3633,-7.3398,-7.3515,-7.3281,-7.293,-7.2578,-7.2734,-7.2812,-7.2812,-7.2969,-7.3086,-7.3125,-7.3125,-7.3008,-7.2656,-7.2461,-7.2109,-7.1719,-7.1601,-7.1289,-7.082,-7.0742,-7.0781,-7.0664,-7.0469,-7.0,-6.9453,-6.9375,-7.0302,-7.1155,-7.0616,-6.9766,-7.1231,-7.0079,-6.9983,-7.3205,-7.6596,-8.0227,-8.3701,-8.6749,-8.9055,-8.9287,-8.9287,-8.9287,-8.9287,-8.9287,-8.9287,-8.8305,-8.7788,-8.8022,-8.8206,-8.8722,-8.8904,-8.8986,-8.8835,-8.8684,-8.8885,-8.9187,-8.9237,-8.9287,-8.9287,-8.9287,-5.0475,-5.0508,-5.2456,-5.5459,-5.917,-6.2938,-6.6773,-7.0524,-7.2029,-7.2656,-7.289,-7.293,-7.2773,-7.2304,-7.1356,-7.0171,-6.9039,-7.0032,-7.0972,-7.2342,-7.2422,-7.2187,-7.2031,-7.1992,-7.1992,-7.1953,-7.1719,-7.1719,-7.1953,-7.1484,-7.1328,-7.1484,-7.1328,-7.1328,-7.1562,-7.1601,-7.1758,-7.2031,-7.2461,-7.2773,-7.2969,-7.3359,-7.375,-7.414,-7.4219,-7.4336,-7.457,-7.4492,-7.4492,-7.457,-7.457,-7.457,-7.4531,-7.4101,-7.3867,-7.3867,-7.3711,-7.3359,-7.3008,-7.3125,-7.3398,-7.3398,-7.3633,-7.3789,-7.3789,-7.3789,-7.3711,-7.332,-7.293,-7.2578,-7.2305,-7.207,-7.1875,-7.164,-7.1367,-7.125,-7.1328,-7.0976,-7.0469,-6.9922,-6.9883,-7.1442,-7.2509,-7.2733,-7.214,-7.4088,-7.245,-7.0792,-7.3795,-7.5555,-7.871,-8.1917,-8.4754,-8.7034,-8.9005,-8.9287,-8.9287,-8.9287,-8.9287,-8.9287,-8.8772,-8.8772,-8.8772,-8.8522,-8.8935,-8.8684,-8.8534,-8.8433,-8.8333,-8.8735,-8.9187,-8.9237,-8.9287,-8.9287,-8.9287,-5.0261,-4.978,-4.9753,-5.2371,-5.6073,-6.0066,-6.402,-6.7777,-7.1499,-7.3242,-7.332,-7.332,-7.3281,-7.241,-7.0382,-7.0102,-7.1777,-6.969,-6.9541,-7.1632,-7.2459,-7.2578,-7.207,-7.1992,-7.1992,-7.1992,-7.1953,-7.1992,-7.1992,-7.1914,-7.1992,-7.1914,-7.1875,-7.1953,-7.1953,-7.1992,-7.207,-7.2148,-7.2578,-7.3047,-7.3359,-7.3789,-7.418,-7.4531,-7.4531,-7.457,-7.4609,-7.4883,-7.5,-7.4726,-7.4726,-7.4726,-7.4687,-7.4648,-7.4531,-7.4258,-7.4101,-7.3867,-7.3555,-7.3672,-7.3867,-7.4336,-7.4531,-7.4648,-7.4648,-7.4648,-7.4375,-7.3711,-7.3242,-7.289,-7.2773,-7.2422,-7.2187,-7.207,-7.1953,-7.1758,-7.1445,-7.1094,-7.0703,-7.0273,-7.0382,-7.1199,-7.4039,-7.4169,-7.5523,-7.7107,-7.5848,-7.4845,-7.4721,-7.6184,-7.6478,-7.9628,-8.413,-8.6137,-8.8638,-8.9538,-8.9538,-8.9287,-8.9287,-8.9287,-8.9287,-8.9287,-8.9287,-8.9036,-8.8735,-8.8433,-8.8333,-8.8433,-8.8484,-8.8785,-8.9036,-8.9187,-8.9237,-8.9237,-8.9086,-5.0501,-5.0341,-5.0127,-5.2058,-5.6112,-5.9843,-6.4112,-6.8139,-7.1816,-7.3398,-7.3711,-7.3711,-7.3555,-7.3082,-7.2517,-7.1282,-7.0177,-7.0903,-7.0232,-6.971,-7.2325,-7.2969,-7.2187,-7.1992,-7.2031,-7.2031,-7.2031,-7.1992,-7.1992,-7.2031,-7.2031,-7.1992,-7.2031,-7.2031,-7.2031,-7.2344,-7.25,-7.2617,-7.3281,-7.3633,-7.3828,-7.4219,-7.4453,-7.457,-7.4609,-7.4609,-7.4648,-7.5,-7.5351,-7.5508,-7.5195,-7.5234,-7.5469,-7.5508,-7.543,-7.539,-7.5273,-7.5,-7.457,-7.4805,-7.5,-7.4687,-7.5234,-7.5547,-7.5547,-7.5547,-7.5273,-7.4765,-7.4336,-7.3945,-7.3633,-7.3203,-7.2969,-7.289,-7.2422,-7.1992,-7.1836,-7.1719,-7.1406,-7.0742,-7.0547,-7.2084,-7.394,-7.506,-7.5776,-7.8216,-7.8285,-7.7457,-7.7677,-7.664,-7.7094,-8.1035,-8.4801,-8.6757,-8.8319,-8.9271,-8.9739,-8.9387,-8.9287,-8.9287,-8.9287,-8.9287,-8.9287,-8.9187,-8.8935,-8.8684,-8.8835,-8.9036,-8.9036,-8.8835,-8.9086,-8.9287,-8.9136,-8.9036,-8.8735,-5.0528,-5.0394,-5.0234,-5.1382,-5.4397,-5.9644,-6.3622,-6.6495,-7.1509,-7.3867,-7.418,-7.418,-7.4023,-7.3906,-7.4101,-7.294,-7.119,-7.2796,-7.2401,-7.1244,-7.2758,-7.3242,-7.2695,-7.2539,-7.2461,-7.2305,-7.2305,-7.2383,-7.25,-7.2383,-7.2383,-7.25,-7.2383,-7.2383,-7.2578,-7.2578,-7.2812,-7.3047,-7.3633,-7.4023,-7.4258,-7.4648,-7.4844,-7.4844,-7.4844,-7.4844,-7.4883,-7.5117,-7.5351,-7.5547,-7.5664,-7.5859,-7.6094,-7.6133,-7.6211,-7.6367,-7.6094,-7.5664,-7.5586,-7.5898,-7.5976,-7.582,-7.6211,-7.6367,-7.6367,-7.625,-7.5937,-7.5508,-7.4961,-7.4531,-7.4219,-7.3672,-7.3437,-7.3437,-7.2812,-7.2305,-7.2265,-7.2109,-7.1601,-7.1015,-7.0931,-7.1716,-7.4456,-7.5568,-7.7781,-8.0227,-8.1259,-8.1017,-8.0912,-7.9022,-7.8867,-8.3119,-8.451,-8.552,-8.7997,-8.9656,-8.9739,-8.9438,-8.9287,-8.9287,-8.9287,-8.9287,-8.9237,-8.9237,-8.9086,-8.8986,-8.9036,-8.9086,-8.9036,-8.8986,-8.9187,-8.9086,-8.8885,-8.8584,-8.8333,-5.0475,-5.0234,-5.0234,-5.0394,-5.2094,-5.8582,-6.172,-6.3678,-6.954,-7.2889,-7.2911,-7.3762,-7.344,-7.4122,-7.4122,-7.4687,-7.4405,-7.3977,-7.4062,-7.3627,-7.3789,-7.3476,-7.332,-7.3164,-7.3008,-7.2773,-7.2773,-7.293,-7.3047,-7.2851,-7.293,-7.3047,-7.289,-7.2969,-7.3125,-7.3047,-7.3125,-7.3515,-7.4101,-7.4531,-7.4805,-7.5117,-7.5273,-7.5273,-7.5273,-7.5273,-7.5312,-7.539,-7.5469,-7.5469,-7.6172,-7.6562,-7.668,-7.6719,-7.6914,-7.7148,-7.6758,-7.6445,-7.6484,-7.6601,-7.6758,-7.6953,-7.7031,-7.7226,-7.7109,-7.6836,-7.6367,-7.582,-7.5195,-7.4922,-7.457,-7.3945,-7.3711,-7.375,-7.3203,-7.2812,-7.2617,-7.2265,-7.168,-7.0976,-7.082,-7.1821,-7.3857,-7.6955,-7.9853,-8.0455,-8.1974,-8.3464,-8.3031,-8.149,-8.2206,-8.5376,-8.5375,-8.4019,-8.7006,-9.004,-8.9739,-8.9438,-8.9337,-8.9287,-8.9287,-8.9287,-8.9237,-8.9136,-8.9036,-8.8885,-8.8735,-8.8785,-8.8785,-8.8684,-8.8634,-8.8584,-8.8484,-8.8082,-8.778,-5.0902,-5.0849,-5.0849,-5.0875,-5.1844,-5.6229,-5.8426,-5.9295,-6.3927,-6.6747,-6.679,-6.9262,-7.085,-7.1078,-7.3446,-7.5273,-7.5105,-7.4522,-7.4453,-7.4453,-7.4375,-7.4062,-7.375,-7.3555,-7.332,-7.3203,-7.3164,-7.3242,-7.3281,-7.332,-7.3242,-7.332,-7.3398,-7.3242,-7.3437,-7.3945,-7.4219,-7.4453,-7.5039,-7.539,-7.5469,-7.5625,-7.5742,-7.5781,-7.5781,-7.5742,-7.582,-7.6055,-7.6406,-7.6719,-7.6992,-7.7383,-7.7812,-7.7969,-7.8047,-7.8086,-7.8008,-7.7617,-7.7265,-7.7344,-7.7422,-7.7265,-7.7344,-7.7344,-7.7656,-7.7265,-7.668,-7.6133,-7.5976,-7.5703,-7.5078,-7.4609,-7.4219,-7.3906,-7.3476,-7.3008,-7.2695,-7.2305,-7.1875,-7.1601,-7.1094,-7.0892,-7.1676,-7.4247,-7.7042,-7.9898,-8.2784,-8.5182,-8.4706,-8.3507,-8.5041,-8.7196,-8.5856,-8.4984,-8.7776,-9.0191,-8.9839,-8.9538,-8.9387,-8.9287,-8.9287,-8.9237,-8.9187,-8.9136,-8.8986,-8.8835,-8.8584,-8.8433,-8.8433,-8.8232,-8.8032,-8.7981,-8.7831,-8.7529,-8.7228,-5.1036,-5.1036,-5.1036,-5.1036,-5.1647,-5.5352,-5.7283,-5.8278,-6.1783,-6.3619,-6.3855,-6.603,-6.6758,-6.7243,-7.0787,-7.2674,-7.3289,-7.4626,-7.4883,-7.4883,-7.4883,-7.4726,-7.4609,-7.4414,-7.4258,-7.3711,-7.3594,-7.3711,-7.3867,-7.3945,-7.4062,-7.4219,-7.418,-7.4414,-7.4453,-7.4765,-7.4844,-7.4961,-7.5508,-7.5859,-7.5898,-7.6094,-7.6328,-7.6445,-7.6523,-7.6562,-7.6836,-7.6992,-7.7461,-7.789,-7.8086,-7.8242,-7.8633,-7.8789,-7.8867,-7.8984,-7.8633,-7.8359,-7.7969,-7.8125,-7.8242,-7.7812,-7.7812,-7.789,-7.789,-7.7578,-7.7031,-7.6601,-7.6445,-7.6133,-7.5312,-7.4844,-7.4414,-7.4023,-7.3594,-7.3164,-7.2734,-7.2265,-7.1914,-7.1719,-7.1289,-7.0976,-7.161,-7.3109,-7.6037,-7.9782,-8.2681,-8.5088,-8.7189,-8.6476,-8.6957,-8.7776,-8.6674,-8.6771,-8.9073,-9.0392,-9.004,-8.9739,-8.9488,-8.9387,-8.9287,-8.9237,-8.9187,-8.9036,-8.8835,-8.8684,-8.8433,-8.8283,-8.8032,-8.7881,-8.768,-8.7479,-8.7278,-8.7077,-8.6776,-5.1036,-5.1036,-5.1036,-5.1036,-5.162,-5.4631,-5.5986,-5.6945,-6.0106,-6.0707,-6.1597,-6.2299,-6.2917,-6.3457,-6.7053,-6.8924,-7.0787,-7.3637,-7.5117,-7.5,-7.5,-7.5117,-7.5234,-7.5312,-7.5117,-7.4219,-7.4297,-7.4531,-7.4726,-7.4805,-7.4922,-7.5234,-7.5273,-7.5312,-7.5625,-7.5625,-7.5469,-7.5547,-7.5976,-7.6211,-7.6211,-7.6484,-7.6797,-7.7148,-7.7383,-7.75,-7.7734,-7.789,-7.8242,-7.9023,-7.9101,-7.914,-7.918,-7.9219,-7.9336,-7.9648,-7.9062,-7.8672,-7.8476,-7.8711,-7.8828,-7.8515,-7.8437,-7.8437,-7.8281,-7.7773,-7.7265,-7.6914,-7.6601,-7.6094,-7.539,-7.5,-7.4492,-7.3945,-7.3515,-7.3125,-7.2656,-7.2226,-7.1875,-7.1601,-7.1406,-7.1172,-7.1355,-7.2508,-7.6117,-7.9309,-8.2214,-8.4896,-8.7006,-8.9013,-8.9211,-8.9261,-8.8406,-8.7732,-8.9735,-9.0442,-9.009,-8.9789,-8.9538,-8.9387,-8.9237,-8.9036,-8.8935,-8.8785,-8.8584,-8.8383,-8.8032,-8.763,-8.7429,-8.7429,-8.7128,-8.6676,-8.6575,-8.6575,-8.6324,-5.1036,-5.1036,-5.1036,-5.1036,-5.1062,-5.217,-5.2586,-5.2442,-5.3808,-5.3891,-5.4567,-5.7695,-5.9067,-6.0225,-6.3055,-6.629,-6.9298,-7.3197,-7.5156,-7.4922,-7.4922,-7.4872,-7.5495,-7.5378,-7.5547,-7.5456,-7.5625,-7.5547,-7.5547,-7.5664,-7.5664,-7.5742,-7.582,-7.5898,-7.6015,-7.6094,-7.6211,-7.6172,-7.6562,-7.6797,-7.6797,-7.7031,-7.7344,-7.7773,-7.8086,-7.832,-7.8398,-7.8398,-7.8594,-7.9023,-7.9101,-7.9297,-7.9492,-7.957,-7.9648,-7.9648,-7.9531,-7.914,-7.8711,-7.8867,-7.8828,-7.8594,-7.8515,-7.8476,-7.8359,-7.7969,-7.7422,-7.6797,-7.6367,-7.5937,-7.5781,-7.5312,-7.457,-7.3828,-7.3359,-7.3008,-7.2383,-7.207,-7.1992,-7.1797,-7.1562,-7.1367,-7.167,-7.2234,-7.4451,-7.7661,-8.0569,-8.366,-8.6383,-8.8793,-9.037,-9.0607,-9.037,-9.0071,-9.0291,-9.0241,-9.004,-8.9689,-8.9438,-8.9287,-8.9086,-8.8785,-8.8584,-8.8232,-8.8032,-8.7881,-8.7429,-8.7027,-8.6776,-8.6726,-8.6274,-8.5772,-8.5973,-8.6123,-8.5922,-5.1036,-5.1036,-5.1036,-5.1036,-5.1036,-5.1169,-5.133,-5.149,-5.1704,-5.1757,-5.235,-5.3923,-5.4989,-5.5999,-5.9403,-6.402,-6.9654,-7.4018,-7.5495,-7.5586,-7.543,-7.5586,-7.5923,-7.5976,-7.625,-7.6562,-7.6601,-7.625,-7.5937,-7.6094,-7.6172,-7.625,-7.6406,-7.6562,-7.6601,-7.6758,-7.668,-7.664,-7.6914,-7.707,-7.6953,-7.7383,-7.8047,-7.8476,-7.8867,-7.9219,-7.9375,-7.918,-7.9336,-7.9648,-7.9531,-7.957,-7.9648,-7.9726,-7.9726,-7.9726,-7.9726,-7.9492,-7.8984,-7.914,-7.9219,-7.8867,-7.8789,-7.8672,-7.8437,-7.8047,-7.75,-7.6953,-7.6445,-7.6211,-7.6172,-7.5625,-7.4844,-7.414,-7.3594,-7.3008,-7.25,-7.2187,-7.207,-7.2031,-7.1875,-7.1719,-7.164,-7.2214,-7.3312,-7.5706,-7.8774,-8.2115,-8.5241,-8.8077,-9.0582,-9.1396,-9.1396,-9.1045,-9.0693,-9.0442,-9.009,-8.9639,-8.9387,-8.9237,-8.9036,-8.8785,-8.8082,-8.7429,-8.7329,-8.7379,-8.7228,-8.6927,-8.6475,-8.6023,-8.5722,-8.5521,-8.5621,-8.5621,-8.547,-5.1036,-5.1036,-5.1036,-5.1036,-5.1036,-5.1036,-5.1169,-5.1356,-5.1383,-5.1383,-5.141,-5.165,-5.2148,-5.3188,-5.704,-6.2363,-6.9815,-7.3021,-7.5056,-7.6172,-7.5937,-7.6055,-7.6406,-7.6562,-7.668,-7.6992,-7.707,-7.6836,-7.6445,-7.6523,-7.6601,-7.6719,-7.7031,-7.7187,-7.7148,-7.7109,-7.6875,-7.6836,-7.6914,-7.6953,-7.707,-7.789,-7.875,-7.9101,-7.9492,-7.9844,-7.9961,-7.9765,-7.9765,-7.9922,-7.9883,-7.9726,-7.9726,-7.9726,-7.9726,-7.9726,-7.9726,-7.9492,-7.9297,-7.9453,-7.9492,-7.9062,-7.918,-7.8945,-7.8437,-7.8008,-7.75,-7.7187,-7.6914,-7.6484,-7.625,-7.5742,-7.5078,-7.4375,-7.3711,-7.3164,-7.2851,-7.2539,-7.2265,-7.2226,-7.2148,-7.2031,-7.1914,-7.1758,-7.2831,-7.4006,-7.6877,-8.0359,-8.378,-8.7534,-9.0166,-9.1519,-9.1949,-9.1647,-9.1296,-9.0794,-9.0291,-8.9639,-8.9387,-8.9237,-8.9036,-8.8835,-8.8132,-8.7529,-8.6927,-8.6977,-8.6927,-8.6726,-8.6174,-8.5722,-8.542,-8.527,-8.537,-8.537,-8.527,-5.1036,-5.1036,-5.1036,-5.1036,-5.1036,-5.1036,-5.1036,-5.1089,-5.1116,-5.1062,-5.1143,-5.1383,-5.165,-5.285,-5.6481,-6.0529,-6.4783,-6.9432,-7.2872,-7.4979,-7.5728,-7.6172,-7.6484,-7.6523,-7.6758,-7.7148,-7.7226,-7.7148,-7.6953,-7.6992,-7.707,-7.7109,-7.7109,-7.7187,-7.7187,-7.7187,-7.7148,-7.7109,-7.7148,-7.7344,-7.7695,-7.8476,-7.8906,-7.9219,-7.9492,-7.9805,-7.9922,-7.9805,-7.9805,-7.9844,-7.9805,-7.9726,-7.9726,-7.9726,-7.9726,-7.9726,-7.9687,-7.9531,-7.9297,-7.9492,-7.9609,-7.9336,-7.9414,-7.918,-7.8555,-7.789,-7.7422,-7.7226,-7.7109,-7.6758,-7.625,-7.5898,-7.5195,-7.4453,-7.3789,-7.3437,-7.3164,-7.2734,-7.25,-7.2461,-7.2422,-7.2226,-7.207,-7.1953,-7.2068,-7.3527,-7.5191,-7.8737,-8.2795,-8.7081,-9.0268,-9.1819,-9.2099,-9.1798,-9.1296,-9.0894,-9.0342,-8.9639,-8.9438,-8.9187,-8.8986,-8.8835,-8.8835,-8.8232,-8.7479,-8.6726,-8.6575,-8.6324,-8.5822,-8.5571,-8.537,-8.5219,-8.5169,-8.5119,-8.5019,-5.1036,-5.1036,-5.1036,-5.1036,-5.1036,-5.1036,-5.1036,-5.1036,-5.1036,-5.1036,-5.1036,-5.1143,-5.1463,-5.2823,-5.6626,-5.9462,-6.2235,-6.7414,-7.1152,-7.3463,-7.5171,-7.6484,-7.6758,-7.668,-7.6758,-7.7187,-7.7383,-7.7383,-7.7305,-7.7226,-7.7187,-7.7187,-7.7187,-7.7187,-7.7187,-7.7187,-7.7187,-7.7187,-7.7265,-7.7539,-7.8125,-7.8555,-7.8984,-7.9414,-7.9609,-7.9805,-7.9961,-7.9805,-7.9883,-7.9961,-7.9922,-7.9726,-7.9726,-7.9726,-7.9726,-7.9726,-7.9726,-7.9648,-7.9531,-7.9648,-7.957,-7.9531,-7.9531,-7.9297,-7.8594,-7.8125,-7.7617,-7.7226,-7.7422,-7.707,-7.6328,-7.6015,-7.5469,-7.4765,-7.3984,-7.3789,-7.3515,-7.2969,-7.2656,-7.2695,-7.2656,-7.2461,-7.2226,-7.207,-7.1914,-7.257,-7.4864,-7.8213,-8.2813,-8.8014,-9.0415,-9.226,-9.2149,-9.1748,-9.1145,-9.0643,-9.0141,-8.9538,-8.9387,-8.9187,-8.8885,-8.8785,-8.8835,-8.8534,-8.768,-8.7027,-8.6525,-8.6123,-8.5872,-8.5621,-8.537,-8.537,-8.527,-8.4818,-8.4818,-5.1036,-5.1036,-5.1036,-5.1036,-5.1036,-5.1036,-5.1036,-5.1036,-5.1036,-5.1036,-5.1062,-5.1196,-5.149,-5.2485,-5.5442,-5.7566,-5.9336,-6.5248,-6.8938,-7.1552,-7.3839,-7.5671,-7.6662,-7.6875,-7.6953,-7.7344,-7.7617,-7.7617,-7.75,-7.7461,-7.75,-7.7226,-7.7187,-7.7187,-7.7187,-7.7187,-7.7187,-7.7187,-7.7461,-7.789,-7.8359,-7.8594,-7.9062,-7.9492,-7.9765,-7.9883,-8.0117,-7.9922,-7.9922,-8.0,-7.9883,-7.9726,-7.9726,-7.9726,-7.9726,-7.9726,-7.9726,-7.9726,-7.9687,-7.9726,-7.9726,-7.9687,-7.9531,-7.9219,-7.8633,-7.8398,-7.8047,-7.7226,-7.7383,-7.7109,-7.6523,-7.6015,-7.5547,-7.4961,-7.4336,-7.418,-7.3984,-7.3359,-7.3086,-7.3164,-7.3047,-7.2578,-7.2383,-7.2148,-7.2264,-7.2146,-7.4452,-7.7901,-8.2784,-8.8206,-9.061,-9.2401,-9.2099,-9.1547,-9.0844,-9.0291,-8.9789,-8.9488,-8.9337,-8.9237,-8.8986,-8.8935,-8.8986,-8.8484,-8.7881,-8.7529,-8.7128,-8.6525,-8.5922,-8.5621,-8.537,-8.5521,-8.537,-8.4918,-8.4818,-5.1036,-5.1036,-5.1036,-5.1036,-5.1036,-5.1036,-5.1036,-5.1036,-5.1036,-5.1036,-5.1143,-5.1543,-5.1677,-5.2121,-5.3258,-5.5384,-5.8171,-5.9366,-6.4336,-6.8938,-7.1661,-7.4065,-7.5941,-7.7226,-7.7305,-7.7617,-7.7851,-7.7851,-7.7812,-7.793,-7.7695,-7.7305,-7.7383,-7.7265,-7.7226,-7.7265,-7.7344,-7.75,-7.789,-7.8281,-7.8594,-7.8828,-7.9258,-7.9609,-7.9726,-7.9726,-7.9765,-7.9726,-7.9726,-7.9844,-7.9765,-7.9726,-7.9726,-7.9726,-7.9726,-7.9726,-7.9726,-7.9726,-7.9726,-7.9726,-7.9726,-7.9609,-7.9414,-7.914,-7.8633,-7.8125,-7.7695,-7.7383,-7.7461,-7.6914,-7.6328,-7.582,-7.5508,-7.4922,-7.4453,-7.4375,-7.414,-7.3711,-7.3476,-7.3633,-7.3359,-7.2773,-7.2461,-7.2226,-7.1992,-7.2107,-7.5253,-7.8688,-8.2784,-8.7662,-9.0462,-9.2099,-9.1898,-9.1296,-9.0442,-8.994,-8.9639,-8.9488,-8.9337,-8.9287,-8.9237,-8.9187,-8.9136,-8.8935,-8.8433,-8.8082,-8.758,-8.6826,-8.6174,-8.5621,-8.542,-8.5621,-8.5722,-8.547,-8.547,-5.1036,-5.1036,-5.1036,-5.1036,-5.1036,-5.1036,-5.1036,-5.1036,-5.1036,-5.1143,-5.133,-5.1704,-5.1944,-5.2131,-5.2452,-5.3324,-5.5384,-5.7906,-6.2229,-6.6494,-6.9836,-7.3217,-7.6018,-7.7383,-7.7539,-7.7617,-7.789,-7.7851,-7.75,-7.8008,-7.793,-7.7695,-7.7812,-7.7578,-7.7461,-7.75,-7.7695,-7.793,-7.8281,-7.8555,-7.8867,-7.8984,-7.9297,-7.9687,-7.9726,-7.9726,-7.9726,-7.9726,-7.9726,-7.9726,-7.9726,-7.9726,-7.9726,-7.9726,-7.9726,-7.9726,-7.9726,-7.9726,-7.9726,-7.9726,-7.9726,-7.9726,-7.957,-7.9297,-7.8906,-7.8672,-7.8203,-7.7851,-7.75,-7.7031,-7.6094,-7.5859,-7.5586,-7.4883,-7.4531,-7.4531,-7.4297,-7.3945,-7.3789,-7.3906,-7.3359,-7.2734,-7.2461,-7.2265,-7.2031,-7.2107,-7.5786,-7.9429,-8.3249,-8.7319,-9.0412,-9.1798,-9.1547,-9.1145,-9.0291,-8.989,-8.9538,-8.9438,-8.9287,-8.9287,-8.9287,-8.9287,-8.9187,-8.9086,-8.8885,-8.8333,-8.773,-8.6977,-8.6374,-8.5872,-8.5772,-8.5872,-8.5872,-8.5872,-8.5922,-5.1036,-5.1036,-5.1036,-5.1036,-5.1036,-5.1036,-5.1036,-5.1036,-5.1036,-5.1196,-5.149,-5.1784,-5.2078,-5.2345,-5.2639,-5.2773,-5.3666,-5.5838,-5.9177,-6.3148,-6.7098,-7.1363,-7.4548,-7.6797,-7.75,-7.75,-7.7812,-7.789,-7.7734,-7.8008,-7.8008,-7.8086,-7.832,-7.8125,-7.7851,-7.7851,-7.8125,-7.8242,-7.8437,-7.8594,-7.8867,-7.9062,-7.9297,-7.9648,-7.9726,-7.9726,-7.9726,-7.9726,-7.9726,-7.9726,-7.9726,-7.9726,-7.9726,-7.9726,-7.9726,-7.9726,-7.9726,-7.9726,-7.9726,-7.9726,-7.9805,-7.9922,-7.9765,-7.957,-7.9336,-7.9062,-7.8398,-7.789,-7.7656,-7.7187,-7.6133,-7.6094,-7.5859,-7.5312,-7.4922,-7.4805,-7.4609,-7.4297,-7.4219,-7.414,-7.3476,-7.289,-7.2656,-7.2461,-7.2342,-7.3458,-7.7375,-8.0122,-8.2514,-8.6585,-9.1138,-9.1697,-9.1246,-9.0743,-9.0191,-8.9789,-8.9438,-8.9387,-8.9287,-8.9287,-8.9287,-8.9287,-8.9287,-8.9187,-8.8935,-8.8484,-8.8032,-8.763,-8.6877,-8.6123,-8.6023,-8.5973,-8.5973,-8.5922,-8.5973,-5.1036,-5.1036,-5.1036,-5.1036,-5.1036,-5.1036,-5.1036,-5.1036,-5.1036,-5.1223,-5.1517,-5.1784,-5.2078,-5.2372,-5.2692,-5.2773,-5.2773,-5.3378,-5.5838,-6.0105,-6.4369,-6.7701,-7.1734,-7.5175,-7.75,-7.7734,-7.7969,-7.8164,-7.8242,-7.8515,-7.8398,-7.8359,-7.8672,-7.8828,-7.8437,-7.8437,-7.8242,-7.7969,-7.832,-7.8476,-7.8711,-7.8945,-7.9297,-7.9609,-7.9726,-7.9726,-7.9726,-7.9726,-7.9726,-7.9726,-7.9726,-7.9726,-7.9726,-7.9726,-7.9726,-7.9726,-7.9726,-7.9726,-7.9726,-7.9726,-7.9883,-8.0078,-7.9844,-7.9687,-7.9531,-7.9062,-7.8437,-7.8047,-7.7617,-7.7109,-7.668,-7.6406,-7.6094,-7.5742,-7.5351,-7.5039,-7.4844,-7.457,-7.4414,-7.418,-7.3711,-7.3242,-7.2969,-7.2891,-7.2693,-7.4573,-7.895,-8.1368,-8.2678,-8.6596,-9.118,-9.1497,-9.0944,-9.0442,-8.994,-8.9588,-8.9337,-8.9287,-8.9287,-8.9287,-8.9287,-8.9287,-8.9287,-8.9287,-8.9086,-8.8785,-8.8584,-8.8383,-8.7479,-8.6625,-8.6123,-8.6023,-8.6023,-8.6023,-8.6073,-5.1036,-5.1036,-5.1036,-5.1036,-5.1036,-5.1036,-5.1036,-5.1036,-5.1062,-5.1303,-5.1704,-5.1891,-5.2211,-5.2532,-5.2692,-5.2773,-5.2773,-5.3089,-5.4925,-5.8897,-6.3148,-6.7098,-7.1102,-7.4918,-7.75,-7.7578,-7.7851,-7.8086,-7.8008,-7.8555,-7.8789,-7.8828,-7.9023,-7.9062,-7.8633,-7.8476,-7.8359,-7.8281,-7.8437,-7.8594,-7.8828,-7.9023,-7.9297,-7.9687,-7.9687,-7.9726,-7.9726,-7.9726,-7.9726,-7.9726,-7.9726,-7.9726,-7.9726,-7.9726,-7.9726,-7.9726,-7.9726,-7.9726,-7.9726,-7.9726,-7.9765,-7.9844,-7.9844,-7.9726,-7.9648,-7.9219,-7.8711,-7.8281,-7.7812,-7.7265,-7.668,-7.6523,-7.625,-7.5859,-7.5508,-7.5273,-7.5039,-7.4687,-7.4453,-7.418,-7.3789,-7.332,-7.3008,-7.4569,-7.4709,-7.5951,-8.0037,-8.1759,-8.3068,-8.7336,-9.1748,-9.1195,-9.0643,-9.0141,-8.9689,-8.9488,-8.9337,-8.9287,-8.9287,-8.9287,-8.9287,-8.9287,-8.9287,-8.9287,-8.9237,-8.9136,-8.8785,-8.8433,-8.7831,-8.7178,-8.6676,-8.6274,-8.6224,-8.6224,-8.6174,-5.1036,-5.1036,-5.1036,-5.1036,-5.1036,-5.1036,-5.1036,-5.1036,-5.1143,-5.1463,-5.1837,-5.1998,-5.2318,-5.2666,-5.2773,-5.2773,-5.2773,-5.2773,-5.3405,-5.7683,-6.2536,-6.5888,-6.9643,-7.4403,-7.7207,-7.7578,-7.789,-7.8164,-7.8398,-7.8555,-7.8789,-7.9062,-7.9336,-7.8906,-7.8515,-7.832,-7.8359,-7.8242,-7.8203,-7.8281,-7.8594,-7.8867,-7.9219,-7.9453,-7.9609,-7.9726,-7.9726,-7.9726,-7.9726,-7.9726,-7.9726,-7.9726,-7.9726,-7.9726,-7.9726,-7.9726,-7.9726,-7.9726,-7.9726,-7.9726,-7.9765,-7.9765,-7.9726,-7.9805,-7.9765,-7.9414,-7.9062,-7.8633,-7.8164,-7.7617,-7.707,-7.6914,-7.6562,-7.6172,-7.5937,-7.5742,-7.5508,-7.5195,-7.4726,-7.4453,-7.4062,-7.3594,-7.3637,-7.5655,-7.694,-7.9031,-8.1421,-8.2573,-8.3965,-8.8266,-9.1697,-9.1145,-9.0643,-9.0291,-8.989,-8.9488,-8.9337,-8.9287,-8.9287,-8.9287,-8.9287,-8.9287,-8.9287,-8.9287,-8.9237,-8.9136,-8.8835,-8.8383,-8.8082,-8.768,-8.7228,-8.6877,-8.6575,-8.6575,-8.6575,-5.1009,-5.1009,-5.1036,-5.1036,-5.1036,-5.1036,-5.1036,-5.1036,-5.1303,-5.1597,-5.1917,-5.2158,-5.2425,-5.2719,-5.2773,-5.2773,-5.2773,-5.2773,-5.3089,-5.5211,-6.0723,-6.3759,-6.7735,-7.2698,-7.5993,-7.744,-7.8008,-7.8437,-7.8984,-7.9101,-7.914,-7.9101,-7.918,-7.8672,-7.832,-7.8125,-7.8125,-7.793,-7.7812,-7.7969,-7.8281,-7.8711,-7.9062,-7.9336,-7.957,-7.9687,-7.9726,-7.9726,-7.9726,-7.9726,-7.9726,-7.9726,-7.9726,-7.9726,-7.9726,-7.9687,-7.9648,-7.957,-7.9609,-7.9609,-7.9687,-7.9687,-7.9726,-7.9961,-7.9922,-7.957,-7.9219,-7.8867,-7.8398,-7.8086,-7.7695,-7.7383,-7.707,-7.6797,-7.6601,-7.6367,-7.6211,-7.582,-7.5312,-7.4922,-7.457,-7.4342,-7.4308,-7.6021,-7.9588,-8.1299,-8.3356,-8.6511,-8.791,-8.9194,-9.1609,-9.1296,-9.0844,-9.0542,-9.0141,-8.9639,-8.9387,-8.9287,-8.9287,-8.9287,-8.9287,-8.9287,-8.9287,-8.9287,-8.9287,-8.9136,-8.8986,-8.8785,-8.8584,-8.8182,-8.7931,-8.7529,-8.7228,-8.7228,-8.7228,-5.0902,-5.0742,-5.0929,-5.1036,-5.1036,-5.1036,-5.1036,-5.1036,-5.1143,-5.141,-5.1917,-5.1998,-5.2345,-5.2746,-5.2773,-5.2773,-5.2773,-5.2773,-5.2773,-5.5239,-5.8587,-6.2111,-6.6089,-7.0648,-7.4591,-7.7122,-7.832,-7.8555,-7.9062,-7.9336,-7.9297,-7.914,-7.9023,-7.8515,-7.8125,-7.793,-7.7734,-7.7539,-7.7422,-7.7734,-7.8086,-7.8515,-7.8945,-7.9375,-7.9609,-7.9726,-7.9726,-7.9726,-7.9726,-7.9726,-7.9726,-7.9726,-7.9726,-7.9726,-7.9648,-7.9258,-7.9062,-7.8906,-7.9219,-7.9297,-7.9414,-7.9648,-7.9726,-7.9765,-7.9805,-7.9648,-7.9336,-7.8984,-7.8515,-7.8125,-7.7773,-7.75,-7.7265,-7.707,-7.6836,-7.668,-7.6445,-7.5976,-7.543,-7.5,-7.4648,-7.4258,-7.4545,-7.879,-8.2353,-8.3686,-8.5624,-8.9037,-9.0807,-9.1628,-9.1759,-9.1497,-9.1045,-9.0743,-9.0241,-8.9689,-8.9438,-8.9287,-8.9287,-8.9287,-8.9287,-8.9287,-8.9287,-8.9287,-8.9287,-8.9287,-8.9237,-8.9036,-8.8885,-8.8986,-8.8785,-8.8283,-8.7931,-8.7931,-8.7931,-5.0929,-5.0795,-5.0956,-5.1036,-5.1036,-5.1036,-5.1089,-5.1169,-5.1196,-5.149,-5.1891,-5.2024,-5.2345,-5.2719,-5.2773,-5.2773,-5.2773,-5.2773,-5.2773,-5.3693,-5.6777,-5.9918,-6.3615,-6.8244,-7.2506,-7.5676,-7.7624,-7.875,-7.918,-7.9297,-7.9258,-7.8867,-7.8867,-7.8437,-7.8008,-7.7812,-7.7617,-7.7383,-7.7305,-7.7617,-7.8008,-7.8398,-7.8906,-7.9375,-7.9609,-7.9726,-7.9726,-7.9726,-7.9726,-7.9726,-7.9726,-7.9726,-7.9648,-7.957,-7.9258,-7.8906,-7.8711,-7.8672,-7.8828,-7.9062,-7.9219,-7.9453,-7.9648,-7.9726,-7.9648,-7.9531,-7.9297,-7.9023,-7.8515,-7.8086,-7.7773,-7.75,-7.7344,-7.7187,-7.6992,-7.6836,-7.6406,-7.5937,-7.5469,-7.5,-7.4609,-7.4258,-7.664,-8.1238,-8.4633,-8.5172,-8.7404,-9.1103,-9.2226,-9.2069,-9.22,-9.1697,-9.1296,-9.0944,-9.0392,-8.994,-8.9689,-8.9488,-8.9337,-8.9337,-8.9287,-8.9287,-8.9287,-8.9287,-8.9287,-8.9287,-8.9287,-8.9287,-8.9187,-8.9287,-8.9287,-8.8885,-8.8584,-8.8584,-8.8634,-5.0956,-5.0929,-5.1009,-5.1036,-5.1036,-5.1062,-5.1223,-5.1463,-5.149,-5.1677,-5.1971,-5.2211,-5.2479,-5.2746,-5.2773,-5.2773,-5.2773,-5.2773,-5.2826,-5.2799,-5.5553,-5.8395,-6.1865,-6.6595,-7.0705,-7.3281,-7.6016,-7.8633,-7.9219,-7.9297,-7.8984,-7.8476,-7.8515,-7.8242,-7.7773,-7.7773,-7.7656,-7.7461,-7.7422,-7.7617,-7.7969,-7.832,-7.8711,-7.918,-7.9492,-7.9726,-7.9726,-7.9726,-7.9726,-7.9726,-7.9726,-7.9726,-7.9531,-7.914,-7.875,-7.8476,-7.8281,-7.8281,-7.8476,-7.875,-7.8984,-7.9219,-7.9453,-7.9648,-7.9648,-7.9375,-7.918,-7.8984,-7.8515,-7.8086,-7.7734,-7.7461,-7.7265,-7.7187,-7.7109,-7.6914,-7.6601,-7.6015,-7.5351,-7.4922,-7.4648,-7.4336,-7.5537,-8.0149,-8.4115,-8.5538,-8.8698,-9.2923,-9.3355,-9.2802,-9.2401,-9.1949,-9.1597,-9.1195,-9.0743,-9.0342,-9.004,-8.9789,-8.9538,-8.9387,-8.9287,-8.9287,-8.9287,-8.9287,-8.9287,-8.9287,-8.9287,-8.9287,-8.9287,-8.9287,-8.9287,-8.9287,-8.9187,-8.9086,-8.9036,-5.0368,-5.0394,-5.0849,-5.1036,-5.1062,-5.1276,-5.141,-5.149,-5.1704,-5.1971,-5.2211,-5.2318,-5.2505,-5.2746,-5.2773,-5.2773,-5.2773,-5.2799,-5.2906,-5.2906,-5.4406,-5.6636,-5.9688,-6.4259,-6.8658,-7.2788,-7.6016,-7.8359,-7.8711,-7.8828,-7.8711,-7.8086,-7.8164,-7.8047,-7.7461,-7.7617,-7.7656,-7.7578,-7.7695,-7.789,-7.832,-7.8711,-7.914,-7.9453,-7.9726,-7.9726,-7.9726,-7.9726,-7.9726,-7.9726,-7.9726,-7.957,-7.9258,-7.8555,-7.8125,-7.793,-7.7734,-7.7773,-7.8047,-7.8398,-7.875,-7.914,-7.9414,-7.9609,-7.9609,-7.9297,-7.8984,-7.8789,-7.8476,-7.8047,-7.7695,-7.7422,-7.7187,-7.7187,-7.7187,-7.6953,-7.6719,-7.5976,-7.5234,-7.4883,-7.4648,-7.5054,-7.6015,-7.8726,-8.2747,-8.671,-9.0453,-9.3212,-9.3304,-9.2903,-9.2652,-9.225,-9.1949,-9.1547,-9.1145,-9.0643,-9.0342,-8.989,-8.9488,-8.9387,-8.9287,-8.9488,-8.9639,-8.9387,-8.9287,-8.9337,-8.9337,-8.9287,-8.9287,-8.9287,-8.9287,-8.9287,-8.9287,-8.9187,-8.9237,-5.0154,-5.0207,-5.0635,-5.0902,-5.1062,-5.133,-5.1543,-5.1704,-5.1971,-5.2265,-5.2479,-5.2425,-5.2505,-5.2746,-5.2773,-5.2773,-5.2773,-5.2773,-5.2826,-5.2906,-5.325,-5.4516,-5.7888,-6.2482,-6.5945,-7.0632,-7.6054,-7.8515,-7.832,-7.8281,-7.8125,-7.7695,-7.7812,-7.7734,-7.7226,-7.7461,-7.7695,-7.7812,-7.7969,-7.832,-7.8672,-7.9023,-7.9336,-7.9609,-7.9726,-7.9726,-7.9726,-7.9687,-7.9609,-7.9414,-7.9219,-7.8906,-7.8555,-7.8125,-7.7773,-7.7539,-7.7383,-7.7305,-7.7656,-7.8086,-7.8555,-7.8906,-7.9453,-7.9687,-7.957,-7.9258,-7.8789,-7.8515,-7.793,-7.75,-7.7461,-7.7226,-7.7187,-7.7187,-7.7109,-7.6953,-7.6406,-7.5703,-7.5117,-7.4726,-7.457,-7.457,-7.5736,-7.7904,-8.1679,-8.512,-8.9141,-9.2724,-9.2768,-9.2953,-9.2702,-9.2501,-9.22,-9.2099,-9.1898,-9.1246,-9.0593,-9.009,-8.9538,-8.9387,-8.9337,-8.9789,-9.004,-8.9588,-8.9387,-8.9488,-8.9488,-8.9387,-8.9287,-8.9287,-8.9287,-8.9287,-8.9287,-8.9287,-8.9287,-5.0074,-5.0181,-5.0528,-5.0822,-5.1116,-5.141,-5.1704,-5.1971,-5.2265,-5.2532,-5.2692,-5.2505,-5.2585,-5.2692,-5.2826,-5.2799,-5.2826,-5.2879,-5.2879,-5.2879,-5.2826,-5.3567,-5.6293,-6.0815,-6.5746,-7.0759,-7.5717,-7.7611,-7.793,-7.793,-7.7812,-7.7344,-7.7265,-7.7265,-7.7226,-7.7344,-7.7539,-7.7969,-7.8281,-7.8711,-7.8984,-7.918,-7.9453,-7.9609,-7.9726,-7.9726,-7.9726,-7.9648,-7.9492,-7.9101,-7.8711,-7.8359,-7.8047,-7.7773,-7.7539,-7.7305,-7.7265,-7.7226,-7.7422,-7.8008,-7.832,-7.8711,-7.9336,-7.9609,-7.9492,-7.918,-7.8711,-7.8203,-7.7617,-7.7265,-7.7226,-7.7187,-7.7187,-7.7109,-7.6992,-7.6797,-7.6133,-7.5469,-7.5,-7.457,-7.457,-7.457,-7.5696,-7.7588,-8.0561,-8.3763,-8.6782,-8.9954,-9.2086,-9.2469,-9.2652,-9.2551,-9.2451,-9.2401,-9.235,-9.1647,-9.0693,-9.0241,-8.9739,-8.9488,-8.9337,-8.9639,-8.9739,-8.9538,-8.9438,-8.9538,-8.9538,-8.9438,-8.9337,-8.9337,-8.9287,-8.9287,-8.9287,-8.9287,-8.9287,-4.9726,-5.0207,-5.0715,-5.1116,-5.141,-5.1704,-5.1998,-5.2265,-5.2559,-5.2746,-5.2746,-5.2746,-5.2746,-5.2799,-5.304,-5.304,-5.2799,-5.2933,-5.3093,-5.312,-5.2853,-5.2933,-5.5491,-6.1248,-6.8476,-7.3401,-7.6941,-7.7611,-7.7812,-7.7773,-7.7773,-7.7617,-7.7617,-7.75,-7.7265,-7.7461,-7.7773,-7.8164,-7.8437,-7.8789,-7.9375,-7.957,-7.9609,-7.9726,-7.9726,-7.9726,-7.9726,-7.9726,-7.9453,-7.9023,-7.8398,-7.7969,-7.7734,-7.7539,-7.7344,-7.7265,-7.7187,-7.7187,-7.7461,-7.8047,-7.8359,-7.8555,-7.914,-7.9609,-7.9414,-7.914,-7.8711,-7.8281,-7.7734,-7.7305,-7.7187,-7.7187,-7.7187,-7.6914,-7.6758,-7.6406,-7.5898,-7.5273,-7.4726,-7.457,-7.457,-7.4453,-7.446,-7.6957,-8.0022,-8.3146,-8.6083,-8.9261,-9.2774,-9.2811,-9.2601,-9.2551,-9.2551,-9.225,-9.1999,-9.1497,-9.0743,-9.0291,-8.989,-8.9639,-8.9438,-8.9337,-8.9337,-8.9387,-8.9438,-8.9538,-8.9488,-8.9438,-8.9538,-8.9538,-8.9387,-8.9287,-8.9287,-8.9287,-8.9287]}]]